<?xml version="1.0" encoding="UTF-8" standalone="no" ?>
<gpx xmlns="http://www.topografix.com/GPX/1/1" xmlns:xsi="http://www.w3.org/2001/XMLSchema-instance" xsi:schemaLocation="http://www.topografix.com/GPX/1/1 http://www.topografix.com/GPX/1/1/gpx.xsd" version="1.1" creator="VisuGPX - https://www.visugpx.com">
  <metadata>
    <name>rando du roch</name>
    <desc><![CDATA[circuit larche oct 2014 rando du roch]]></desc>
  </metadata>
  <trk>
    <name><![CDATA[circuit marche rando du roch oct 14]]></name>
    <trkseg>
      <trkpt lat="47.79662" lon="-3.20122">
        <ele>45.400001525879</ele>
        <time>2014-10-05T07:44:28.000Z</time>
      </trkpt>
      <trkpt lat="47.79662" lon="-3.20122">
        <ele>45.400001525879</ele>
        <time>2014-10-05T07:44:29.000Z</time>
      </trkpt>
      <trkpt lat="47.79661" lon="-3.20127">
        <ele>45.400001525879</ele>
        <time>2014-10-05T07:44:32.000Z</time>
      </trkpt>
      <trkpt lat="47.79662" lon="-3.20139">
        <ele>45</ele>
        <time>2014-10-05T07:44:38.000Z</time>
      </trkpt>
      <trkpt lat="47.79661" lon="-3.20143">
        <ele>45</ele>
        <time>2014-10-05T07:44:40.000Z</time>
      </trkpt>
      <trkpt lat="47.79661" lon="-3.20152">
        <ele>44.799999237061</ele>
        <time>2014-10-05T07:44:45.000Z</time>
      </trkpt>
      <trkpt lat="47.79661" lon="-3.2016">
        <ele>44.599998474121</ele>
        <time>2014-10-05T07:44:49.000Z</time>
      </trkpt>
      <trkpt lat="47.79659" lon="-3.20168">
        <ele>44.400001525879</ele>
        <time>2014-10-05T07:44:54.000Z</time>
      </trkpt>
      <trkpt lat="47.79658" lon="-3.20181">
        <ele>44.200000762939</ele>
        <time>2014-10-05T07:45:00.000Z</time>
      </trkpt>
      <trkpt lat="47.79659" lon="-3.20186">
        <ele>44</ele>
        <time>2014-10-05T07:45:02.000Z</time>
      </trkpt>
      <trkpt lat="47.79666" lon="-3.20196">
        <ele>43.799999237061</ele>
        <time>2014-10-05T07:45:09.000Z</time>
      </trkpt>
      <trkpt lat="47.79668" lon="-3.20198">
        <ele>43.799999237061</ele>
        <time>2014-10-05T07:45:11.000Z</time>
      </trkpt>
      <trkpt lat="47.7968" lon="-3.20205">
        <ele>43.599998474121</ele>
        <time>2014-10-05T07:45:18.000Z</time>
      </trkpt>
      <trkpt lat="47.79687" lon="-3.20209">
        <ele>43.599998474121</ele>
        <time>2014-10-05T07:45:23.000Z</time>
      </trkpt>
      <trkpt lat="47.79691" lon="-3.20211">
        <ele>43.599998474121</ele>
        <time>2014-10-05T07:45:28.000Z</time>
      </trkpt>
      <trkpt lat="47.79691" lon="-3.20212">
        <ele>43.599998474121</ele>
        <time>2014-10-05T07:45:29.000Z</time>
      </trkpt>
      <trkpt lat="47.79701" lon="-3.2022">
        <ele>43.599998474121</ele>
        <time>2014-10-05T07:45:36.000Z</time>
      </trkpt>
      <trkpt lat="47.79708" lon="-3.20224">
        <ele>43.400001525879</ele>
        <time>2014-10-05T07:45:41.000Z</time>
      </trkpt>
      <trkpt lat="47.79714" lon="-3.20229">
        <ele>43</ele>
        <time>2014-10-05T07:45:47.000Z</time>
      </trkpt>
      <trkpt lat="47.79722" lon="-3.20234">
        <ele>42.200000762939</ele>
        <time>2014-10-05T07:45:53.000Z</time>
      </trkpt>
      <trkpt lat="47.79726" lon="-3.20239">
        <ele>41.799999237061</ele>
        <time>2014-10-05T07:45:59.000Z</time>
      </trkpt>
      <trkpt lat="47.79741" lon="-3.20252">
        <ele>40.200000762939</ele>
        <time>2014-10-05T07:46:03.000Z</time>
      </trkpt>
      <trkpt lat="47.79754" lon="-3.20261">
        <ele>39.200000762939</ele>
        <time>2014-10-05T07:46:09.000Z</time>
      </trkpt>
      <trkpt lat="47.79764" lon="-3.20265">
        <ele>38.799999237061</ele>
        <time>2014-10-05T07:46:15.000Z</time>
      </trkpt>
      <trkpt lat="47.79766" lon="-3.20267">
        <ele>38.799999237061</ele>
        <time>2014-10-05T07:46:17.000Z</time>
      </trkpt>
      <trkpt lat="47.79769" lon="-3.20272">
        <ele>38.799999237061</ele>
        <time>2014-10-05T07:46:22.000Z</time>
      </trkpt>
      <trkpt lat="47.79769" lon="-3.20272">
        <ele>38.799999237061</ele>
        <time>2014-10-05T07:46:24.000Z</time>
      </trkpt>
      <trkpt lat="47.79771" lon="-3.20281">
        <ele>38.799999237061</ele>
        <time>2014-10-05T07:46:39.000Z</time>
      </trkpt>
      <trkpt lat="47.79772" lon="-3.20287">
        <ele>38.799999237061</ele>
        <time>2014-10-05T07:46:41.000Z</time>
      </trkpt>
      <trkpt lat="47.79774" lon="-3.20306">
        <ele>39</ele>
        <time>2014-10-05T07:46:51.000Z</time>
      </trkpt>
      <trkpt lat="47.79773" lon="-3.20313">
        <ele>39.200000762939</ele>
        <time>2014-10-05T07:46:54.000Z</time>
      </trkpt>
      <trkpt lat="47.79771" lon="-3.20327">
        <ele>39.400001525879</ele>
        <time>2014-10-05T07:47:01.000Z</time>
      </trkpt>
      <trkpt lat="47.79768" lon="-3.20332">
        <ele>39.599998474121</ele>
        <time>2014-10-05T07:47:04.000Z</time>
      </trkpt>
      <trkpt lat="47.79764" lon="-3.20341">
        <ele>39.599998474121</ele>
        <time>2014-10-05T07:47:10.000Z</time>
      </trkpt>
      <trkpt lat="47.79764" lon="-3.20353">
        <ele>39.599998474121</ele>
        <time>2014-10-05T07:47:17.000Z</time>
      </trkpt>
      <trkpt lat="47.79761" lon="-3.20364">
        <ele>39.799999237061</ele>
        <time>2014-10-05T07:47:23.000Z</time>
      </trkpt>
      <trkpt lat="47.79759" lon="-3.20368">
        <ele>39.799999237061</ele>
        <time>2014-10-05T07:47:26.000Z</time>
      </trkpt>
      <trkpt lat="47.79754" lon="-3.20378">
        <ele>40</ele>
        <time>2014-10-05T07:47:32.000Z</time>
      </trkpt>
      <trkpt lat="47.79755" lon="-3.20376">
        <ele>40</ele>
        <time>2014-10-05T07:47:35.000Z</time>
      </trkpt>
      <trkpt lat="47.79754" lon="-3.20379">
        <ele>40</ele>
        <time>2014-10-05T07:47:40.000Z</time>
      </trkpt>
      <trkpt lat="47.79753" lon="-3.20382">
        <ele>40.200000762939</ele>
        <time>2014-10-05T07:47:41.000Z</time>
      </trkpt>
      <trkpt lat="47.7975" lon="-3.20388">
        <ele>40.200000762939</ele>
        <time>2014-10-05T07:47:45.000Z</time>
      </trkpt>
      <trkpt lat="47.79747" lon="-3.20396">
        <ele>40.400001525879</ele>
        <time>2014-10-05T07:47:50.000Z</time>
      </trkpt>
      <trkpt lat="47.79744" lon="-3.20401">
        <ele>40.599998474121</ele>
        <time>2014-10-05T07:47:54.000Z</time>
      </trkpt>
      <trkpt lat="47.79739" lon="-3.20409">
        <ele>41</ele>
        <time>2014-10-05T07:48:00.000Z</time>
      </trkpt>
      <trkpt lat="47.79733" lon="-3.20414">
        <ele>41.400001525879</ele>
        <time>2014-10-05T07:48:05.000Z</time>
      </trkpt>
      <trkpt lat="47.79729" lon="-3.20415">
        <ele>41.599998474121</ele>
        <time>2014-10-05T07:48:10.000Z</time>
      </trkpt>
      <trkpt lat="47.79728" lon="-3.20416">
        <ele>41.599998474121</ele>
        <time>2014-10-05T07:48:13.000Z</time>
      </trkpt>
      <trkpt lat="47.79724" lon="-3.20417">
        <ele>41.799999237061</ele>
        <time>2014-10-05T07:48:14.000Z</time>
      </trkpt>
      <trkpt lat="47.79717" lon="-3.20421">
        <ele>42.200000762939</ele>
        <time>2014-10-05T07:48:20.000Z</time>
      </trkpt>
      <trkpt lat="47.79714" lon="-3.20424">
        <ele>42.400001525879</ele>
        <time>2014-10-05T07:48:24.000Z</time>
      </trkpt>
      <trkpt lat="47.79711" lon="-3.20428">
        <ele>42.599998474121</ele>
        <time>2014-10-05T07:48:28.000Z</time>
      </trkpt>
      <trkpt lat="47.79708" lon="-3.20431">
        <ele>42.799999237061</ele>
        <time>2014-10-05T07:48:35.000Z</time>
      </trkpt>
      <trkpt lat="47.79708" lon="-3.20431">
        <ele>42.799999237061</ele>
        <time>2014-10-05T07:48:36.000Z</time>
      </trkpt>
      <trkpt lat="47.79702" lon="-3.20436">
        <ele>43.200000762939</ele>
        <time>2014-10-05T07:48:48.000Z</time>
      </trkpt>
      <trkpt lat="47.79697" lon="-3.20442">
        <ele>43.400001525879</ele>
        <time>2014-10-05T07:48:52.000Z</time>
      </trkpt>
      <trkpt lat="47.79695" lon="-3.20444">
        <ele>43.400001525879</ele>
        <time>2014-10-05T07:48:55.000Z</time>
      </trkpt>
      <trkpt lat="47.79689" lon="-3.20448">
        <ele>43.799999237061</ele>
        <time>2014-10-05T07:48:59.000Z</time>
      </trkpt>
      <trkpt lat="47.79688" lon="-3.20452">
        <ele>43.799999237061</ele>
        <time>2014-10-05T07:49:02.000Z</time>
      </trkpt>
      <trkpt lat="47.79683" lon="-3.2046">
        <ele>44</ele>
        <time>2014-10-05T07:49:06.000Z</time>
      </trkpt>
      <trkpt lat="47.7968" lon="-3.20472">
        <ele>44</ele>
        <time>2014-10-05T07:49:12.000Z</time>
      </trkpt>
      <trkpt lat="47.79679" lon="-3.20477">
        <ele>44</ele>
        <time>2014-10-05T07:49:14.000Z</time>
      </trkpt>
      <trkpt lat="47.7968" lon="-3.20486">
        <ele>43.799999237061</ele>
        <time>2014-10-05T07:49:18.000Z</time>
      </trkpt>
      <trkpt lat="47.7968" lon="-3.20493">
        <ele>43.799999237061</ele>
        <time>2014-10-05T07:49:22.000Z</time>
      </trkpt>
      <trkpt lat="47.7968" lon="-3.20491">
        <ele>43.799999237061</ele>
        <time>2014-10-05T07:49:25.000Z</time>
      </trkpt>
      <trkpt lat="47.79683" lon="-3.20497">
        <ele>43.400001525879</ele>
        <time>2014-10-05T07:49:35.000Z</time>
      </trkpt>
      <trkpt lat="47.79697" lon="-3.20499">
        <ele>42.400001525879</ele>
        <time>2014-10-05T07:49:39.000Z</time>
      </trkpt>
      <trkpt lat="47.79704" lon="-3.20497">
        <ele>42</ele>
        <time>2014-10-05T07:49:42.000Z</time>
      </trkpt>
      <trkpt lat="47.79708" lon="-3.20505">
        <ele>41.599998474121</ele>
        <time>2014-10-05T07:49:47.000Z</time>
      </trkpt>
      <trkpt lat="47.79718" lon="-3.20509">
        <ele>40.799999237061</ele>
        <time>2014-10-05T07:49:51.000Z</time>
      </trkpt>
      <trkpt lat="47.79725" lon="-3.20513">
        <ele>40.200000762939</ele>
        <time>2014-10-05T07:49:55.000Z</time>
      </trkpt>
      <trkpt lat="47.79723" lon="-3.20516">
        <ele>40.200000762939</ele>
        <time>2014-10-05T07:49:59.000Z</time>
      </trkpt>
      <trkpt lat="47.79717" lon="-3.20529">
        <ele>40.200000762939</ele>
        <time>2014-10-05T07:50:14.000Z</time>
      </trkpt>
      <trkpt lat="47.79717" lon="-3.20534">
        <ele>40</ele>
        <time>2014-10-05T07:50:15.000Z</time>
      </trkpt>
      <trkpt lat="47.7972" lon="-3.20553">
        <ele>39.200000762939</ele>
        <time>2014-10-05T07:50:21.000Z</time>
      </trkpt>
      <trkpt lat="47.79719" lon="-3.20557">
        <ele>39.200000762939</ele>
        <time>2014-10-05T07:50:22.000Z</time>
      </trkpt>
      <trkpt lat="47.79714" lon="-3.20571">
        <ele>39.400001525879</ele>
        <time>2014-10-05T07:50:27.000Z</time>
      </trkpt>
      <trkpt lat="47.7971" lon="-3.20579">
        <ele>39.599998474121</ele>
        <time>2014-10-05T07:50:31.000Z</time>
      </trkpt>
      <trkpt lat="47.7971" lon="-3.2058">
        <ele>39.599998474121</ele>
        <time>2014-10-05T07:50:34.000Z</time>
      </trkpt>
      <trkpt lat="47.79709" lon="-3.20592">
        <ele>39.599998474121</ele>
        <time>2014-10-05T07:50:46.000Z</time>
      </trkpt>
      <trkpt lat="47.79709" lon="-3.206">
        <ele>39.599998474121</ele>
        <time>2014-10-05T07:50:48.000Z</time>
      </trkpt>
      <trkpt lat="47.79709" lon="-3.20614">
        <ele>39.400001525879</ele>
        <time>2014-10-05T07:50:53.000Z</time>
      </trkpt>
      <trkpt lat="47.79709" lon="-3.20619">
        <ele>39.400001525879</ele>
        <time>2014-10-05T07:50:57.000Z</time>
      </trkpt>
      <trkpt lat="47.7971" lon="-3.20619">
        <ele>39.400001525879</ele>
        <time>2014-10-05T07:51:04.000Z</time>
      </trkpt>
      <trkpt lat="47.7971" lon="-3.20624">
        <ele>39.200000762939</ele>
        <time>2014-10-05T07:51:23.000Z</time>
      </trkpt>
      <trkpt lat="47.79711" lon="-3.20627">
        <ele>39.200000762939</ele>
        <time>2014-10-05T07:51:24.000Z</time>
      </trkpt>
      <trkpt lat="47.79711" lon="-3.20647">
        <ele>39</ele>
        <time>2014-10-05T07:51:28.000Z</time>
      </trkpt>
      <trkpt lat="47.79713" lon="-3.20657">
        <ele>39</ele>
        <time>2014-10-05T07:51:31.000Z</time>
      </trkpt>
      <trkpt lat="47.79712" lon="-3.20673">
        <ele>39</ele>
        <time>2014-10-05T07:51:37.000Z</time>
      </trkpt>
      <trkpt lat="47.79706" lon="-3.20686">
        <ele>39.400001525879</ele>
        <time>2014-10-05T07:51:43.000Z</time>
      </trkpt>
      <trkpt lat="47.79702" lon="-3.20697">
        <ele>39.799999237061</ele>
        <time>2014-10-05T07:51:48.000Z</time>
      </trkpt>
      <trkpt lat="47.79702" lon="-3.20702">
        <ele>39.799999237061</ele>
        <time>2014-10-05T07:51:53.000Z</time>
      </trkpt>
      <trkpt lat="47.79701" lon="-3.20697">
        <ele>39.799999237061</ele>
        <time>2014-10-05T07:51:59.000Z</time>
      </trkpt>
      <trkpt lat="47.797" lon="-3.20697">
        <ele>39.799999237061</ele>
        <time>2014-10-05T07:52:01.000Z</time>
      </trkpt>
      <trkpt lat="47.79691" lon="-3.20721">
        <ele>40.599998474121</ele>
        <time>2014-10-05T07:52:21.000Z</time>
      </trkpt>
      <trkpt lat="47.79685" lon="-3.20727">
        <ele>40.799999237061</ele>
        <time>2014-10-05T07:52:25.000Z</time>
      </trkpt>
      <trkpt lat="47.79682" lon="-3.20731">
        <ele>41</ele>
        <time>2014-10-05T07:52:29.000Z</time>
      </trkpt>
      <trkpt lat="47.7968" lon="-3.2074">
        <ele>41.200000762939</ele>
        <time>2014-10-05T07:52:33.000Z</time>
      </trkpt>
      <trkpt lat="47.79677" lon="-3.20745">
        <ele>41.400001525879</ele>
        <time>2014-10-05T07:52:35.000Z</time>
      </trkpt>
      <trkpt lat="47.79667" lon="-3.20754">
        <ele>41.799999237061</ele>
        <time>2014-10-05T07:52:41.000Z</time>
      </trkpt>
      <trkpt lat="47.79661" lon="-3.20759">
        <ele>41.799999237061</ele>
        <time>2014-10-05T07:52:46.000Z</time>
      </trkpt>
      <trkpt lat="47.79661" lon="-3.2076">
        <ele>41.799999237061</ele>
        <time>2014-10-05T07:52:49.000Z</time>
      </trkpt>
      <trkpt lat="47.79661" lon="-3.20774">
        <ele>42</ele>
        <time>2014-10-05T07:52:59.000Z</time>
      </trkpt>
      <trkpt lat="47.79661" lon="-3.20782">
        <ele>42.200000762939</ele>
        <time>2014-10-05T07:53:01.000Z</time>
      </trkpt>
      <trkpt lat="47.79662" lon="-3.20796">
        <ele>42.599998474121</ele>
        <time>2014-10-05T07:53:07.000Z</time>
      </trkpt>
      <trkpt lat="47.79664" lon="-3.20804">
        <ele>42.799999237061</ele>
        <time>2014-10-05T07:53:10.000Z</time>
      </trkpt>
      <trkpt lat="47.79663" lon="-3.20816">
        <ele>43</ele>
        <time>2014-10-05T07:53:14.000Z</time>
      </trkpt>
      <trkpt lat="47.79664" lon="-3.20826">
        <ele>43.400001525879</ele>
        <time>2014-10-05T07:53:20.000Z</time>
      </trkpt>
      <trkpt lat="47.79665" lon="-3.20829">
        <ele>43.400001525879</ele>
        <time>2014-10-05T07:53:26.000Z</time>
      </trkpt>
      <trkpt lat="47.79654" lon="-3.20832">
        <ele>43.200000762939</ele>
        <time>2014-10-05T07:53:58.000Z</time>
      </trkpt>
      <trkpt lat="47.79645" lon="-3.20834">
        <ele>43</ele>
        <time>2014-10-05T07:54:01.000Z</time>
      </trkpt>
      <trkpt lat="47.79636" lon="-3.20834">
        <ele>42.799999237061</ele>
        <time>2014-10-05T07:54:05.000Z</time>
      </trkpt>
      <trkpt lat="47.79629" lon="-3.20836">
        <ele>42.799999237061</ele>
        <time>2014-10-05T07:54:10.000Z</time>
      </trkpt>
      <trkpt lat="47.7963" lon="-3.20842">
        <ele>43</ele>
        <time>2014-10-05T07:54:17.000Z</time>
      </trkpt>
      <trkpt lat="47.79622" lon="-3.20843">
        <ele>42.799999237061</ele>
        <time>2014-10-05T07:54:21.000Z</time>
      </trkpt>
      <trkpt lat="47.79609" lon="-3.20847">
        <ele>42.400001525879</ele>
        <time>2014-10-05T07:54:26.000Z</time>
      </trkpt>
      <trkpt lat="47.79598" lon="-3.2085">
        <ele>42.200000762939</ele>
        <time>2014-10-05T07:54:30.000Z</time>
      </trkpt>
      <trkpt lat="47.79583" lon="-3.20857">
        <ele>42</ele>
        <time>2014-10-05T07:54:36.000Z</time>
      </trkpt>
      <trkpt lat="47.79571" lon="-3.20859">
        <ele>42</ele>
        <time>2014-10-05T07:54:41.000Z</time>
      </trkpt>
      <trkpt lat="47.79566" lon="-3.20861">
        <ele>42</ele>
        <time>2014-10-05T07:54:43.000Z</time>
      </trkpt>
      <trkpt lat="47.79556" lon="-3.20863">
        <ele>41.799999237061</ele>
        <time>2014-10-05T07:54:47.000Z</time>
      </trkpt>
      <trkpt lat="47.79549" lon="-3.20866">
        <ele>41.799999237061</ele>
        <time>2014-10-05T07:54:50.000Z</time>
      </trkpt>
      <trkpt lat="47.79538" lon="-3.20869">
        <ele>41.599998474121</ele>
        <time>2014-10-05T07:54:56.000Z</time>
      </trkpt>
      <trkpt lat="47.79537" lon="-3.20869">
        <ele>41.599998474121</ele>
        <time>2014-10-05T07:54:57.000Z</time>
      </trkpt>
      <trkpt lat="47.79533" lon="-3.20869">
        <ele>41.599998474121</ele>
        <time>2014-10-05T07:55:03.000Z</time>
      </trkpt>
      <trkpt lat="47.79533" lon="-3.20869">
        <ele>41.599998474121</ele>
        <time>2014-10-05T07:55:04.000Z</time>
      </trkpt>
      <trkpt lat="47.7953" lon="-3.20865">
        <ele>41.599998474121</ele>
        <time>2014-10-05T07:55:34.000Z</time>
      </trkpt>
      <trkpt lat="47.79528" lon="-3.20853">
        <ele>41.400001525879</ele>
        <time>2014-10-05T07:55:37.000Z</time>
      </trkpt>
      <trkpt lat="47.79527" lon="-3.20832">
        <ele>41.200000762939</ele>
        <time>2014-10-05T07:55:43.000Z</time>
      </trkpt>
      <trkpt lat="47.79526" lon="-3.20811">
        <ele>41.200000762939</ele>
        <time>2014-10-05T07:55:48.000Z</time>
      </trkpt>
      <trkpt lat="47.79526" lon="-3.20803">
        <ele>41.200000762939</ele>
        <time>2014-10-05T07:55:50.000Z</time>
      </trkpt>
      <trkpt lat="47.79527" lon="-3.20799">
        <ele>41.200000762939</ele>
        <time>2014-10-05T07:55:55.000Z</time>
      </trkpt>
      <trkpt lat="47.79525" lon="-3.2079">
        <ele>41.400001525879</ele>
        <time>2014-10-05T07:56:02.000Z</time>
      </trkpt>
      <trkpt lat="47.79522" lon="-3.20779">
        <ele>41.599998474121</ele>
        <time>2014-10-05T07:56:05.000Z</time>
      </trkpt>
      <trkpt lat="47.79509" lon="-3.20769">
        <ele>41.799999237061</ele>
        <time>2014-10-05T07:56:11.000Z</time>
      </trkpt>
      <trkpt lat="47.79509" lon="-3.20771">
        <ele>41.799999237061</ele>
        <time>2014-10-05T07:56:15.000Z</time>
      </trkpt>
      <trkpt lat="47.7951" lon="-3.20773">
        <ele>41.799999237061</ele>
        <time>2014-10-05T07:56:19.000Z</time>
      </trkpt>
      <trkpt lat="47.79505" lon="-3.20771">
        <ele>41.799999237061</ele>
        <time>2014-10-05T07:56:27.000Z</time>
      </trkpt>
      <trkpt lat="47.79499" lon="-3.20768">
        <ele>42.200000762939</ele>
        <time>2014-10-05T07:56:32.000Z</time>
      </trkpt>
      <trkpt lat="47.79494" lon="-3.20768">
        <ele>42.599998474121</ele>
        <time>2014-10-05T07:56:40.000Z</time>
      </trkpt>
      <trkpt lat="47.79481" lon="-3.20764">
        <ele>43.599998474121</ele>
        <time>2014-10-05T07:56:45.000Z</time>
      </trkpt>
      <trkpt lat="47.79468" lon="-3.20759">
        <ele>44.599998474121</ele>
        <time>2014-10-05T07:56:50.000Z</time>
      </trkpt>
      <trkpt lat="47.79453" lon="-3.20754">
        <ele>45.799999237061</ele>
        <time>2014-10-05T07:56:57.000Z</time>
      </trkpt>
      <trkpt lat="47.79443" lon="-3.20753">
        <ele>46.400001525879</ele>
        <time>2014-10-05T07:57:02.000Z</time>
      </trkpt>
      <trkpt lat="47.79447" lon="-3.20754">
        <ele>46.200000762939</ele>
        <time>2014-10-05T07:57:07.000Z</time>
      </trkpt>
      <trkpt lat="47.79442" lon="-3.20751">
        <ele>46.599998474121</ele>
        <time>2014-10-05T07:57:15.000Z</time>
      </trkpt>
      <trkpt lat="47.79437" lon="-3.20748">
        <ele>46.799999237061</ele>
        <time>2014-10-05T07:57:20.000Z</time>
      </trkpt>
      <trkpt lat="47.79432" lon="-3.20743">
        <ele>47.400001525879</ele>
        <time>2014-10-05T07:57:26.000Z</time>
      </trkpt>
      <trkpt lat="47.79427" lon="-3.2074">
        <ele>47.799999237061</ele>
        <time>2014-10-05T07:57:31.000Z</time>
      </trkpt>
      <trkpt lat="47.79424" lon="-3.20733">
        <ele>48.200000762939</ele>
        <time>2014-10-05T07:57:36.000Z</time>
      </trkpt>
      <trkpt lat="47.79422" lon="-3.20731">
        <ele>48.400001525879</ele>
        <time>2014-10-05T07:57:38.000Z</time>
      </trkpt>
      <trkpt lat="47.79415" lon="-3.20715">
        <ele>48.400001525879</ele>
        <time>2014-10-05T07:57:47.000Z</time>
      </trkpt>
      <trkpt lat="47.7941" lon="-3.20709">
        <ele>48.400001525879</ele>
        <time>2014-10-05T07:57:52.000Z</time>
      </trkpt>
      <trkpt lat="47.79406" lon="-3.20696">
        <ele>48.400001525879</ele>
        <time>2014-10-05T07:57:57.000Z</time>
      </trkpt>
      <trkpt lat="47.79399" lon="-3.20681">
        <ele>48.400001525879</ele>
        <time>2014-10-05T07:58:02.000Z</time>
      </trkpt>
      <trkpt lat="47.79394" lon="-3.20677">
        <ele>48.200000762939</ele>
        <time>2014-10-05T07:58:04.000Z</time>
      </trkpt>
      <trkpt lat="47.79385" lon="-3.20654">
        <ele>47.599998474121</ele>
        <time>2014-10-05T07:58:11.000Z</time>
      </trkpt>
      <trkpt lat="47.7937" lon="-3.20633">
        <ele>47.400001525879</ele>
        <time>2014-10-05T07:58:17.000Z</time>
      </trkpt>
      <trkpt lat="47.79367" lon="-3.2063">
        <ele>47.400001525879</ele>
        <time>2014-10-05T07:58:18.000Z</time>
      </trkpt>
      <trkpt lat="47.79355" lon="-3.20615">
        <ele>48.200000762939</ele>
        <time>2014-10-05T07:58:25.000Z</time>
      </trkpt>
      <trkpt lat="47.79352" lon="-3.2061">
        <ele>48.400001525879</ele>
        <time>2014-10-05T07:58:27.000Z</time>
      </trkpt>
      <trkpt lat="47.79345" lon="-3.20607">
        <ele>48.599998474121</ele>
        <time>2014-10-05T07:58:32.000Z</time>
      </trkpt>
      <trkpt lat="47.7934" lon="-3.20601">
        <ele>48.799999237061</ele>
        <time>2014-10-05T07:58:37.000Z</time>
      </trkpt>
      <trkpt lat="47.79338" lon="-3.20599">
        <ele>49</ele>
        <time>2014-10-05T07:58:38.000Z</time>
      </trkpt>
      <trkpt lat="47.79334" lon="-3.20585">
        <ele>48.400001525879</ele>
        <time>2014-10-05T07:58:45.000Z</time>
      </trkpt>
      <trkpt lat="47.79334" lon="-3.20572">
        <ele>48.200000762939</ele>
        <time>2014-10-05T07:58:56.000Z</time>
      </trkpt>
      <trkpt lat="47.79322" lon="-3.20564">
        <ele>47.200000762939</ele>
        <time>2014-10-05T07:59:02.000Z</time>
      </trkpt>
      <trkpt lat="47.79313" lon="-3.20554">
        <ele>46.200000762939</ele>
        <time>2014-10-05T07:59:06.000Z</time>
      </trkpt>
      <trkpt lat="47.79306" lon="-3.20546">
        <ele>45.400001525879</ele>
        <time>2014-10-05T07:59:09.000Z</time>
      </trkpt>
      <trkpt lat="47.79305" lon="-3.20542">
        <ele>45.200000762939</ele>
        <time>2014-10-05T07:59:14.000Z</time>
      </trkpt>
      <trkpt lat="47.79306" lon="-3.20542">
        <ele>45.200000762939</ele>
        <time>2014-10-05T07:59:17.000Z</time>
      </trkpt>
      <trkpt lat="47.79296" lon="-3.20533">
        <ele>44.400001525879</ele>
        <time>2014-10-05T07:59:23.000Z</time>
      </trkpt>
      <trkpt lat="47.79287" lon="-3.20521">
        <ele>43.599998474121</ele>
        <time>2014-10-05T07:59:28.000Z</time>
      </trkpt>
      <trkpt lat="47.79274" lon="-3.20509">
        <ele>42.400001525879</ele>
        <time>2014-10-05T07:59:34.000Z</time>
      </trkpt>
      <trkpt lat="47.79267" lon="-3.20504">
        <ele>41.599998474121</ele>
        <time>2014-10-05T07:59:38.000Z</time>
      </trkpt>
      <trkpt lat="47.79256" lon="-3.205">
        <ele>41</ele>
        <time>2014-10-05T07:59:43.000Z</time>
      </trkpt>
      <trkpt lat="47.79251" lon="-3.20498">
        <ele>41.200000762939</ele>
        <time>2014-10-05T07:59:45.000Z</time>
      </trkpt>
      <trkpt lat="47.79237" lon="-3.20489">
        <ele>41.599998474121</ele>
        <time>2014-10-05T07:59:51.000Z</time>
      </trkpt>
      <trkpt lat="47.79232" lon="-3.2049">
        <ele>41.799999237061</ele>
        <time>2014-10-05T07:59:55.000Z</time>
      </trkpt>
      <trkpt lat="47.79233" lon="-3.20485">
        <ele>41.799999237061</ele>
        <time>2014-10-05T08:00:02.000Z</time>
      </trkpt>
      <trkpt lat="47.79227" lon="-3.20491">
        <ele>42</ele>
        <time>2014-10-05T08:00:45.000Z</time>
      </trkpt>
      <trkpt lat="47.79227" lon="-3.20504">
        <ele>42</ele>
        <time>2014-10-05T08:00:48.000Z</time>
      </trkpt>
      <trkpt lat="47.79227" lon="-3.20508">
        <ele>42</ele>
        <time>2014-10-05T08:00:49.000Z</time>
      </trkpt>
      <trkpt lat="47.79227" lon="-3.2052">
        <ele>41.799999237061</ele>
        <time>2014-10-05T08:00:53.000Z</time>
      </trkpt>
      <trkpt lat="47.7923" lon="-3.20523">
        <ele>41.599998474121</ele>
        <time>2014-10-05T08:00:59.000Z</time>
      </trkpt>
      <trkpt lat="47.79232" lon="-3.20524">
        <ele>41.599998474121</ele>
        <time>2014-10-05T08:01:03.000Z</time>
      </trkpt>
      <trkpt lat="47.79233" lon="-3.20527">
        <ele>41.400001525879</ele>
        <time>2014-10-05T08:01:06.000Z</time>
      </trkpt>
      <trkpt lat="47.79234" lon="-3.2053">
        <ele>41.400001525879</ele>
        <time>2014-10-05T08:01:07.000Z</time>
      </trkpt>
      <trkpt lat="47.79233" lon="-3.20544">
        <ele>41.200000762939</ele>
        <time>2014-10-05T08:01:10.000Z</time>
      </trkpt>
      <trkpt lat="47.79231" lon="-3.20555">
        <ele>41.200000762939</ele>
        <time>2014-10-05T08:01:13.000Z</time>
      </trkpt>
      <trkpt lat="47.79233" lon="-3.20579">
        <ele>41.200000762939</ele>
        <time>2014-10-05T08:01:20.000Z</time>
      </trkpt>
      <trkpt lat="47.79234" lon="-3.20581">
        <ele>41.200000762939</ele>
        <time>2014-10-05T08:01:21.000Z</time>
      </trkpt>
      <trkpt lat="47.79235" lon="-3.20601">
        <ele>41.200000762939</ele>
        <time>2014-10-05T08:01:27.000Z</time>
      </trkpt>
      <trkpt lat="47.79235" lon="-3.20606">
        <ele>41.200000762939</ele>
        <time>2014-10-05T08:01:29.000Z</time>
      </trkpt>
      <trkpt lat="47.79236" lon="-3.20615">
        <ele>41</ele>
        <time>2014-10-05T08:01:32.000Z</time>
      </trkpt>
      <trkpt lat="47.79236" lon="-3.20621">
        <ele>41</ele>
        <time>2014-10-05T08:01:35.000Z</time>
      </trkpt>
      <trkpt lat="47.79234" lon="-3.20636">
        <ele>41</ele>
        <time>2014-10-05T08:01:41.000Z</time>
      </trkpt>
      <trkpt lat="47.79235" lon="-3.20648">
        <ele>41</ele>
        <time>2014-10-05T08:01:46.000Z</time>
      </trkpt>
      <trkpt lat="47.79233" lon="-3.20663">
        <ele>41</ele>
        <time>2014-10-05T08:01:51.000Z</time>
      </trkpt>
      <trkpt lat="47.79233" lon="-3.20681">
        <ele>41</ele>
        <time>2014-10-05T08:01:58.000Z</time>
      </trkpt>
      <trkpt lat="47.79234" lon="-3.20686">
        <ele>41.200000762939</ele>
        <time>2014-10-05T08:02:01.000Z</time>
      </trkpt>
      <trkpt lat="47.79234" lon="-3.20697">
        <ele>41.599998474121</ele>
        <time>2014-10-05T08:02:07.000Z</time>
      </trkpt>
      <trkpt lat="47.79232" lon="-3.20703">
        <ele>41.799999237061</ele>
        <time>2014-10-05T08:02:10.000Z</time>
      </trkpt>
      <trkpt lat="47.79235" lon="-3.20719">
        <ele>42.200000762939</ele>
        <time>2014-10-05T08:02:18.000Z</time>
      </trkpt>
      <trkpt lat="47.79235" lon="-3.20721">
        <ele>42.200000762939</ele>
        <time>2014-10-05T08:02:19.000Z</time>
      </trkpt>
      <trkpt lat="47.79234" lon="-3.20735">
        <ele>42.599998474121</ele>
        <time>2014-10-05T08:02:26.000Z</time>
      </trkpt>
      <trkpt lat="47.79232" lon="-3.20748">
        <ele>43</ele>
        <time>2014-10-05T08:02:33.000Z</time>
      </trkpt>
      <trkpt lat="47.79231" lon="-3.20755">
        <ele>43.200000762939</ele>
        <time>2014-10-05T08:02:37.000Z</time>
      </trkpt>
      <trkpt lat="47.79231" lon="-3.20759">
        <ele>43.200000762939</ele>
        <time>2014-10-05T08:02:39.000Z</time>
      </trkpt>
      <trkpt lat="47.79231" lon="-3.20771">
        <ele>43.400001525879</ele>
        <time>2014-10-05T08:02:45.000Z</time>
      </trkpt>
      <trkpt lat="47.79232" lon="-3.20783">
        <ele>43.599998474121</ele>
        <time>2014-10-05T08:02:51.000Z</time>
      </trkpt>
      <trkpt lat="47.7923" lon="-3.20797">
        <ele>43.599998474121</ele>
        <time>2014-10-05T08:02:58.000Z</time>
      </trkpt>
      <trkpt lat="47.79228" lon="-3.2081">
        <ele>43.599998474121</ele>
        <time>2014-10-05T08:03:05.000Z</time>
      </trkpt>
      <trkpt lat="47.79228" lon="-3.20818">
        <ele>43.599998474121</ele>
        <time>2014-10-05T08:03:09.000Z</time>
      </trkpt>
      <trkpt lat="47.79227" lon="-3.20829">
        <ele>43.599998474121</ele>
        <time>2014-10-05T08:03:15.000Z</time>
      </trkpt>
      <trkpt lat="47.79226" lon="-3.2084">
        <ele>43.599998474121</ele>
        <time>2014-10-05T08:03:21.000Z</time>
      </trkpt>
      <trkpt lat="47.79226" lon="-3.20844">
        <ele>43.599998474121</ele>
        <time>2014-10-05T08:03:26.000Z</time>
      </trkpt>
      <trkpt lat="47.79226" lon="-3.2085">
        <ele>43.799999237061</ele>
        <time>2014-10-05T08:03:39.000Z</time>
      </trkpt>
      <trkpt lat="47.79225" lon="-3.20855">
        <ele>44</ele>
        <time>2014-10-05T08:03:41.000Z</time>
      </trkpt>
      <trkpt lat="47.79224" lon="-3.20859">
        <ele>44</ele>
        <time>2014-10-05T08:03:44.000Z</time>
      </trkpt>
      <trkpt lat="47.79223" lon="-3.20861">
        <ele>44.200000762939</ele>
        <time>2014-10-05T08:03:47.000Z</time>
      </trkpt>
      <trkpt lat="47.79223" lon="-3.20872">
        <ele>44.400001525879</ele>
        <time>2014-10-05T08:03:58.000Z</time>
      </trkpt>
      <trkpt lat="47.79222" lon="-3.20888">
        <ele>45</ele>
        <time>2014-10-05T08:04:06.000Z</time>
      </trkpt>
      <trkpt lat="47.79221" lon="-3.20904">
        <ele>45.599998474121</ele>
        <time>2014-10-05T08:04:14.000Z</time>
      </trkpt>
      <trkpt lat="47.79219" lon="-3.20915">
        <ele>46</ele>
        <time>2014-10-05T08:04:19.000Z</time>
      </trkpt>
      <trkpt lat="47.79217" lon="-3.20934">
        <ele>46.599998474121</ele>
        <time>2014-10-05T08:04:26.000Z</time>
      </trkpt>
      <trkpt lat="47.79216" lon="-3.20949">
        <ele>47</ele>
        <time>2014-10-05T08:04:33.000Z</time>
      </trkpt>
      <trkpt lat="47.79215" lon="-3.20965">
        <ele>47.400001525879</ele>
        <time>2014-10-05T08:04:40.000Z</time>
      </trkpt>
      <trkpt lat="47.79212" lon="-3.2098">
        <ele>47.799999237061</ele>
        <time>2014-10-05T08:04:46.000Z</time>
      </trkpt>
      <trkpt lat="47.79213" lon="-3.20992">
        <ele>48</ele>
        <time>2014-10-05T08:04:53.000Z</time>
      </trkpt>
      <trkpt lat="47.79212" lon="-3.21004">
        <ele>48.400001525879</ele>
        <time>2014-10-05T08:04:59.000Z</time>
      </trkpt>
      <trkpt lat="47.79211" lon="-3.21019">
        <ele>48.599998474121</ele>
        <time>2014-10-05T08:05:06.000Z</time>
      </trkpt>
      <trkpt lat="47.79209" lon="-3.21032">
        <ele>49</ele>
        <time>2014-10-05T08:05:13.000Z</time>
      </trkpt>
      <trkpt lat="47.79207" lon="-3.21045">
        <ele>49.400001525879</ele>
        <time>2014-10-05T08:05:19.000Z</time>
      </trkpt>
      <trkpt lat="47.79208" lon="-3.21051">
        <ele>49.400001525879</ele>
        <time>2014-10-05T08:05:23.000Z</time>
      </trkpt>
      <trkpt lat="47.79208" lon="-3.21061">
        <ele>49.799999237061</ele>
        <time>2014-10-05T08:05:29.000Z</time>
      </trkpt>
      <trkpt lat="47.79208" lon="-3.21064">
        <ele>49.799999237061</ele>
        <time>2014-10-05T08:05:31.000Z</time>
      </trkpt>
      <trkpt lat="47.79206" lon="-3.21074">
        <ele>50</ele>
        <time>2014-10-05T08:05:37.000Z</time>
      </trkpt>
      <trkpt lat="47.79205" lon="-3.21085">
        <ele>50.400001525879</ele>
        <time>2014-10-05T08:05:43.000Z</time>
      </trkpt>
      <trkpt lat="47.79206" lon="-3.21097">
        <ele>50.599998474121</ele>
        <time>2014-10-05T08:05:48.000Z</time>
      </trkpt>
      <trkpt lat="47.79207" lon="-3.21104">
        <ele>50.200000762939</ele>
        <time>2014-10-05T08:05:51.000Z</time>
      </trkpt>
      <trkpt lat="47.79206" lon="-3.21115">
        <ele>49.799999237061</ele>
        <time>2014-10-05T08:05:58.000Z</time>
      </trkpt>
      <trkpt lat="47.79207" lon="-3.21116">
        <ele>49.799999237061</ele>
        <time>2014-10-05T08:06:01.000Z</time>
      </trkpt>
      <trkpt lat="47.79206" lon="-3.21126">
        <ele>49.400001525879</ele>
        <time>2014-10-05T08:06:13.000Z</time>
      </trkpt>
      <trkpt lat="47.79205" lon="-3.2114">
        <ele>49</ele>
        <time>2014-10-05T08:06:17.000Z</time>
      </trkpt>
      <trkpt lat="47.79204" lon="-3.21149">
        <ele>48.799999237061</ele>
        <time>2014-10-05T08:06:22.000Z</time>
      </trkpt>
      <trkpt lat="47.79203" lon="-3.21161">
        <ele>49</ele>
        <time>2014-10-05T08:06:28.000Z</time>
      </trkpt>
      <trkpt lat="47.79203" lon="-3.21167">
        <ele>49</ele>
        <time>2014-10-05T08:06:32.000Z</time>
      </trkpt>
      <trkpt lat="47.79204" lon="-3.21175">
        <ele>49.200000762939</ele>
        <time>2014-10-05T08:06:38.000Z</time>
      </trkpt>
      <trkpt lat="47.79204" lon="-3.21175">
        <ele>49.200000762939</ele>
        <time>2014-10-05T08:06:39.000Z</time>
      </trkpt>
      <trkpt lat="47.79207" lon="-3.21186">
        <ele>49.200000762939</ele>
        <time>2014-10-05T08:07:01.000Z</time>
      </trkpt>
      <trkpt lat="47.79207" lon="-3.21189">
        <ele>49.200000762939</ele>
        <time>2014-10-05T08:07:02.000Z</time>
      </trkpt>
      <trkpt lat="47.79204" lon="-3.212">
        <ele>49.200000762939</ele>
        <time>2014-10-05T08:07:08.000Z</time>
      </trkpt>
      <trkpt lat="47.79202" lon="-3.21206">
        <ele>49.200000762939</ele>
        <time>2014-10-05T08:07:12.000Z</time>
      </trkpt>
      <trkpt lat="47.79202" lon="-3.21217">
        <ele>49</ele>
        <time>2014-10-05T08:07:17.000Z</time>
      </trkpt>
      <trkpt lat="47.79202" lon="-3.21228">
        <ele>49</ele>
        <time>2014-10-05T08:07:22.000Z</time>
      </trkpt>
      <trkpt lat="47.792" lon="-3.21245">
        <ele>48.799999237061</ele>
        <time>2014-10-05T08:07:30.000Z</time>
      </trkpt>
      <trkpt lat="47.79198" lon="-3.21255">
        <ele>48.799999237061</ele>
        <time>2014-10-05T08:07:35.000Z</time>
      </trkpt>
      <trkpt lat="47.79198" lon="-3.21261">
        <ele>48.599998474121</ele>
        <time>2014-10-05T08:07:38.000Z</time>
      </trkpt>
      <trkpt lat="47.79199" lon="-3.21271">
        <ele>48.200000762939</ele>
        <time>2014-10-05T08:07:43.000Z</time>
      </trkpt>
      <trkpt lat="47.79198" lon="-3.21281">
        <ele>47.799999237061</ele>
        <time>2014-10-05T08:07:47.000Z</time>
      </trkpt>
      <trkpt lat="47.79199" lon="-3.21286">
        <ele>47.400001525879</ele>
        <time>2014-10-05T08:07:49.000Z</time>
      </trkpt>
      <trkpt lat="47.79201" lon="-3.21301">
        <ele>46.799999237061</ele>
        <time>2014-10-05T08:07:55.000Z</time>
      </trkpt>
      <trkpt lat="47.79202" lon="-3.21313">
        <ele>46.200000762939</ele>
        <time>2014-10-05T08:08:00.000Z</time>
      </trkpt>
      <trkpt lat="47.79203" lon="-3.21315">
        <ele>46.200000762939</ele>
        <time>2014-10-05T08:08:04.000Z</time>
      </trkpt>
      <trkpt lat="47.79201" lon="-3.21315">
        <ele>46.200000762939</ele>
        <time>2014-10-05T08:08:09.000Z</time>
      </trkpt>
      <trkpt lat="47.79205" lon="-3.21319">
        <ele>46.200000762939</ele>
        <time>2014-10-05T08:08:27.000Z</time>
      </trkpt>
      <trkpt lat="47.7921" lon="-3.21326">
        <ele>46</ele>
        <time>2014-10-05T08:08:29.000Z</time>
      </trkpt>
      <trkpt lat="47.79224" lon="-3.21336">
        <ele>46.200000762939</ele>
        <time>2014-10-05T08:08:35.000Z</time>
      </trkpt>
      <trkpt lat="47.79233" lon="-3.21344">
        <ele>46.200000762939</ele>
        <time>2014-10-05T08:08:40.000Z</time>
      </trkpt>
      <trkpt lat="47.79243" lon="-3.21349">
        <ele>46.200000762939</ele>
        <time>2014-10-05T08:08:45.000Z</time>
      </trkpt>
      <trkpt lat="47.79249" lon="-3.21367">
        <ele>46.200000762939</ele>
        <time>2014-10-05T08:08:51.000Z</time>
      </trkpt>
      <trkpt lat="47.79252" lon="-3.21376">
        <ele>46.400001525879</ele>
        <time>2014-10-05T08:08:56.000Z</time>
      </trkpt>
      <trkpt lat="47.79252" lon="-3.21376">
        <ele>46.400001525879</ele>
        <time>2014-10-05T08:08:57.000Z</time>
      </trkpt>
      <trkpt lat="47.79248" lon="-3.21382">
        <ele>45.799999237061</ele>
        <time>2014-10-05T08:09:10.000Z</time>
      </trkpt>
      <trkpt lat="47.79242" lon="-3.21388">
        <ele>45.200000762939</ele>
        <time>2014-10-05T08:09:14.000Z</time>
      </trkpt>
      <trkpt lat="47.79241" lon="-3.21389">
        <ele>45.200000762939</ele>
        <time>2014-10-05T08:09:15.000Z</time>
      </trkpt>
      <trkpt lat="47.79238" lon="-3.21399">
        <ele>44.799999237061</ele>
        <time>2014-10-05T08:09:21.000Z</time>
      </trkpt>
      <trkpt lat="47.79239" lon="-3.21401">
        <ele>44.799999237061</ele>
        <time>2014-10-05T08:09:25.000Z</time>
      </trkpt>
      <trkpt lat="47.79236" lon="-3.21417">
        <ele>44.400001525879</ele>
        <time>2014-10-05T08:09:56.000Z</time>
      </trkpt>
      <trkpt lat="47.79235" lon="-3.21432">
        <ele>43.799999237061</ele>
        <time>2014-10-05T08:09:59.000Z</time>
      </trkpt>
      <trkpt lat="47.79235" lon="-3.2145">
        <ele>42.799999237061</ele>
        <time>2014-10-05T08:10:04.000Z</time>
      </trkpt>
      <trkpt lat="47.79234" lon="-3.21473">
        <ele>41.799999237061</ele>
        <time>2014-10-05T08:10:10.000Z</time>
      </trkpt>
      <trkpt lat="47.79233" lon="-3.21494">
        <ele>41</ele>
        <time>2014-10-05T08:10:16.000Z</time>
      </trkpt>
      <trkpt lat="47.79232" lon="-3.21512">
        <ele>40.200000762939</ele>
        <time>2014-10-05T08:10:21.000Z</time>
      </trkpt>
      <trkpt lat="47.79233" lon="-3.21527">
        <ele>39.799999237061</ele>
        <time>2014-10-05T08:10:25.000Z</time>
      </trkpt>
      <trkpt lat="47.79234" lon="-3.21531">
        <ele>39.799999237061</ele>
        <time>2014-10-05T08:10:26.000Z</time>
      </trkpt>
      <trkpt lat="47.7924" lon="-3.21547">
        <ele>38.400001525879</ele>
        <time>2014-10-05T08:10:32.000Z</time>
      </trkpt>
      <trkpt lat="47.79243" lon="-3.21551">
        <ele>38.200000762939</ele>
        <time>2014-10-05T08:10:35.000Z</time>
      </trkpt>
      <trkpt lat="47.79241" lon="-3.21555">
        <ele>37.599998474121</ele>
        <time>2014-10-05T08:10:40.000Z</time>
      </trkpt>
      <trkpt lat="47.79248" lon="-3.2156">
        <ele>37.400001525879</ele>
        <time>2014-10-05T08:11:17.000Z</time>
      </trkpt>
      <trkpt lat="47.79253" lon="-3.21563">
        <ele>37.400001525879</ele>
        <time>2014-10-05T08:11:19.000Z</time>
      </trkpt>
      <trkpt lat="47.79266" lon="-3.21569">
        <ele>38</ele>
        <time>2014-10-05T08:11:25.000Z</time>
      </trkpt>
      <trkpt lat="47.79277" lon="-3.21575">
        <ele>38.200000762939</ele>
        <time>2014-10-05T08:11:30.000Z</time>
      </trkpt>
      <trkpt lat="47.79293" lon="-3.21586">
        <ele>38</ele>
        <time>2014-10-05T08:11:36.000Z</time>
      </trkpt>
      <trkpt lat="47.79302" lon="-3.21591">
        <ele>37.799999237061</ele>
        <time>2014-10-05T08:11:40.000Z</time>
      </trkpt>
      <trkpt lat="47.79313" lon="-3.21601">
        <ele>38</ele>
        <time>2014-10-05T08:11:46.000Z</time>
      </trkpt>
      <trkpt lat="47.79324" lon="-3.21611">
        <ele>38.400001525879</ele>
        <time>2014-10-05T08:11:51.000Z</time>
      </trkpt>
      <trkpt lat="47.79336" lon="-3.21621">
        <ele>39</ele>
        <time>2014-10-05T08:11:56.000Z</time>
      </trkpt>
      <trkpt lat="47.79338" lon="-3.21619">
        <ele>39</ele>
        <time>2014-10-05T08:12:01.000Z</time>
      </trkpt>
      <trkpt lat="47.79335" lon="-3.21621">
        <ele>38.799999237061</ele>
        <time>2014-10-05T08:12:10.000Z</time>
      </trkpt>
      <trkpt lat="47.79338" lon="-3.21636">
        <ele>38.400001525879</ele>
        <time>2014-10-05T08:12:17.000Z</time>
      </trkpt>
      <trkpt lat="47.79338" lon="-3.21641">
        <ele>38.400001525879</ele>
        <time>2014-10-05T08:12:19.000Z</time>
      </trkpt>
      <trkpt lat="47.79339" lon="-3.21658">
        <ele>37.799999237061</ele>
        <time>2014-10-05T08:12:26.000Z</time>
      </trkpt>
      <trkpt lat="47.79339" lon="-3.21661">
        <ele>37.599998474121</ele>
        <time>2014-10-05T08:12:28.000Z</time>
      </trkpt>
      <trkpt lat="47.79344" lon="-3.21668">
        <ele>37.400001525879</ele>
        <time>2014-10-05T08:12:35.000Z</time>
      </trkpt>
      <trkpt lat="47.79347" lon="-3.21683">
        <ele>37.799999237061</ele>
        <time>2014-10-05T08:12:43.000Z</time>
      </trkpt>
      <trkpt lat="47.79347" lon="-3.21688">
        <ele>38.200000762939</ele>
        <time>2014-10-05T08:12:45.000Z</time>
      </trkpt>
      <trkpt lat="47.79347" lon="-3.21691">
        <ele>38.400001525879</ele>
        <time>2014-10-05T08:12:47.000Z</time>
      </trkpt>
      <trkpt lat="47.79349" lon="-3.217">
        <ele>39.400001525879</ele>
        <time>2014-10-05T08:12:53.000Z</time>
      </trkpt>
      <trkpt lat="47.79349" lon="-3.21703">
        <ele>39.599998474121</ele>
        <time>2014-10-05T08:12:54.000Z</time>
      </trkpt>
      <trkpt lat="47.79347" lon="-3.21714">
        <ele>40.400001525879</ele>
        <time>2014-10-05T08:12:59.000Z</time>
      </trkpt>
      <trkpt lat="47.79348" lon="-3.21721">
        <ele>41</ele>
        <time>2014-10-05T08:13:03.000Z</time>
      </trkpt>
      <trkpt lat="47.79351" lon="-3.21726">
        <ele>41.599998474121</ele>
        <time>2014-10-05T08:13:07.000Z</time>
      </trkpt>
      <trkpt lat="47.79356" lon="-3.2174">
        <ele>43</ele>
        <time>2014-10-05T08:13:14.000Z</time>
      </trkpt>
      <trkpt lat="47.79356" lon="-3.2175">
        <ele>43.599998474121</ele>
        <time>2014-10-05T08:13:20.000Z</time>
      </trkpt>
      <trkpt lat="47.79358" lon="-3.21757">
        <ele>44</ele>
        <time>2014-10-05T08:13:25.000Z</time>
      </trkpt>
      <trkpt lat="47.79361" lon="-3.21767">
        <ele>44.599998474121</ele>
        <time>2014-10-05T08:13:31.000Z</time>
      </trkpt>
      <trkpt lat="47.79361" lon="-3.2177">
        <ele>44.599998474121</ele>
        <time>2014-10-05T08:13:33.000Z</time>
      </trkpt>
      <trkpt lat="47.79363" lon="-3.21782">
        <ele>45.200000762939</ele>
        <time>2014-10-05T08:13:39.000Z</time>
      </trkpt>
      <trkpt lat="47.79363" lon="-3.21786">
        <ele>45.400001525879</ele>
        <time>2014-10-05T08:13:41.000Z</time>
      </trkpt>
      <trkpt lat="47.79365" lon="-3.21795">
        <ele>45.799999237061</ele>
        <time>2014-10-05T08:13:45.000Z</time>
      </trkpt>
      <trkpt lat="47.79366" lon="-3.21812">
        <ele>46.799999237061</ele>
        <time>2014-10-05T08:13:52.000Z</time>
      </trkpt>
      <trkpt lat="47.79367" lon="-3.21822">
        <ele>47.200000762939</ele>
        <time>2014-10-05T08:13:57.000Z</time>
      </trkpt>
      <trkpt lat="47.79367" lon="-3.21824">
        <ele>47.200000762939</ele>
        <time>2014-10-05T08:13:58.000Z</time>
      </trkpt>
      <trkpt lat="47.79365" lon="-3.21837">
        <ele>47.799999237061</ele>
        <time>2014-10-05T08:14:04.000Z</time>
      </trkpt>
      <trkpt lat="47.79365" lon="-3.21849">
        <ele>48.400001525879</ele>
        <time>2014-10-05T08:14:09.000Z</time>
      </trkpt>
      <trkpt lat="47.79365" lon="-3.21863">
        <ele>50</ele>
        <time>2014-10-05T08:14:16.000Z</time>
      </trkpt>
      <trkpt lat="47.79365" lon="-3.21867">
        <ele>50.400001525879</ele>
        <time>2014-10-05T08:14:18.000Z</time>
      </trkpt>
      <trkpt lat="47.79374" lon="-3.21876">
        <ele>51.400001525879</ele>
        <time>2014-10-05T08:14:25.000Z</time>
      </trkpt>
      <trkpt lat="47.7938" lon="-3.21876">
        <ele>51.200000762939</ele>
        <time>2014-10-05T08:14:32.000Z</time>
      </trkpt>
      <trkpt lat="47.79386" lon="-3.21899">
        <ele>52.599998474121</ele>
        <time>2014-10-05T08:15:01.000Z</time>
      </trkpt>
      <trkpt lat="47.79385" lon="-3.2191">
        <ele>53</ele>
        <time>2014-10-05T08:15:06.000Z</time>
      </trkpt>
      <trkpt lat="47.79387" lon="-3.21915">
        <ele>53</ele>
        <time>2014-10-05T08:15:11.000Z</time>
      </trkpt>
      <trkpt lat="47.79387" lon="-3.21917">
        <ele>53</ele>
        <time>2014-10-05T08:15:12.000Z</time>
      </trkpt>
      <trkpt lat="47.79388" lon="-3.21927">
        <ele>53.400001525879</ele>
        <time>2014-10-05T08:15:17.000Z</time>
      </trkpt>
      <trkpt lat="47.79389" lon="-3.21931">
        <ele>53.599998474121</ele>
        <time>2014-10-05T08:15:19.000Z</time>
      </trkpt>
      <trkpt lat="47.79392" lon="-3.21944">
        <ele>54</ele>
        <time>2014-10-05T08:15:24.000Z</time>
      </trkpt>
      <trkpt lat="47.79396" lon="-3.21959">
        <ele>54.599998474121</ele>
        <time>2014-10-05T08:15:31.000Z</time>
      </trkpt>
      <trkpt lat="47.79399" lon="-3.21968">
        <ele>54.799999237061</ele>
        <time>2014-10-05T08:15:36.000Z</time>
      </trkpt>
      <trkpt lat="47.79399" lon="-3.21971">
        <ele>55</ele>
        <time>2014-10-05T08:15:37.000Z</time>
      </trkpt>
      <trkpt lat="47.79403" lon="-3.21982">
        <ele>55.200000762939</ele>
        <time>2014-10-05T08:15:44.000Z</time>
      </trkpt>
      <trkpt lat="47.79404" lon="-3.2198">
        <ele>55</ele>
        <time>2014-10-05T08:15:50.000Z</time>
      </trkpt>
      <trkpt lat="47.79402" lon="-3.21983">
        <ele>55.200000762939</ele>
        <time>2014-10-05T08:16:26.000Z</time>
      </trkpt>
      <trkpt lat="47.79403" lon="-3.21991">
        <ele>55.599998474121</ele>
        <time>2014-10-05T08:16:28.000Z</time>
      </trkpt>
      <trkpt lat="47.79404" lon="-3.21999">
        <ele>55.799999237061</ele>
        <time>2014-10-05T08:16:34.000Z</time>
      </trkpt>
      <trkpt lat="47.79404" lon="-3.22006">
        <ele>56.200000762939</ele>
        <time>2014-10-05T08:16:43.000Z</time>
      </trkpt>
      <trkpt lat="47.79405" lon="-3.22016">
        <ele>56.200000762939</ele>
        <time>2014-10-05T08:16:50.000Z</time>
      </trkpt>
      <trkpt lat="47.79407" lon="-3.22027">
        <ele>56</ele>
        <time>2014-10-05T08:16:54.000Z</time>
      </trkpt>
      <trkpt lat="47.79409" lon="-3.22041">
        <ele>56.599998474121</ele>
        <time>2014-10-05T08:17:01.000Z</time>
      </trkpt>
      <trkpt lat="47.7941" lon="-3.22052">
        <ele>57</ele>
        <time>2014-10-05T08:17:06.000Z</time>
      </trkpt>
      <trkpt lat="47.7941" lon="-3.22059">
        <ele>57.400001525879</ele>
        <time>2014-10-05T08:17:09.000Z</time>
      </trkpt>
      <trkpt lat="47.79412" lon="-3.22063">
        <ele>57.599998474121</ele>
        <time>2014-10-05T08:17:12.000Z</time>
      </trkpt>
      <trkpt lat="47.79413" lon="-3.22071">
        <ele>58</ele>
        <time>2014-10-05T08:17:16.000Z</time>
      </trkpt>
      <trkpt lat="47.7941" lon="-3.22081">
        <ele>58.400001525879</ele>
        <time>2014-10-05T08:17:22.000Z</time>
      </trkpt>
      <trkpt lat="47.79409" lon="-3.22089">
        <ele>58.799999237061</ele>
        <time>2014-10-05T08:17:30.000Z</time>
      </trkpt>
      <trkpt lat="47.79413" lon="-3.22096">
        <ele>59</ele>
        <time>2014-10-05T08:17:34.000Z</time>
      </trkpt>
      <trkpt lat="47.79415" lon="-3.22103">
        <ele>58.799999237061</ele>
        <time>2014-10-05T08:17:38.000Z</time>
      </trkpt>
      <trkpt lat="47.79417" lon="-3.2211">
        <ele>58.799999237061</ele>
        <time>2014-10-05T08:17:42.000Z</time>
      </trkpt>
      <trkpt lat="47.79419" lon="-3.22119">
        <ele>58.599998474121</ele>
        <time>2014-10-05T08:17:48.000Z</time>
      </trkpt>
      <trkpt lat="47.79424" lon="-3.22132">
        <ele>58.400001525879</ele>
        <time>2014-10-05T08:17:54.000Z</time>
      </trkpt>
      <trkpt lat="47.79425" lon="-3.22134">
        <ele>58.400001525879</ele>
        <time>2014-10-05T08:17:55.000Z</time>
      </trkpt>
      <trkpt lat="47.79426" lon="-3.22143">
        <ele>58.200000762939</ele>
        <time>2014-10-05T08:17:58.000Z</time>
      </trkpt>
      <trkpt lat="47.79427" lon="-3.22152">
        <ele>58</ele>
        <time>2014-10-05T08:18:02.000Z</time>
      </trkpt>
      <trkpt lat="47.79426" lon="-3.2216">
        <ele>58</ele>
        <time>2014-10-05T08:18:06.000Z</time>
      </trkpt>
      <trkpt lat="47.79427" lon="-3.22167">
        <ele>57.799999237061</ele>
        <time>2014-10-05T08:18:09.000Z</time>
      </trkpt>
      <trkpt lat="47.79431" lon="-3.22183">
        <ele>58</ele>
        <time>2014-10-05T08:18:16.000Z</time>
      </trkpt>
      <trkpt lat="47.79433" lon="-3.2219">
        <ele>57.799999237061</ele>
        <time>2014-10-05T08:18:19.000Z</time>
      </trkpt>
      <trkpt lat="47.79435" lon="-3.22194">
        <ele>57.799999237061</ele>
        <time>2014-10-05T08:18:21.000Z</time>
      </trkpt>
      <trkpt lat="47.79434" lon="-3.22204">
        <ele>57.599998474121</ele>
        <time>2014-10-05T08:18:25.000Z</time>
      </trkpt>
      <trkpt lat="47.79435" lon="-3.22219">
        <ele>57.599998474121</ele>
        <time>2014-10-05T08:18:31.000Z</time>
      </trkpt>
      <trkpt lat="47.79437" lon="-3.22224">
        <ele>57.400001525879</ele>
        <time>2014-10-05T08:18:34.000Z</time>
      </trkpt>
      <trkpt lat="47.79439" lon="-3.22235">
        <ele>57.400001525879</ele>
        <time>2014-10-05T08:18:39.000Z</time>
      </trkpt>
      <trkpt lat="47.7944" lon="-3.22244">
        <ele>57.200000762939</ele>
        <time>2014-10-05T08:18:44.000Z</time>
      </trkpt>
      <trkpt lat="47.79442" lon="-3.22257">
        <ele>57.799999237061</ele>
        <time>2014-10-05T08:18:50.000Z</time>
      </trkpt>
      <trkpt lat="47.79442" lon="-3.22271">
        <ele>58</ele>
        <time>2014-10-05T08:18:56.000Z</time>
      </trkpt>
      <trkpt lat="47.79441" lon="-3.22287">
        <ele>58</ele>
        <time>2014-10-05T08:19:02.000Z</time>
      </trkpt>
      <trkpt lat="47.79443" lon="-3.22299">
        <ele>58</ele>
        <time>2014-10-05T08:19:08.000Z</time>
      </trkpt>
      <trkpt lat="47.79443" lon="-3.22312">
        <ele>58</ele>
        <time>2014-10-05T08:19:14.000Z</time>
      </trkpt>
      <trkpt lat="47.79446" lon="-3.22325">
        <ele>58.200000762939</ele>
        <time>2014-10-05T08:19:20.000Z</time>
      </trkpt>
      <trkpt lat="47.79446" lon="-3.22327">
        <ele>58.200000762939</ele>
        <time>2014-10-05T08:19:21.000Z</time>
      </trkpt>
      <trkpt lat="47.79442" lon="-3.22345">
        <ele>58</ele>
        <time>2014-10-05T08:19:27.000Z</time>
      </trkpt>
      <trkpt lat="47.79443" lon="-3.22353">
        <ele>58.200000762939</ele>
        <time>2014-10-05T08:19:30.000Z</time>
      </trkpt>
      <trkpt lat="47.79445" lon="-3.22368">
        <ele>58.599998474121</ele>
        <time>2014-10-05T08:19:37.000Z</time>
      </trkpt>
      <trkpt lat="47.79448" lon="-3.22381">
        <ele>59.200000762939</ele>
        <time>2014-10-05T08:19:44.000Z</time>
      </trkpt>
      <trkpt lat="47.79449" lon="-3.2239">
        <ele>59.400001525879</ele>
        <time>2014-10-05T08:19:48.000Z</time>
      </trkpt>
      <trkpt lat="47.79447" lon="-3.22399">
        <ele>59.599998474121</ele>
        <time>2014-10-05T08:19:52.000Z</time>
      </trkpt>
      <trkpt lat="47.79448" lon="-3.22414">
        <ele>59</ele>
        <time>2014-10-05T08:19:59.000Z</time>
      </trkpt>
      <trkpt lat="47.79451" lon="-3.22422">
        <ele>58.599998474121</ele>
        <time>2014-10-05T08:20:04.000Z</time>
      </trkpt>
      <trkpt lat="47.79452" lon="-3.22422">
        <ele>58.599998474121</ele>
        <time>2014-10-05T08:20:07.000Z</time>
      </trkpt>
      <trkpt lat="47.79453" lon="-3.22427">
        <ele>58.400001525879</ele>
        <time>2014-10-05T08:20:17.000Z</time>
      </trkpt>
      <trkpt lat="47.79454" lon="-3.22446">
        <ele>57.799999237061</ele>
        <time>2014-10-05T08:20:25.000Z</time>
      </trkpt>
      <trkpt lat="47.79456" lon="-3.22454">
        <ele>57.599998474121</ele>
        <time>2014-10-05T08:20:31.000Z</time>
      </trkpt>
      <trkpt lat="47.79456" lon="-3.22457">
        <ele>57.400001525879</ele>
        <time>2014-10-05T08:20:36.000Z</time>
      </trkpt>
      <trkpt lat="47.79455" lon="-3.22468">
        <ele>57.200000762939</ele>
        <time>2014-10-05T08:20:52.000Z</time>
      </trkpt>
      <trkpt lat="47.79451" lon="-3.22472">
        <ele>57.200000762939</ele>
        <time>2014-10-05T08:20:55.000Z</time>
      </trkpt>
      <trkpt lat="47.7945" lon="-3.22484">
        <ele>57</ele>
        <time>2014-10-05T08:21:03.000Z</time>
      </trkpt>
      <trkpt lat="47.7945" lon="-3.22487">
        <ele>57</ele>
        <time>2014-10-05T08:21:07.000Z</time>
      </trkpt>
      <trkpt lat="47.79453" lon="-3.22497">
        <ele>57.400001525879</ele>
        <time>2014-10-05T08:21:27.000Z</time>
      </trkpt>
      <trkpt lat="47.79457" lon="-3.22519">
        <ele>57.599998474121</ele>
        <time>2014-10-05T08:21:37.000Z</time>
      </trkpt>
      <trkpt lat="47.79458" lon="-3.22531">
        <ele>57.200000762939</ele>
        <time>2014-10-05T08:21:43.000Z</time>
      </trkpt>
      <trkpt lat="47.7946" lon="-3.22543">
        <ele>56.799999237061</ele>
        <time>2014-10-05T08:21:48.000Z</time>
      </trkpt>
      <trkpt lat="47.79459" lon="-3.22549">
        <ele>56.599998474121</ele>
        <time>2014-10-05T08:21:52.000Z</time>
      </trkpt>
      <trkpt lat="47.79461" lon="-3.22553">
        <ele>56.400001525879</ele>
        <time>2014-10-05T08:21:56.000Z</time>
      </trkpt>
      <trkpt lat="47.79465" lon="-3.22569">
        <ele>56.599998474121</ele>
        <time>2014-10-05T08:22:06.000Z</time>
      </trkpt>
      <trkpt lat="47.79466" lon="-3.22582">
        <ele>56.599998474121</ele>
        <time>2014-10-05T08:22:12.000Z</time>
      </trkpt>
      <trkpt lat="47.79468" lon="-3.22596">
        <ele>56.799999237061</ele>
        <time>2014-10-05T08:22:18.000Z</time>
      </trkpt>
      <trkpt lat="47.79469" lon="-3.22597">
        <ele>56.799999237061</ele>
        <time>2014-10-05T08:22:19.000Z</time>
      </trkpt>
      <trkpt lat="47.79468" lon="-3.22608">
        <ele>56.799999237061</ele>
        <time>2014-10-05T08:22:23.000Z</time>
      </trkpt>
      <trkpt lat="47.79468" lon="-3.22611">
        <ele>56.799999237061</ele>
        <time>2014-10-05T08:22:24.000Z</time>
      </trkpt>
      <trkpt lat="47.79468" lon="-3.22617">
        <ele>56.799999237061</ele>
        <time>2014-10-05T08:22:26.000Z</time>
      </trkpt>
      <trkpt lat="47.7947" lon="-3.22623">
        <ele>57</ele>
        <time>2014-10-05T08:22:30.000Z</time>
      </trkpt>
      <trkpt lat="47.79473" lon="-3.22636">
        <ele>56.799999237061</ele>
        <time>2014-10-05T08:22:37.000Z</time>
      </trkpt>
      <trkpt lat="47.79474" lon="-3.22643">
        <ele>56.599998474121</ele>
        <time>2014-10-05T08:22:42.000Z</time>
      </trkpt>
      <trkpt lat="47.79474" lon="-3.22655">
        <ele>56.200000762939</ele>
        <time>2014-10-05T08:22:47.000Z</time>
      </trkpt>
      <trkpt lat="47.79475" lon="-3.22662">
        <ele>55.799999237061</ele>
        <time>2014-10-05T08:22:51.000Z</time>
      </trkpt>
      <trkpt lat="47.79476" lon="-3.22666">
        <ele>55.799999237061</ele>
        <time>2014-10-05T08:22:53.000Z</time>
      </trkpt>
      <trkpt lat="47.79478" lon="-3.22675">
        <ele>55.599998474121</ele>
        <time>2014-10-05T08:22:58.000Z</time>
      </trkpt>
      <trkpt lat="47.79478" lon="-3.22679">
        <ele>55.400001525879</ele>
        <time>2014-10-05T08:23:00.000Z</time>
      </trkpt>
      <trkpt lat="47.79479" lon="-3.22685">
        <ele>55.400001525879</ele>
        <time>2014-10-05T08:23:03.000Z</time>
      </trkpt>
      <trkpt lat="47.7948" lon="-3.22697">
        <ele>55.400001525879</ele>
        <time>2014-10-05T08:23:10.000Z</time>
      </trkpt>
      <trkpt lat="47.79481" lon="-3.22713">
        <ele>55.599998474121</ele>
        <time>2014-10-05T08:23:17.000Z</time>
      </trkpt>
      <trkpt lat="47.79481" lon="-3.22722">
        <ele>55.599998474121</ele>
        <time>2014-10-05T08:23:21.000Z</time>
      </trkpt>
      <trkpt lat="47.79484" lon="-3.22733">
        <ele>56</ele>
        <time>2014-10-05T08:23:27.000Z</time>
      </trkpt>
      <trkpt lat="47.79484" lon="-3.22744">
        <ele>56</ele>
        <time>2014-10-05T08:23:32.000Z</time>
      </trkpt>
      <trkpt lat="47.79484" lon="-3.22748">
        <ele>56</ele>
        <time>2014-10-05T08:23:34.000Z</time>
      </trkpt>
      <trkpt lat="47.79487" lon="-3.22762">
        <ele>56.400001525879</ele>
        <time>2014-10-05T08:23:41.000Z</time>
      </trkpt>
      <trkpt lat="47.79488" lon="-3.22769">
        <ele>56.200000762939</ele>
        <time>2014-10-05T08:23:45.000Z</time>
      </trkpt>
      <trkpt lat="47.79491" lon="-3.22787">
        <ele>56.400001525879</ele>
        <time>2014-10-05T08:23:53.000Z</time>
      </trkpt>
      <trkpt lat="47.79492" lon="-3.22805">
        <ele>57</ele>
        <time>2014-10-05T08:24:01.000Z</time>
      </trkpt>
      <trkpt lat="47.79494" lon="-3.22819">
        <ele>57.400001525879</ele>
        <time>2014-10-05T08:24:08.000Z</time>
      </trkpt>
      <trkpt lat="47.79495" lon="-3.22834">
        <ele>58</ele>
        <time>2014-10-05T08:24:15.000Z</time>
      </trkpt>
      <trkpt lat="47.79496" lon="-3.22843">
        <ele>58.200000762939</ele>
        <time>2014-10-05T08:24:19.000Z</time>
      </trkpt>
      <trkpt lat="47.79497" lon="-3.22852">
        <ele>58.200000762939</ele>
        <time>2014-10-05T08:24:24.000Z</time>
      </trkpt>
      <trkpt lat="47.795" lon="-3.22867">
        <ele>58</ele>
        <time>2014-10-05T08:24:32.000Z</time>
      </trkpt>
      <trkpt lat="47.79499" lon="-3.22875">
        <ele>57.799999237061</ele>
        <time>2014-10-05T08:24:36.000Z</time>
      </trkpt>
      <trkpt lat="47.795" lon="-3.22886">
        <ele>57.599998474121</ele>
        <time>2014-10-05T08:24:42.000Z</time>
      </trkpt>
      <trkpt lat="47.795" lon="-3.22887">
        <ele>57.599998474121</ele>
        <time>2014-10-05T08:24:43.000Z</time>
      </trkpt>
      <trkpt lat="47.79502" lon="-3.22889">
        <ele>57.599998474121</ele>
        <time>2014-10-05T08:24:45.000Z</time>
      </trkpt>
      <trkpt lat="47.79502" lon="-3.22889">
        <ele>57.799999237061</ele>
        <time>2014-10-05T08:24:48.000Z</time>
      </trkpt>
      <trkpt lat="47.79514" lon="-3.22889">
        <ele>58.599998474121</ele>
        <time>2014-10-05T08:25:16.000Z</time>
      </trkpt>
      <trkpt lat="47.79518" lon="-3.2289">
        <ele>58.799999237061</ele>
        <time>2014-10-05T08:25:20.000Z</time>
      </trkpt>
      <trkpt lat="47.79522" lon="-3.22888">
        <ele>59.200000762939</ele>
        <time>2014-10-05T08:25:25.000Z</time>
      </trkpt>
      <trkpt lat="47.79529" lon="-3.22886">
        <ele>59.799999237061</ele>
        <time>2014-10-05T08:25:32.000Z</time>
      </trkpt>
      <trkpt lat="47.79537" lon="-3.22886">
        <ele>60.400001525879</ele>
        <time>2014-10-05T08:25:40.000Z</time>
      </trkpt>
      <trkpt lat="47.7954" lon="-3.22886">
        <ele>60.599998474121</ele>
        <time>2014-10-05T08:25:45.000Z</time>
      </trkpt>
      <trkpt lat="47.79561" lon="-3.22897">
        <ele>62</ele>
        <time>2014-10-05T08:26:28.000Z</time>
      </trkpt>
      <trkpt lat="47.79565" lon="-3.229">
        <ele>62.400001525879</ele>
        <time>2014-10-05T08:26:33.000Z</time>
      </trkpt>
      <trkpt lat="47.79569" lon="-3.22904">
        <ele>62.599998474121</ele>
        <time>2014-10-05T08:26:40.000Z</time>
      </trkpt>
      <trkpt lat="47.79568" lon="-3.22912">
        <ele>62.400001525879</ele>
        <time>2014-10-05T08:26:46.000Z</time>
      </trkpt>
      <trkpt lat="47.79567" lon="-3.2291">
        <ele>62.400001525879</ele>
        <time>2014-10-05T08:26:50.000Z</time>
      </trkpt>
      <trkpt lat="47.79566" lon="-3.22918">
        <ele>62.200000762939</ele>
        <time>2014-10-05T08:26:59.000Z</time>
      </trkpt>
      <trkpt lat="47.79566" lon="-3.22924">
        <ele>62.200000762939</ele>
        <time>2014-10-05T08:27:01.000Z</time>
      </trkpt>
      <trkpt lat="47.79564" lon="-3.22928">
        <ele>62</ele>
        <time>2014-10-05T08:27:03.000Z</time>
      </trkpt>
      <trkpt lat="47.79564" lon="-3.22933">
        <ele>62</ele>
        <time>2014-10-05T08:27:06.000Z</time>
      </trkpt>
      <trkpt lat="47.79563" lon="-3.22945">
        <ele>61.799999237061</ele>
        <time>2014-10-05T08:27:13.000Z</time>
      </trkpt>
      <trkpt lat="47.79565" lon="-3.22954">
        <ele>62</ele>
        <time>2014-10-05T08:27:19.000Z</time>
      </trkpt>
      <trkpt lat="47.79567" lon="-3.22964">
        <ele>62.400001525879</ele>
        <time>2014-10-05T08:27:25.000Z</time>
      </trkpt>
      <trkpt lat="47.79571" lon="-3.22971">
        <ele>62.799999237061</ele>
        <time>2014-10-05T08:27:30.000Z</time>
      </trkpt>
      <trkpt lat="47.79571" lon="-3.22972">
        <ele>62.799999237061</ele>
        <time>2014-10-05T08:27:31.000Z</time>
      </trkpt>
      <trkpt lat="47.79572" lon="-3.22976">
        <ele>63</ele>
        <time>2014-10-05T08:27:33.000Z</time>
      </trkpt>
      <trkpt lat="47.79576" lon="-3.22985">
        <ele>63.599998474121</ele>
        <time>2014-10-05T08:27:39.000Z</time>
      </trkpt>
      <trkpt lat="47.79577" lon="-3.2299">
        <ele>63.599998474121</ele>
        <time>2014-10-05T08:27:41.000Z</time>
      </trkpt>
      <trkpt lat="47.79579" lon="-3.23002">
        <ele>64</ele>
        <time>2014-10-05T08:27:48.000Z</time>
      </trkpt>
      <trkpt lat="47.7958" lon="-3.23005">
        <ele>64.199996948242</ele>
        <time>2014-10-05T08:27:50.000Z</time>
      </trkpt>
      <trkpt lat="47.7958" lon="-3.2301">
        <ele>64.199996948242</ele>
        <time>2014-10-05T08:27:53.000Z</time>
      </trkpt>
      <trkpt lat="47.79585" lon="-3.2302">
        <ele>64.800003051758</ele>
        <time>2014-10-05T08:27:58.000Z</time>
      </trkpt>
      <trkpt lat="47.79587" lon="-3.23021">
        <ele>65</ele>
        <time>2014-10-05T08:28:00.000Z</time>
      </trkpt>
      <trkpt lat="47.79592" lon="-3.23031">
        <ele>65.599998474121</ele>
        <time>2014-10-05T08:28:06.000Z</time>
      </trkpt>
      <trkpt lat="47.79594" lon="-3.23031">
        <ele>65.599998474121</ele>
        <time>2014-10-05T08:28:17.000Z</time>
      </trkpt>
      <trkpt lat="47.79587" lon="-3.23039">
        <ele>65.599998474121</ele>
        <time>2014-10-05T08:28:36.000Z</time>
      </trkpt>
      <trkpt lat="47.79581" lon="-3.23042">
        <ele>65</ele>
        <time>2014-10-05T08:28:45.000Z</time>
      </trkpt>
      <trkpt lat="47.79573" lon="-3.23046">
        <ele>64.400001525879</ele>
        <time>2014-10-05T08:28:58.000Z</time>
      </trkpt>
      <trkpt lat="47.79573" lon="-3.23055">
        <ele>64.599998474121</ele>
        <time>2014-10-05T08:29:01.000Z</time>
      </trkpt>
      <trkpt lat="47.79573" lon="-3.2306">
        <ele>64.800003051758</ele>
        <time>2014-10-05T08:29:03.000Z</time>
      </trkpt>
      <trkpt lat="47.79571" lon="-3.23063">
        <ele>64.599998474121</ele>
        <time>2014-10-05T08:29:05.000Z</time>
      </trkpt>
      <trkpt lat="47.79562" lon="-3.2307">
        <ele>63.799999237061</ele>
        <time>2014-10-05T08:29:10.000Z</time>
      </trkpt>
      <trkpt lat="47.79561" lon="-3.23072">
        <ele>63.799999237061</ele>
        <time>2014-10-05T08:29:13.000Z</time>
      </trkpt>
      <trkpt lat="47.79556" lon="-3.23075">
        <ele>63.400001525879</ele>
        <time>2014-10-05T08:29:20.000Z</time>
      </trkpt>
      <trkpt lat="47.79555" lon="-3.23078">
        <ele>63.400001525879</ele>
        <time>2014-10-05T08:29:21.000Z</time>
      </trkpt>
      <trkpt lat="47.79549" lon="-3.23085">
        <ele>63</ele>
        <time>2014-10-05T08:29:24.000Z</time>
      </trkpt>
      <trkpt lat="47.7954" lon="-3.23088">
        <ele>62.200000762939</ele>
        <time>2014-10-05T08:29:29.000Z</time>
      </trkpt>
      <trkpt lat="47.79538" lon="-3.23087">
        <ele>62</ele>
        <time>2014-10-05T08:29:32.000Z</time>
      </trkpt>
      <trkpt lat="47.7953" lon="-3.23089">
        <ele>61.200000762939</ele>
        <time>2014-10-05T08:29:36.000Z</time>
      </trkpt>
      <trkpt lat="47.79528" lon="-3.23092">
        <ele>61</ele>
        <time>2014-10-05T08:29:38.000Z</time>
      </trkpt>
      <trkpt lat="47.79517" lon="-3.23095">
        <ele>60.200000762939</ele>
        <time>2014-10-05T08:29:45.000Z</time>
      </trkpt>
      <trkpt lat="47.79514" lon="-3.23094">
        <ele>59.799999237061</ele>
        <time>2014-10-05T08:29:50.000Z</time>
      </trkpt>
      <trkpt lat="47.79504" lon="-3.23096">
        <ele>59</ele>
        <time>2014-10-05T08:30:03.000Z</time>
      </trkpt>
      <trkpt lat="47.795" lon="-3.23098">
        <ele>58.799999237061</ele>
        <time>2014-10-05T08:30:09.000Z</time>
      </trkpt>
      <trkpt lat="47.79501" lon="-3.23101">
        <ele>59</ele>
        <time>2014-10-05T08:30:16.000Z</time>
      </trkpt>
      <trkpt lat="47.79505" lon="-3.23109">
        <ele>58.799999237061</ele>
        <time>2014-10-05T08:30:53.000Z</time>
      </trkpt>
      <trkpt lat="47.79496" lon="-3.23104">
        <ele>58.799999237061</ele>
        <time>2014-10-05T08:30:57.000Z</time>
      </trkpt>
      <trkpt lat="47.79483" lon="-3.23102">
        <ele>57.799999237061</ele>
        <time>2014-10-05T08:31:04.000Z</time>
      </trkpt>
      <trkpt lat="47.79474" lon="-3.23104">
        <ele>57.200000762939</ele>
        <time>2014-10-05T08:31:09.000Z</time>
      </trkpt>
      <trkpt lat="47.79465" lon="-3.2311">
        <ele>57</ele>
        <time>2014-10-05T08:31:16.000Z</time>
      </trkpt>
      <trkpt lat="47.79462" lon="-3.23117">
        <ele>57.200000762939</ele>
        <time>2014-10-05T08:31:20.000Z</time>
      </trkpt>
      <trkpt lat="47.79457" lon="-3.23125">
        <ele>57.400001525879</ele>
        <time>2014-10-05T08:31:27.000Z</time>
      </trkpt>
      <trkpt lat="47.79453" lon="-3.23132">
        <ele>57.400001525879</ele>
        <time>2014-10-05T08:31:31.000Z</time>
      </trkpt>
      <trkpt lat="47.79447" lon="-3.23142">
        <ele>57.599998474121</ele>
        <time>2014-10-05T08:31:37.000Z</time>
      </trkpt>
      <trkpt lat="47.79443" lon="-3.23152">
        <ele>58</ele>
        <time>2014-10-05T08:31:43.000Z</time>
      </trkpt>
      <trkpt lat="47.79436" lon="-3.23162">
        <ele>58</ele>
        <time>2014-10-05T08:31:49.000Z</time>
      </trkpt>
      <trkpt lat="47.79429" lon="-3.23169">
        <ele>58</ele>
        <time>2014-10-05T08:31:56.000Z</time>
      </trkpt>
      <trkpt lat="47.79422" lon="-3.23187">
        <ele>58.200000762939</ele>
        <time>2014-10-05T08:32:05.000Z</time>
      </trkpt>
      <trkpt lat="47.79421" lon="-3.23199">
        <ele>58.200000762939</ele>
        <time>2014-10-05T08:32:12.000Z</time>
      </trkpt>
      <trkpt lat="47.79422" lon="-3.23207">
        <ele>58.400001525879</ele>
        <time>2014-10-05T08:32:18.000Z</time>
      </trkpt>
      <trkpt lat="47.79422" lon="-3.23207">
        <ele>58.400001525879</ele>
        <time>2014-10-05T08:32:21.000Z</time>
      </trkpt>
      <trkpt lat="47.79427" lon="-3.23219">
        <ele>58.400001525879</ele>
        <time>2014-10-05T08:32:35.000Z</time>
      </trkpt>
      <trkpt lat="47.79432" lon="-3.23228">
        <ele>58.599998474121</ele>
        <time>2014-10-05T08:32:40.000Z</time>
      </trkpt>
      <trkpt lat="47.79439" lon="-3.23239">
        <ele>58.799999237061</ele>
        <time>2014-10-05T08:32:48.000Z</time>
      </trkpt>
      <trkpt lat="47.79447" lon="-3.23249">
        <ele>59</ele>
        <time>2014-10-05T08:32:55.000Z</time>
      </trkpt>
      <trkpt lat="47.79449" lon="-3.2326">
        <ele>59.200000762939</ele>
        <time>2014-10-05T08:33:03.000Z</time>
      </trkpt>
      <trkpt lat="47.79446" lon="-3.23267">
        <ele>59.200000762939</ele>
        <time>2014-10-05T08:33:14.000Z</time>
      </trkpt>
      <trkpt lat="47.79452" lon="-3.23259">
        <ele>59.200000762939</ele>
        <time>2014-10-05T08:33:32.000Z</time>
      </trkpt>
      <trkpt lat="47.79453" lon="-3.23259">
        <ele>59.200000762939</ele>
        <time>2014-10-05T08:33:33.000Z</time>
      </trkpt>
      <trkpt lat="47.79451" lon="-3.2326">
        <ele>59.200000762939</ele>
        <time>2014-10-05T08:33:38.000Z</time>
      </trkpt>
      <trkpt lat="47.79448" lon="-3.23266">
        <ele>59.200000762939</ele>
        <time>2014-10-05T08:33:45.000Z</time>
      </trkpt>
      <trkpt lat="47.79442" lon="-3.23263">
        <ele>59.200000762939</ele>
        <time>2014-10-05T08:33:56.000Z</time>
      </trkpt>
      <trkpt lat="47.79437" lon="-3.2326">
        <ele>59.200000762939</ele>
        <time>2014-10-05T08:33:59.000Z</time>
      </trkpt>
      <trkpt lat="47.79425" lon="-3.23257">
        <ele>59</ele>
        <time>2014-10-05T08:34:07.000Z</time>
      </trkpt>
      <trkpt lat="47.79417" lon="-3.23255">
        <ele>58.599998474121</ele>
        <time>2014-10-05T08:34:13.000Z</time>
      </trkpt>
      <trkpt lat="47.79411" lon="-3.23252">
        <ele>58.200000762939</ele>
        <time>2014-10-05T08:34:17.000Z</time>
      </trkpt>
      <trkpt lat="47.79404" lon="-3.23255">
        <ele>57.799999237061</ele>
        <time>2014-10-05T08:34:22.000Z</time>
      </trkpt>
      <trkpt lat="47.79402" lon="-3.23259">
        <ele>57.799999237061</ele>
        <time>2014-10-05T08:34:27.000Z</time>
      </trkpt>
      <trkpt lat="47.79397" lon="-3.23255">
        <ele>57.400001525879</ele>
        <time>2014-10-05T08:35:30.000Z</time>
      </trkpt>
      <trkpt lat="47.79396" lon="-3.23256">
        <ele>57.400001525879</ele>
        <time>2014-10-05T08:35:34.000Z</time>
      </trkpt>
      <trkpt lat="47.79381" lon="-3.23269">
        <ele>56.799999237061</ele>
        <time>2014-10-05T08:35:58.000Z</time>
      </trkpt>
      <trkpt lat="47.79381" lon="-3.23269">
        <ele>56.799999237061</ele>
        <time>2014-10-05T08:35:59.000Z</time>
      </trkpt>
      <trkpt lat="47.79388" lon="-3.23265">
        <ele>57</ele>
        <time>2014-10-05T08:36:18.000Z</time>
      </trkpt>
      <trkpt lat="47.7939" lon="-3.23264">
        <ele>57.200000762939</ele>
        <time>2014-10-05T08:36:20.000Z</time>
      </trkpt>
      <trkpt lat="47.79402" lon="-3.23285">
        <ele>58.200000762939</ele>
        <time>2014-10-05T08:37:41.000Z</time>
      </trkpt>
      <trkpt lat="47.79402" lon="-3.23294">
        <ele>58.200000762939</ele>
        <time>2014-10-05T08:37:44.000Z</time>
      </trkpt>
      <trkpt lat="47.79401" lon="-3.23302">
        <ele>58</ele>
        <time>2014-10-05T08:37:49.000Z</time>
      </trkpt>
      <trkpt lat="47.794" lon="-3.2331">
        <ele>58</ele>
        <time>2014-10-05T08:37:53.000Z</time>
      </trkpt>
      <trkpt lat="47.79399" lon="-3.2333">
        <ele>57.599998474121</ele>
        <time>2014-10-05T08:38:02.000Z</time>
      </trkpt>
      <trkpt lat="47.79398" lon="-3.23342">
        <ele>57.400001525879</ele>
        <time>2014-10-05T08:38:07.000Z</time>
      </trkpt>
      <trkpt lat="47.79399" lon="-3.23354">
        <ele>57.599998474121</ele>
        <time>2014-10-05T08:38:12.000Z</time>
      </trkpt>
      <trkpt lat="47.79398" lon="-3.23374">
        <ele>57.799999237061</ele>
        <time>2014-10-05T08:38:21.000Z</time>
      </trkpt>
      <trkpt lat="47.79398" lon="-3.23376">
        <ele>57.799999237061</ele>
        <time>2014-10-05T08:38:22.000Z</time>
      </trkpt>
      <trkpt lat="47.79398" lon="-3.23388">
        <ele>58.200000762939</ele>
        <time>2014-10-05T08:38:27.000Z</time>
      </trkpt>
      <trkpt lat="47.79397" lon="-3.23398">
        <ele>58.400001525879</ele>
        <time>2014-10-05T08:38:31.000Z</time>
      </trkpt>
      <trkpt lat="47.79397" lon="-3.23412">
        <ele>58.799999237061</ele>
        <time>2014-10-05T08:38:37.000Z</time>
      </trkpt>
      <trkpt lat="47.79397" lon="-3.23422">
        <ele>59</ele>
        <time>2014-10-05T08:38:41.000Z</time>
      </trkpt>
      <trkpt lat="47.79397" lon="-3.23434">
        <ele>59</ele>
        <time>2014-10-05T08:38:47.000Z</time>
      </trkpt>
      <trkpt lat="47.79395" lon="-3.23446">
        <ele>58.599998474121</ele>
        <time>2014-10-05T08:38:52.000Z</time>
      </trkpt>
      <trkpt lat="47.79395" lon="-3.23453">
        <ele>58.400001525879</ele>
        <time>2014-10-05T08:38:55.000Z</time>
      </trkpt>
      <trkpt lat="47.79395" lon="-3.23461">
        <ele>58.599998474121</ele>
        <time>2014-10-05T08:38:59.000Z</time>
      </trkpt>
      <trkpt lat="47.79395" lon="-3.23463">
        <ele>58.599998474121</ele>
        <time>2014-10-05T08:39:00.000Z</time>
      </trkpt>
      <trkpt lat="47.79393" lon="-3.23479">
        <ele>58.799999237061</ele>
        <time>2014-10-05T08:39:07.000Z</time>
      </trkpt>
      <trkpt lat="47.79394" lon="-3.23483">
        <ele>59</ele>
        <time>2014-10-05T08:39:09.000Z</time>
      </trkpt>
      <trkpt lat="47.79395" lon="-3.2349">
        <ele>59.200000762939</ele>
        <time>2014-10-05T08:39:12.000Z</time>
      </trkpt>
      <trkpt lat="47.79396" lon="-3.23495">
        <ele>59.400001525879</ele>
        <time>2014-10-05T08:39:15.000Z</time>
      </trkpt>
      <trkpt lat="47.79396" lon="-3.23505">
        <ele>59.799999237061</ele>
        <time>2014-10-05T08:39:20.000Z</time>
      </trkpt>
      <trkpt lat="47.79397" lon="-3.23514">
        <ele>59.799999237061</ele>
        <time>2014-10-05T08:39:24.000Z</time>
      </trkpt>
      <trkpt lat="47.79397" lon="-3.23526">
        <ele>59.200000762939</ele>
        <time>2014-10-05T08:39:29.000Z</time>
      </trkpt>
      <trkpt lat="47.79396" lon="-3.2353">
        <ele>59</ele>
        <time>2014-10-05T08:39:31.000Z</time>
      </trkpt>
      <trkpt lat="47.79394" lon="-3.23541">
        <ele>58.400001525879</ele>
        <time>2014-10-05T08:39:37.000Z</time>
      </trkpt>
      <trkpt lat="47.79394" lon="-3.23554">
        <ele>58</ele>
        <time>2014-10-05T08:39:43.000Z</time>
      </trkpt>
      <trkpt lat="47.79394" lon="-3.23564">
        <ele>57.799999237061</ele>
        <time>2014-10-05T08:39:47.000Z</time>
      </trkpt>
      <trkpt lat="47.79394" lon="-3.23584">
        <ele>57.400001525879</ele>
        <time>2014-10-05T08:39:55.000Z</time>
      </trkpt>
      <trkpt lat="47.79394" lon="-3.23598">
        <ele>57.200000762939</ele>
        <time>2014-10-05T08:40:01.000Z</time>
      </trkpt>
      <trkpt lat="47.79394" lon="-3.23612">
        <ele>57.799999237061</ele>
        <time>2014-10-05T08:40:07.000Z</time>
      </trkpt>
      <trkpt lat="47.79393" lon="-3.23623">
        <ele>58.200000762939</ele>
        <time>2014-10-05T08:40:13.000Z</time>
      </trkpt>
      <trkpt lat="47.79394" lon="-3.23634">
        <ele>58.799999237061</ele>
        <time>2014-10-05T08:40:18.000Z</time>
      </trkpt>
      <trkpt lat="47.79395" lon="-3.23644">
        <ele>59.200000762939</ele>
        <time>2014-10-05T08:40:24.000Z</time>
      </trkpt>
      <trkpt lat="47.79396" lon="-3.23656">
        <ele>59.799999237061</ele>
        <time>2014-10-05T08:40:29.000Z</time>
      </trkpt>
      <trkpt lat="47.79395" lon="-3.2367">
        <ele>60.200000762939</ele>
        <time>2014-10-05T08:40:34.000Z</time>
      </trkpt>
      <trkpt lat="47.79398" lon="-3.23676">
        <ele>60.599998474121</ele>
        <time>2014-10-05T08:40:36.000Z</time>
      </trkpt>
      <trkpt lat="47.794" lon="-3.23689">
        <ele>61.400001525879</ele>
        <time>2014-10-05T08:40:42.000Z</time>
      </trkpt>
      <trkpt lat="47.79399" lon="-3.23693">
        <ele>61.599998474121</ele>
        <time>2014-10-05T08:40:44.000Z</time>
      </trkpt>
      <trkpt lat="47.79399" lon="-3.23709">
        <ele>62.200000762939</ele>
        <time>2014-10-05T08:40:51.000Z</time>
      </trkpt>
      <trkpt lat="47.79399" lon="-3.23719">
        <ele>62.599998474121</ele>
        <time>2014-10-05T08:40:57.000Z</time>
      </trkpt>
      <trkpt lat="47.794" lon="-3.23727">
        <ele>63</ele>
        <time>2014-10-05T08:41:02.000Z</time>
      </trkpt>
      <trkpt lat="47.79402" lon="-3.23736">
        <ele>63.400001525879</ele>
        <time>2014-10-05T08:41:07.000Z</time>
      </trkpt>
      <trkpt lat="47.79403" lon="-3.2375">
        <ele>64</ele>
        <time>2014-10-05T08:41:14.000Z</time>
      </trkpt>
      <trkpt lat="47.79405" lon="-3.23763">
        <ele>64.599998474121</ele>
        <time>2014-10-05T08:41:20.000Z</time>
      </trkpt>
      <trkpt lat="47.79406" lon="-3.23767">
        <ele>64.800003051758</ele>
        <time>2014-10-05T08:41:22.000Z</time>
      </trkpt>
      <trkpt lat="47.79407" lon="-3.23775">
        <ele>65.199996948242</ele>
        <time>2014-10-05T08:41:26.000Z</time>
      </trkpt>
      <trkpt lat="47.79407" lon="-3.23779">
        <ele>65</ele>
        <time>2014-10-05T08:41:28.000Z</time>
      </trkpt>
      <trkpt lat="47.79407" lon="-3.23789">
        <ele>64.800003051758</ele>
        <time>2014-10-05T08:41:33.000Z</time>
      </trkpt>
      <trkpt lat="47.79407" lon="-3.23797">
        <ele>64.599998474121</ele>
        <time>2014-10-05T08:41:37.000Z</time>
      </trkpt>
      <trkpt lat="47.79407" lon="-3.23805">
        <ele>64.400001525879</ele>
        <time>2014-10-05T08:41:42.000Z</time>
      </trkpt>
      <trkpt lat="47.7941" lon="-3.23816">
        <ele>64.199996948242</ele>
        <time>2014-10-05T08:41:48.000Z</time>
      </trkpt>
      <trkpt lat="47.79409" lon="-3.23827">
        <ele>64</ele>
        <time>2014-10-05T08:41:53.000Z</time>
      </trkpt>
      <trkpt lat="47.79409" lon="-3.2384">
        <ele>63.799999237061</ele>
        <time>2014-10-05T08:42:00.000Z</time>
      </trkpt>
      <trkpt lat="47.79407" lon="-3.23855">
        <ele>63.200000762939</ele>
        <time>2014-10-05T08:42:07.000Z</time>
      </trkpt>
      <trkpt lat="47.79403" lon="-3.23875">
        <ele>62.599998474121</ele>
        <time>2014-10-05T08:42:14.000Z</time>
      </trkpt>
      <trkpt lat="47.79403" lon="-3.2388">
        <ele>62.400001525879</ele>
        <time>2014-10-05T08:42:16.000Z</time>
      </trkpt>
      <trkpt lat="47.794" lon="-3.23898">
        <ele>61.599998474121</ele>
        <time>2014-10-05T08:42:23.000Z</time>
      </trkpt>
      <trkpt lat="47.79399" lon="-3.23902">
        <ele>61.400001525879</ele>
        <time>2014-10-05T08:42:25.000Z</time>
      </trkpt>
      <trkpt lat="47.79396" lon="-3.23921">
        <ele>60.599998474121</ele>
        <time>2014-10-05T08:42:33.000Z</time>
      </trkpt>
      <trkpt lat="47.79394" lon="-3.23937">
        <ele>60.200000762939</ele>
        <time>2014-10-05T08:42:40.000Z</time>
      </trkpt>
      <trkpt lat="47.79393" lon="-3.23948">
        <ele>60</ele>
        <time>2014-10-05T08:42:46.000Z</time>
      </trkpt>
      <trkpt lat="47.79393" lon="-3.23956">
        <ele>60</ele>
        <time>2014-10-05T08:42:50.000Z</time>
      </trkpt>
      <trkpt lat="47.79391" lon="-3.23963">
        <ele>59.799999237061</ele>
        <time>2014-10-05T08:42:54.000Z</time>
      </trkpt>
      <trkpt lat="47.7939" lon="-3.23967">
        <ele>59.799999237061</ele>
        <time>2014-10-05T08:42:57.000Z</time>
      </trkpt>
      <trkpt lat="47.79389" lon="-3.23986">
        <ele>59.599998474121</ele>
        <time>2014-10-05T08:43:05.000Z</time>
      </trkpt>
      <trkpt lat="47.79391" lon="-3.23997">
        <ele>59.400001525879</ele>
        <time>2014-10-05T08:43:10.000Z</time>
      </trkpt>
      <trkpt lat="47.79391" lon="-3.24001">
        <ele>59.400001525879</ele>
        <time>2014-10-05T08:43:12.000Z</time>
      </trkpt>
      <trkpt lat="47.79389" lon="-3.24017">
        <ele>59.200000762939</ele>
        <time>2014-10-05T08:43:17.000Z</time>
      </trkpt>
      <trkpt lat="47.79389" lon="-3.24025">
        <ele>59</ele>
        <time>2014-10-05T08:43:21.000Z</time>
      </trkpt>
      <trkpt lat="47.79389" lon="-3.2404">
        <ele>58.799999237061</ele>
        <time>2014-10-05T08:43:30.000Z</time>
      </trkpt>
      <trkpt lat="47.7939" lon="-3.24062">
        <ele>58.599998474121</ele>
        <time>2014-10-05T08:44:01.000Z</time>
      </trkpt>
      <trkpt lat="47.7939" lon="-3.24067">
        <ele>58.599998474121</ele>
        <time>2014-10-05T08:44:03.000Z</time>
      </trkpt>
      <trkpt lat="47.79391" lon="-3.24079">
        <ele>58.400001525879</ele>
        <time>2014-10-05T08:44:09.000Z</time>
      </trkpt>
      <trkpt lat="47.7939" lon="-3.24081">
        <ele>58.400001525879</ele>
        <time>2014-10-05T08:44:10.000Z</time>
      </trkpt>
      <trkpt lat="47.79392" lon="-3.24087">
        <ele>58.400001525879</ele>
        <time>2014-10-05T08:44:14.000Z</time>
      </trkpt>
      <trkpt lat="47.79393" lon="-3.24103">
        <ele>58.400001525879</ele>
        <time>2014-10-05T08:44:22.000Z</time>
      </trkpt>
      <trkpt lat="47.79393" lon="-3.2411">
        <ele>58.400001525879</ele>
        <time>2014-10-05T08:44:25.000Z</time>
      </trkpt>
      <trkpt lat="47.7939" lon="-3.24124">
        <ele>58.200000762939</ele>
        <time>2014-10-05T08:44:32.000Z</time>
      </trkpt>
      <trkpt lat="47.7939" lon="-3.24126">
        <ele>58.200000762939</ele>
        <time>2014-10-05T08:44:33.000Z</time>
      </trkpt>
      <trkpt lat="47.79388" lon="-3.24141">
        <ele>58.400001525879</ele>
        <time>2014-10-05T08:44:40.000Z</time>
      </trkpt>
      <trkpt lat="47.79387" lon="-3.24155">
        <ele>58.799999237061</ele>
        <time>2014-10-05T08:44:46.000Z</time>
      </trkpt>
      <trkpt lat="47.79387" lon="-3.24169">
        <ele>59.200000762939</ele>
        <time>2014-10-05T08:44:52.000Z</time>
      </trkpt>
      <trkpt lat="47.79387" lon="-3.24182">
        <ele>59.400001525879</ele>
        <time>2014-10-05T08:44:57.000Z</time>
      </trkpt>
      <trkpt lat="47.79389" lon="-3.24189">
        <ele>59.799999237061</ele>
        <time>2014-10-05T08:45:01.000Z</time>
      </trkpt>
      <trkpt lat="47.79391" lon="-3.24193">
        <ele>60</ele>
        <time>2014-10-05T08:45:04.000Z</time>
      </trkpt>
      <trkpt lat="47.79392" lon="-3.24192">
        <ele>60</ele>
        <time>2014-10-05T08:45:06.000Z</time>
      </trkpt>
      <trkpt lat="47.79393" lon="-3.24191">
        <ele>60</ele>
        <time>2014-10-05T08:45:09.000Z</time>
      </trkpt>
      <trkpt lat="47.79393" lon="-3.24201">
        <ele>60.400001525879</ele>
        <time>2014-10-05T08:45:28.000Z</time>
      </trkpt>
      <trkpt lat="47.79394" lon="-3.24218">
        <ele>61</ele>
        <time>2014-10-05T08:45:35.000Z</time>
      </trkpt>
      <trkpt lat="47.79394" lon="-3.24222">
        <ele>61</ele>
        <time>2014-10-05T08:45:37.000Z</time>
      </trkpt>
      <trkpt lat="47.79391" lon="-3.2424">
        <ele>61.400001525879</ele>
        <time>2014-10-05T08:45:45.000Z</time>
      </trkpt>
      <trkpt lat="47.79389" lon="-3.24253">
        <ele>61.599998474121</ele>
        <time>2014-10-05T08:45:51.000Z</time>
      </trkpt>
      <trkpt lat="47.7939" lon="-3.24266">
        <ele>62</ele>
        <time>2014-10-05T08:45:58.000Z</time>
      </trkpt>
      <trkpt lat="47.79389" lon="-3.24275">
        <ele>62</ele>
        <time>2014-10-05T08:46:02.000Z</time>
      </trkpt>
      <trkpt lat="47.79389" lon="-3.24287">
        <ele>62.200000762939</ele>
        <time>2014-10-05T08:46:08.000Z</time>
      </trkpt>
      <trkpt lat="47.79389" lon="-3.24296">
        <ele>62.200000762939</ele>
        <time>2014-10-05T08:46:12.000Z</time>
      </trkpt>
      <trkpt lat="47.79387" lon="-3.24306">
        <ele>62</ele>
        <time>2014-10-05T08:46:17.000Z</time>
      </trkpt>
      <trkpt lat="47.79386" lon="-3.24317">
        <ele>62</ele>
        <time>2014-10-05T08:46:22.000Z</time>
      </trkpt>
      <trkpt lat="47.79385" lon="-3.24338">
        <ele>61.599998474121</ele>
        <time>2014-10-05T08:46:31.000Z</time>
      </trkpt>
      <trkpt lat="47.79384" lon="-3.24356">
        <ele>61.599998474121</ele>
        <time>2014-10-05T08:46:39.000Z</time>
      </trkpt>
      <trkpt lat="47.79383" lon="-3.24367">
        <ele>61.799999237061</ele>
        <time>2014-10-05T08:46:44.000Z</time>
      </trkpt>
      <trkpt lat="47.79382" lon="-3.24384">
        <ele>62</ele>
        <time>2014-10-05T08:46:51.000Z</time>
      </trkpt>
      <trkpt lat="47.79382" lon="-3.24397">
        <ele>61.799999237061</ele>
        <time>2014-10-05T08:46:57.000Z</time>
      </trkpt>
      <trkpt lat="47.79382" lon="-3.24403">
        <ele>61.599998474121</ele>
        <time>2014-10-05T08:47:00.000Z</time>
      </trkpt>
      <trkpt lat="47.79382" lon="-3.24417">
        <ele>61.200000762939</ele>
        <time>2014-10-05T08:47:06.000Z</time>
      </trkpt>
      <trkpt lat="47.79382" lon="-3.24428">
        <ele>61</ele>
        <time>2014-10-05T08:47:11.000Z</time>
      </trkpt>
      <trkpt lat="47.79383" lon="-3.24443">
        <ele>61.200000762939</ele>
        <time>2014-10-05T08:47:19.000Z</time>
      </trkpt>
      <trkpt lat="47.79384" lon="-3.24456">
        <ele>61.599998474121</ele>
        <time>2014-10-05T08:47:25.000Z</time>
      </trkpt>
      <trkpt lat="47.79384" lon="-3.24469">
        <ele>61.799999237061</ele>
        <time>2014-10-05T08:47:32.000Z</time>
      </trkpt>
      <trkpt lat="47.79384" lon="-3.24487">
        <ele>62.200000762939</ele>
        <time>2014-10-05T08:47:40.000Z</time>
      </trkpt>
      <trkpt lat="47.79387" lon="-3.24502">
        <ele>62.599998474121</ele>
        <time>2014-10-05T08:47:47.000Z</time>
      </trkpt>
      <trkpt lat="47.79388" lon="-3.24512">
        <ele>62.799999237061</ele>
        <time>2014-10-05T08:47:52.000Z</time>
      </trkpt>
      <trkpt lat="47.79394" lon="-3.24512">
        <ele>62.599998474121</ele>
        <time>2014-10-05T08:47:57.000Z</time>
      </trkpt>
      <trkpt lat="47.79396" lon="-3.24511">
        <ele>62.599998474121</ele>
        <time>2014-10-05T08:47:58.000Z</time>
      </trkpt>
      <trkpt lat="47.79397" lon="-3.24513">
        <ele>62.599998474121</ele>
        <time>2014-10-05T08:48:03.000Z</time>
      </trkpt>
      <trkpt lat="47.79394" lon="-3.2452">
        <ele>62.599998474121</ele>
        <time>2014-10-05T08:48:10.000Z</time>
      </trkpt>
      <trkpt lat="47.79389" lon="-3.24531">
        <ele>62.599998474121</ele>
        <time>2014-10-05T08:48:43.000Z</time>
      </trkpt>
      <trkpt lat="47.79388" lon="-3.24534">
        <ele>62.599998474121</ele>
        <time>2014-10-05T08:48:44.000Z</time>
      </trkpt>
      <trkpt lat="47.79388" lon="-3.24539">
        <ele>62.599998474121</ele>
        <time>2014-10-05T08:48:47.000Z</time>
      </trkpt>
      <trkpt lat="47.79389" lon="-3.24544">
        <ele>62.400001525879</ele>
        <time>2014-10-05T08:48:51.000Z</time>
      </trkpt>
      <trkpt lat="47.79389" lon="-3.24544">
        <ele>62.400001525879</ele>
        <time>2014-10-05T08:48:54.000Z</time>
      </trkpt>
      <trkpt lat="47.79392" lon="-3.24561">
        <ele>62.200000762939</ele>
        <time>2014-10-05T08:49:19.000Z</time>
      </trkpt>
      <trkpt lat="47.7939" lon="-3.24571">
        <ele>62</ele>
        <time>2014-10-05T08:49:23.000Z</time>
      </trkpt>
      <trkpt lat="47.79391" lon="-3.24577">
        <ele>62</ele>
        <time>2014-10-05T08:49:26.000Z</time>
      </trkpt>
      <trkpt lat="47.79392" lon="-3.24582">
        <ele>61.799999237061</ele>
        <time>2014-10-05T08:49:33.000Z</time>
      </trkpt>
      <trkpt lat="47.79393" lon="-3.2459">
        <ele>61.799999237061</ele>
        <time>2014-10-05T08:49:38.000Z</time>
      </trkpt>
      <trkpt lat="47.79393" lon="-3.24597">
        <ele>61.599998474121</ele>
        <time>2014-10-05T08:49:42.000Z</time>
      </trkpt>
      <trkpt lat="47.79392" lon="-3.24604">
        <ele>61.200000762939</ele>
        <time>2014-10-05T08:49:46.000Z</time>
      </trkpt>
      <trkpt lat="47.79393" lon="-3.24621">
        <ele>59.799999237061</ele>
        <time>2014-10-05T08:49:54.000Z</time>
      </trkpt>
      <trkpt lat="47.79394" lon="-3.24625">
        <ele>59.599998474121</ele>
        <time>2014-10-05T08:49:56.000Z</time>
      </trkpt>
      <trkpt lat="47.79394" lon="-3.24645">
        <ele>59</ele>
        <time>2014-10-05T08:50:04.000Z</time>
      </trkpt>
      <trkpt lat="47.79395" lon="-3.24657">
        <ele>58.400001525879</ele>
        <time>2014-10-05T08:50:10.000Z</time>
      </trkpt>
      <trkpt lat="47.79396" lon="-3.2467">
        <ele>58</ele>
        <time>2014-10-05T08:50:16.000Z</time>
      </trkpt>
      <trkpt lat="47.79396" lon="-3.24683">
        <ele>57.400001525879</ele>
        <time>2014-10-05T08:50:21.000Z</time>
      </trkpt>
      <trkpt lat="47.79397" lon="-3.247">
        <ele>56.400001525879</ele>
        <time>2014-10-05T08:50:29.000Z</time>
      </trkpt>
      <trkpt lat="47.79397" lon="-3.24711">
        <ele>56</ele>
        <time>2014-10-05T08:50:35.000Z</time>
      </trkpt>
      <trkpt lat="47.79398" lon="-3.24726">
        <ele>55.799999237061</ele>
        <time>2014-10-05T08:50:42.000Z</time>
      </trkpt>
      <trkpt lat="47.79399" lon="-3.2474">
        <ele>55.400001525879</ele>
        <time>2014-10-05T08:50:48.000Z</time>
      </trkpt>
      <trkpt lat="47.794" lon="-3.24753">
        <ele>55.200000762939</ele>
        <time>2014-10-05T08:50:54.000Z</time>
      </trkpt>
      <trkpt lat="47.79401" lon="-3.24768">
        <ele>54.799999237061</ele>
        <time>2014-10-05T08:51:01.000Z</time>
      </trkpt>
      <trkpt lat="47.794" lon="-3.24782">
        <ele>54.599998474121</ele>
        <time>2014-10-05T08:51:07.000Z</time>
      </trkpt>
      <trkpt lat="47.794" lon="-3.24784">
        <ele>54.400001525879</ele>
        <time>2014-10-05T08:51:08.000Z</time>
      </trkpt>
      <trkpt lat="47.794" lon="-3.2479">
        <ele>54.200000762939</ele>
        <time>2014-10-05T08:51:11.000Z</time>
      </trkpt>
      <trkpt lat="47.79399" lon="-3.24804">
        <ele>53.799999237061</ele>
        <time>2014-10-05T08:51:18.000Z</time>
      </trkpt>
      <trkpt lat="47.794" lon="-3.24809">
        <ele>53.599998474121</ele>
        <time>2014-10-05T08:51:20.000Z</time>
      </trkpt>
      <trkpt lat="47.79401" lon="-3.24812">
        <ele>53.400001525879</ele>
        <time>2014-10-05T08:51:22.000Z</time>
      </trkpt>
      <trkpt lat="47.79402" lon="-3.24824">
        <ele>53</ele>
        <time>2014-10-05T08:51:27.000Z</time>
      </trkpt>
      <trkpt lat="47.79402" lon="-3.24833">
        <ele>52.799999237061</ele>
        <time>2014-10-05T08:51:32.000Z</time>
      </trkpt>
      <trkpt lat="47.79402" lon="-3.24848">
        <ele>52.200000762939</ele>
        <time>2014-10-05T08:51:39.000Z</time>
      </trkpt>
      <trkpt lat="47.79402" lon="-3.24862">
        <ele>51.799999237061</ele>
        <time>2014-10-05T08:51:45.000Z</time>
      </trkpt>
      <trkpt lat="47.79402" lon="-3.24864">
        <ele>51.599998474121</ele>
        <time>2014-10-05T08:51:46.000Z</time>
      </trkpt>
      <trkpt lat="47.79403" lon="-3.24867">
        <ele>51.599998474121</ele>
        <time>2014-10-05T08:51:48.000Z</time>
      </trkpt>
      <trkpt lat="47.79405" lon="-3.24887">
        <ele>51.799999237061</ele>
        <time>2014-10-05T08:51:57.000Z</time>
      </trkpt>
      <trkpt lat="47.79404" lon="-3.24896">
        <ele>51.799999237061</ele>
        <time>2014-10-05T08:52:01.000Z</time>
      </trkpt>
      <trkpt lat="47.79404" lon="-3.24919">
        <ele>51.799999237061</ele>
        <time>2014-10-05T08:52:10.000Z</time>
      </trkpt>
      <trkpt lat="47.79404" lon="-3.24932">
        <ele>51.799999237061</ele>
        <time>2014-10-05T08:52:15.000Z</time>
      </trkpt>
      <trkpt lat="47.79405" lon="-3.24942">
        <ele>52.400001525879</ele>
        <time>2014-10-05T08:52:19.000Z</time>
      </trkpt>
      <trkpt lat="47.79407" lon="-3.24952">
        <ele>53.400001525879</ele>
        <time>2014-10-05T08:52:24.000Z</time>
      </trkpt>
      <trkpt lat="47.79408" lon="-3.24957">
        <ele>53.799999237061</ele>
        <time>2014-10-05T08:52:27.000Z</time>
      </trkpt>
      <trkpt lat="47.7941" lon="-3.24969">
        <ele>55.200000762939</ele>
        <time>2014-10-05T08:52:33.000Z</time>
      </trkpt>
      <trkpt lat="47.79412" lon="-3.24979">
        <ele>56.200000762939</ele>
        <time>2014-10-05T08:52:39.000Z</time>
      </trkpt>
      <trkpt lat="47.79411" lon="-3.24982">
        <ele>56.400001525879</ele>
        <time>2014-10-05T08:52:41.000Z</time>
      </trkpt>
      <trkpt lat="47.79413" lon="-3.24999">
        <ele>58</ele>
        <time>2014-10-05T08:52:49.000Z</time>
      </trkpt>
      <trkpt lat="47.79413" lon="-3.25002">
        <ele>58.200000762939</ele>
        <time>2014-10-05T08:52:50.000Z</time>
      </trkpt>
      <trkpt lat="47.79412" lon="-3.25022">
        <ele>59.200000762939</ele>
        <time>2014-10-05T08:52:58.000Z</time>
      </trkpt>
      <trkpt lat="47.79412" lon="-3.25038">
        <ele>59.400001525879</ele>
        <time>2014-10-05T08:53:06.000Z</time>
      </trkpt>
      <trkpt lat="47.79412" lon="-3.2504">
        <ele>59.200000762939</ele>
        <time>2014-10-05T08:53:07.000Z</time>
      </trkpt>
      <trkpt lat="47.79413" lon="-3.25057">
        <ele>59.599998474121</ele>
        <time>2014-10-05T08:53:15.000Z</time>
      </trkpt>
      <trkpt lat="47.79413" lon="-3.25058">
        <ele>59.599998474121</ele>
        <time>2014-10-05T08:53:16.000Z</time>
      </trkpt>
      <trkpt lat="47.79412" lon="-3.25068">
        <ele>59.599998474121</ele>
        <time>2014-10-05T08:53:21.000Z</time>
      </trkpt>
      <trkpt lat="47.79414" lon="-3.25079">
        <ele>60</ele>
        <time>2014-10-05T08:53:28.000Z</time>
      </trkpt>
      <trkpt lat="47.7942" lon="-3.25084">
        <ele>60.599998474121</ele>
        <time>2014-10-05T08:53:33.000Z</time>
      </trkpt>
      <trkpt lat="47.79431" lon="-3.25087">
        <ele>61.599998474121</ele>
        <time>2014-10-05T08:53:40.000Z</time>
      </trkpt>
      <trkpt lat="47.79432" lon="-3.25087">
        <ele>61.599998474121</ele>
        <time>2014-10-05T08:53:42.000Z</time>
      </trkpt>
      <trkpt lat="47.79443" lon="-3.25088">
        <ele>62.599998474121</ele>
        <time>2014-10-05T08:53:48.000Z</time>
      </trkpt>
      <trkpt lat="47.79453" lon="-3.25081">
        <ele>63.200000762939</ele>
        <time>2014-10-05T08:53:55.000Z</time>
      </trkpt>
      <trkpt lat="47.79459" lon="-3.25079">
        <ele>63.799999237061</ele>
        <time>2014-10-05T08:53:59.000Z</time>
      </trkpt>
      <trkpt lat="47.79463" lon="-3.25076">
        <ele>64</ele>
        <time>2014-10-05T08:54:02.000Z</time>
      </trkpt>
      <trkpt lat="47.79471" lon="-3.25071">
        <ele>64.599998474121</ele>
        <time>2014-10-05T08:54:08.000Z</time>
      </trkpt>
      <trkpt lat="47.79478" lon="-3.25068">
        <ele>65</ele>
        <time>2014-10-05T08:54:14.000Z</time>
      </trkpt>
      <trkpt lat="47.79483" lon="-3.25068">
        <ele>65.599998474121</ele>
        <time>2014-10-05T08:54:19.000Z</time>
      </trkpt>
      <trkpt lat="47.79494" lon="-3.25064">
        <ele>66.199996948242</ele>
        <time>2014-10-05T08:54:25.000Z</time>
      </trkpt>
      <trkpt lat="47.79503" lon="-3.25058">
        <ele>67</ele>
        <time>2014-10-05T08:54:30.000Z</time>
      </trkpt>
      <trkpt lat="47.79507" lon="-3.25056">
        <ele>67</ele>
        <time>2014-10-05T08:54:32.000Z</time>
      </trkpt>
      <trkpt lat="47.7952" lon="-3.25053">
        <ele>67.199996948242</ele>
        <time>2014-10-05T08:54:38.000Z</time>
      </trkpt>
      <trkpt lat="47.79531" lon="-3.25048">
        <ele>67.199996948242</ele>
        <time>2014-10-05T08:54:43.000Z</time>
      </trkpt>
      <trkpt lat="47.79533" lon="-3.25047">
        <ele>67.199996948242</ele>
        <time>2014-10-05T08:54:44.000Z</time>
      </trkpt>
      <trkpt lat="47.7954" lon="-3.25043">
        <ele>67.199996948242</ele>
        <time>2014-10-05T08:54:47.000Z</time>
      </trkpt>
      <trkpt lat="47.79545" lon="-3.25041">
        <ele>67.199996948242</ele>
        <time>2014-10-05T08:54:50.000Z</time>
      </trkpt>
      <trkpt lat="47.79556" lon="-3.25039">
        <ele>67.199996948242</ele>
        <time>2014-10-05T08:54:56.000Z</time>
      </trkpt>
      <trkpt lat="47.79564" lon="-3.25036">
        <ele>67.199996948242</ele>
        <time>2014-10-05T08:55:01.000Z</time>
      </trkpt>
      <trkpt lat="47.79569" lon="-3.25035">
        <ele>67.199996948242</ele>
        <time>2014-10-05T08:55:03.000Z</time>
      </trkpt>
      <trkpt lat="47.79575" lon="-3.25031">
        <ele>67.199996948242</ele>
        <time>2014-10-05T08:55:06.000Z</time>
      </trkpt>
      <trkpt lat="47.79584" lon="-3.25026">
        <ele>67</ele>
        <time>2014-10-05T08:55:11.000Z</time>
      </trkpt>
      <trkpt lat="47.79593" lon="-3.25021">
        <ele>66.599998474121</ele>
        <time>2014-10-05T08:55:15.000Z</time>
      </trkpt>
      <trkpt lat="47.79606" lon="-3.25015">
        <ele>65.800003051758</ele>
        <time>2014-10-05T08:55:21.000Z</time>
      </trkpt>
      <trkpt lat="47.79614" lon="-3.25009">
        <ele>65.199996948242</ele>
        <time>2014-10-05T08:55:26.000Z</time>
      </trkpt>
      <trkpt lat="47.79622" lon="-3.25001">
        <ele>64.800003051758</ele>
        <time>2014-10-05T08:55:30.000Z</time>
      </trkpt>
      <trkpt lat="47.79628" lon="-3.24995">
        <ele>64.400001525879</ele>
        <time>2014-10-05T08:55:35.000Z</time>
      </trkpt>
      <trkpt lat="47.79634" lon="-3.24991">
        <ele>64</ele>
        <time>2014-10-05T08:55:39.000Z</time>
      </trkpt>
      <trkpt lat="47.79641" lon="-3.2499">
        <ele>63.400001525879</ele>
        <time>2014-10-05T08:55:44.000Z</time>
      </trkpt>
      <trkpt lat="47.79648" lon="-3.24997">
        <ele>62.799999237061</ele>
        <time>2014-10-05T08:55:48.000Z</time>
      </trkpt>
      <trkpt lat="47.79655" lon="-3.25005">
        <ele>62.400001525879</ele>
        <time>2014-10-05T08:55:54.000Z</time>
      </trkpt>
      <trkpt lat="47.79659" lon="-3.25012">
        <ele>62</ele>
        <time>2014-10-05T08:55:58.000Z</time>
      </trkpt>
      <trkpt lat="47.79664" lon="-3.2502">
        <ele>61.599998474121</ele>
        <time>2014-10-05T08:56:03.000Z</time>
      </trkpt>
      <trkpt lat="47.79666" lon="-3.25023">
        <ele>61.400001525879</ele>
        <time>2014-10-05T08:56:05.000Z</time>
      </trkpt>
      <trkpt lat="47.79668" lon="-3.25024">
        <ele>61.200000762939</ele>
        <time>2014-10-05T08:56:07.000Z</time>
      </trkpt>
      <trkpt lat="47.7968" lon="-3.25025">
        <ele>61</ele>
        <time>2014-10-05T08:56:16.000Z</time>
      </trkpt>
      <trkpt lat="47.79686" lon="-3.25026">
        <ele>61</ele>
        <time>2014-10-05T08:56:21.000Z</time>
      </trkpt>
      <trkpt lat="47.79696" lon="-3.25024">
        <ele>61</ele>
        <time>2014-10-05T08:56:28.000Z</time>
      </trkpt>
      <trkpt lat="47.79704" lon="-3.25022">
        <ele>61</ele>
        <time>2014-10-05T08:56:34.000Z</time>
      </trkpt>
      <trkpt lat="47.79715" lon="-3.25021">
        <ele>61</ele>
        <time>2014-10-05T08:56:42.000Z</time>
      </trkpt>
      <trkpt lat="47.79725" lon="-3.25025">
        <ele>61</ele>
        <time>2014-10-05T08:56:49.000Z</time>
      </trkpt>
      <trkpt lat="47.79731" lon="-3.25034">
        <ele>61</ele>
        <time>2014-10-05T08:56:55.000Z</time>
      </trkpt>
      <trkpt lat="47.79738" lon="-3.25042">
        <ele>60.799999237061</ele>
        <time>2014-10-05T08:57:01.000Z</time>
      </trkpt>
      <trkpt lat="47.79741" lon="-3.25046">
        <ele>60.799999237061</ele>
        <time>2014-10-05T08:57:04.000Z</time>
      </trkpt>
      <trkpt lat="47.79742" lon="-3.25057">
        <ele>60.599998474121</ele>
        <time>2014-10-05T08:57:10.000Z</time>
      </trkpt>
      <trkpt lat="47.79742" lon="-3.25058">
        <ele>60.599998474121</ele>
        <time>2014-10-05T08:57:11.000Z</time>
      </trkpt>
      <trkpt lat="47.79747" lon="-3.25073">
        <ele>60.400001525879</ele>
        <time>2014-10-05T08:57:20.000Z</time>
      </trkpt>
      <trkpt lat="47.7975" lon="-3.2509">
        <ele>60.200000762939</ele>
        <time>2014-10-05T08:57:28.000Z</time>
      </trkpt>
      <trkpt lat="47.79751" lon="-3.25104">
        <ele>59.799999237061</ele>
        <time>2014-10-05T08:57:35.000Z</time>
      </trkpt>
      <trkpt lat="47.79753" lon="-3.25117">
        <ele>59.599998474121</ele>
        <time>2014-10-05T08:57:41.000Z</time>
      </trkpt>
      <trkpt lat="47.79754" lon="-3.25129">
        <ele>59.200000762939</ele>
        <time>2014-10-05T08:57:47.000Z</time>
      </trkpt>
      <trkpt lat="47.79755" lon="-3.2513">
        <ele>59.200000762939</ele>
        <time>2014-10-05T08:57:48.000Z</time>
      </trkpt>
      <trkpt lat="47.79764" lon="-3.25135">
        <ele>59.200000762939</ele>
        <time>2014-10-05T08:57:55.000Z</time>
      </trkpt>
      <trkpt lat="47.79766" lon="-3.25135">
        <ele>59.400001525879</ele>
        <time>2014-10-05T08:57:57.000Z</time>
      </trkpt>
      <trkpt lat="47.79769" lon="-3.25134">
        <ele>59.400001525879</ele>
        <time>2014-10-05T08:58:01.000Z</time>
      </trkpt>
      <trkpt lat="47.79775" lon="-3.25134">
        <ele>59.599998474121</ele>
        <time>2014-10-05T08:58:06.000Z</time>
      </trkpt>
      <trkpt lat="47.79782" lon="-3.25132">
        <ele>59.799999237061</ele>
        <time>2014-10-05T08:58:11.000Z</time>
      </trkpt>
      <trkpt lat="47.79786" lon="-3.2513">
        <ele>60</ele>
        <time>2014-10-05T08:58:14.000Z</time>
      </trkpt>
      <trkpt lat="47.79796" lon="-3.25128">
        <ele>60.200000762939</ele>
        <time>2014-10-05T08:58:21.000Z</time>
      </trkpt>
      <trkpt lat="47.79803" lon="-3.25125">
        <ele>60.400001525879</ele>
        <time>2014-10-05T08:58:26.000Z</time>
      </trkpt>
      <trkpt lat="47.79811" lon="-3.25119">
        <ele>60.799999237061</ele>
        <time>2014-10-05T08:58:33.000Z</time>
      </trkpt>
      <trkpt lat="47.79812" lon="-3.25117">
        <ele>60.799999237061</ele>
        <time>2014-10-05T08:58:34.000Z</time>
      </trkpt>
      <trkpt lat="47.79814" lon="-3.25113">
        <ele>61</ele>
        <time>2014-10-05T08:58:38.000Z</time>
      </trkpt>
      <trkpt lat="47.79815" lon="-3.25113">
        <ele>61</ele>
        <time>2014-10-05T08:58:41.000Z</time>
      </trkpt>
      <trkpt lat="47.79814" lon="-3.25101">
        <ele>61.200000762939</ele>
        <time>2014-10-05T08:59:11.000Z</time>
      </trkpt>
      <trkpt lat="47.79812" lon="-3.25091">
        <ele>61.400001525879</ele>
        <time>2014-10-05T08:59:15.000Z</time>
      </trkpt>
      <trkpt lat="47.79811" lon="-3.25084">
        <ele>61.400001525879</ele>
        <time>2014-10-05T08:59:19.000Z</time>
      </trkpt>
      <trkpt lat="47.7981" lon="-3.25073">
        <ele>61.599998474121</ele>
        <time>2014-10-05T08:59:26.000Z</time>
      </trkpt>
      <trkpt lat="47.79807" lon="-3.25063">
        <ele>61.599998474121</ele>
        <time>2014-10-05T08:59:33.000Z</time>
      </trkpt>
      <trkpt lat="47.79807" lon="-3.25061">
        <ele>61.599998474121</ele>
        <time>2014-10-05T08:59:34.000Z</time>
      </trkpt>
      <trkpt lat="47.79805" lon="-3.25052">
        <ele>61.799999237061</ele>
        <time>2014-10-05T08:59:40.000Z</time>
      </trkpt>
      <trkpt lat="47.79808" lon="-3.25046">
        <ele>61.799999237061</ele>
        <time>2014-10-05T08:59:49.000Z</time>
      </trkpt>
      <trkpt lat="47.79806" lon="-3.25038">
        <ele>62</ele>
        <time>2014-10-05T08:59:55.000Z</time>
      </trkpt>
      <trkpt lat="47.79806" lon="-3.25035">
        <ele>62</ele>
        <time>2014-10-05T08:59:56.000Z</time>
      </trkpt>
      <trkpt lat="47.79804" lon="-3.25019">
        <ele>62.200000762939</ele>
        <time>2014-10-05T09:00:04.000Z</time>
      </trkpt>
      <trkpt lat="47.79803" lon="-3.25013">
        <ele>62.200000762939</ele>
        <time>2014-10-05T09:00:11.000Z</time>
      </trkpt>
      <trkpt lat="47.79803" lon="-3.25013">
        <ele>62.200000762939</ele>
        <time>2014-10-05T09:00:12.000Z</time>
      </trkpt>
      <trkpt lat="47.79803" lon="-3.25001">
        <ele>61.799999237061</ele>
        <time>2014-10-05T09:00:45.000Z</time>
      </trkpt>
      <trkpt lat="47.79801" lon="-3.24987">
        <ele>61.200000762939</ele>
        <time>2014-10-05T09:00:51.000Z</time>
      </trkpt>
      <trkpt lat="47.79799" lon="-3.2497">
        <ele>60.599998474121</ele>
        <time>2014-10-05T09:00:59.000Z</time>
      </trkpt>
      <trkpt lat="47.79798" lon="-3.24968">
        <ele>60.400001525879</ele>
        <time>2014-10-05T09:01:00.000Z</time>
      </trkpt>
      <trkpt lat="47.79796" lon="-3.24958">
        <ele>60.599998474121</ele>
        <time>2014-10-05T09:01:06.000Z</time>
      </trkpt>
      <trkpt lat="47.79795" lon="-3.24949">
        <ele>60.799999237061</ele>
        <time>2014-10-05T09:01:11.000Z</time>
      </trkpt>
      <trkpt lat="47.79795" lon="-3.24939">
        <ele>61</ele>
        <time>2014-10-05T09:01:17.000Z</time>
      </trkpt>
      <trkpt lat="47.79794" lon="-3.24936">
        <ele>61</ele>
        <time>2014-10-05T09:01:20.000Z</time>
      </trkpt>
      <trkpt lat="47.79794" lon="-3.24931">
        <ele>61</ele>
        <time>2014-10-05T09:01:23.000Z</time>
      </trkpt>
      <trkpt lat="47.7979" lon="-3.24919">
        <ele>61.200000762939</ele>
        <time>2014-10-05T09:01:30.000Z</time>
      </trkpt>
      <trkpt lat="47.79787" lon="-3.24905">
        <ele>61.599998474121</ele>
        <time>2014-10-05T09:01:37.000Z</time>
      </trkpt>
      <trkpt lat="47.79784" lon="-3.24892">
        <ele>61.799999237061</ele>
        <time>2014-10-05T09:01:43.000Z</time>
      </trkpt>
      <trkpt lat="47.79783" lon="-3.24883">
        <ele>61.799999237061</ele>
        <time>2014-10-05T09:01:47.000Z</time>
      </trkpt>
      <trkpt lat="47.79783" lon="-3.24881">
        <ele>62</ele>
        <time>2014-10-05T09:01:48.000Z</time>
      </trkpt>
      <trkpt lat="47.79782" lon="-3.24871">
        <ele>62</ele>
        <time>2014-10-05T09:01:53.000Z</time>
      </trkpt>
      <trkpt lat="47.79781" lon="-3.24867">
        <ele>62.200000762939</ele>
        <time>2014-10-05T09:01:56.000Z</time>
      </trkpt>
      <trkpt lat="47.79781" lon="-3.24856">
        <ele>62.200000762939</ele>
        <time>2014-10-05T09:02:02.000Z</time>
      </trkpt>
      <trkpt lat="47.79779" lon="-3.24848">
        <ele>62.400001525879</ele>
        <time>2014-10-05T09:02:06.000Z</time>
      </trkpt>
      <trkpt lat="47.79777" lon="-3.24832">
        <ele>62.599998474121</ele>
        <time>2014-10-05T09:02:13.000Z</time>
      </trkpt>
      <trkpt lat="47.79776" lon="-3.24813">
        <ele>62.799999237061</ele>
        <time>2014-10-05T09:02:21.000Z</time>
      </trkpt>
      <trkpt lat="47.79775" lon="-3.24808">
        <ele>63</ele>
        <time>2014-10-05T09:02:24.000Z</time>
      </trkpt>
      <trkpt lat="47.79773" lon="-3.24797">
        <ele>63.200000762939</ele>
        <time>2014-10-05T09:02:29.000Z</time>
      </trkpt>
      <trkpt lat="47.79772" lon="-3.24781">
        <ele>63.400001525879</ele>
        <time>2014-10-05T09:02:37.000Z</time>
      </trkpt>
      <trkpt lat="47.79772" lon="-3.24767">
        <ele>63.599998474121</ele>
        <time>2014-10-05T09:02:43.000Z</time>
      </trkpt>
      <trkpt lat="47.79771" lon="-3.24761">
        <ele>63.599998474121</ele>
        <time>2014-10-05T09:02:46.000Z</time>
      </trkpt>
      <trkpt lat="47.79769" lon="-3.24751">
        <ele>64</ele>
        <time>2014-10-05T09:02:52.000Z</time>
      </trkpt>
      <trkpt lat="47.79769" lon="-3.24747">
        <ele>64.199996948242</ele>
        <time>2014-10-05T09:02:54.000Z</time>
      </trkpt>
      <trkpt lat="47.79768" lon="-3.24743">
        <ele>64.199996948242</ele>
        <time>2014-10-05T09:02:56.000Z</time>
      </trkpt>
      <trkpt lat="47.79766" lon="-3.24734">
        <ele>64.599998474121</ele>
        <time>2014-10-05T09:03:01.000Z</time>
      </trkpt>
      <trkpt lat="47.79765" lon="-3.24727">
        <ele>64.800003051758</ele>
        <time>2014-10-05T09:03:05.000Z</time>
      </trkpt>
      <trkpt lat="47.79762" lon="-3.24712">
        <ele>65.199996948242</ele>
        <time>2014-10-05T09:03:13.000Z</time>
      </trkpt>
      <trkpt lat="47.79761" lon="-3.24702">
        <ele>65.400001525879</ele>
        <time>2014-10-05T09:03:18.000Z</time>
      </trkpt>
      <trkpt lat="47.79758" lon="-3.24686">
        <ele>65.800003051758</ele>
        <time>2014-10-05T09:03:26.000Z</time>
      </trkpt>
      <trkpt lat="47.79758" lon="-3.24682">
        <ele>65.800003051758</ele>
        <time>2014-10-05T09:03:28.000Z</time>
      </trkpt>
      <trkpt lat="47.79756" lon="-3.24672">
        <ele>66</ele>
        <time>2014-10-05T09:03:33.000Z</time>
      </trkpt>
      <trkpt lat="47.79754" lon="-3.24664">
        <ele>66.199996948242</ele>
        <time>2014-10-05T09:03:37.000Z</time>
      </trkpt>
      <trkpt lat="47.79752" lon="-3.24655">
        <ele>66.199996948242</ele>
        <time>2014-10-05T09:03:42.000Z</time>
      </trkpt>
      <trkpt lat="47.7975" lon="-3.24643">
        <ele>66.400001525879</ele>
        <time>2014-10-05T09:03:47.000Z</time>
      </trkpt>
      <trkpt lat="47.7975" lon="-3.24637">
        <ele>66.400001525879</ele>
        <time>2014-10-05T09:03:50.000Z</time>
      </trkpt>
      <trkpt lat="47.79748" lon="-3.24621">
        <ele>66.599998474121</ele>
        <time>2014-10-05T09:03:57.000Z</time>
      </trkpt>
      <trkpt lat="47.79748" lon="-3.24609">
        <ele>66.800003051758</ele>
        <time>2014-10-05T09:04:03.000Z</time>
      </trkpt>
      <trkpt lat="47.79751" lon="-3.24599">
        <ele>67</ele>
        <time>2014-10-05T09:04:09.000Z</time>
      </trkpt>
      <trkpt lat="47.79752" lon="-3.24589">
        <ele>67</ele>
        <time>2014-10-05T09:04:14.000Z</time>
      </trkpt>
      <trkpt lat="47.79752" lon="-3.24587">
        <ele>67</ele>
        <time>2014-10-05T09:04:17.000Z</time>
      </trkpt>
      <trkpt lat="47.7975" lon="-3.24579">
        <ele>66.800003051758</ele>
        <time>2014-10-05T09:04:24.000Z</time>
      </trkpt>
      <trkpt lat="47.79748" lon="-3.24568">
        <ele>66.800003051758</ele>
        <time>2014-10-05T09:04:30.000Z</time>
      </trkpt>
      <trkpt lat="47.79745" lon="-3.2455">
        <ele>66.800003051758</ele>
        <time>2014-10-05T09:04:40.000Z</time>
      </trkpt>
      <trkpt lat="47.79744" lon="-3.24548">
        <ele>66.800003051758</ele>
        <time>2014-10-05T09:04:41.000Z</time>
      </trkpt>
      <trkpt lat="47.79743" lon="-3.24537">
        <ele>66.800003051758</ele>
        <time>2014-10-05T09:04:48.000Z</time>
      </trkpt>
      <trkpt lat="47.79743" lon="-3.24533">
        <ele>66.800003051758</ele>
        <time>2014-10-05T09:04:50.000Z</time>
      </trkpt>
      <trkpt lat="47.79744" lon="-3.2452">
        <ele>66.800003051758</ele>
        <time>2014-10-05T09:04:57.000Z</time>
      </trkpt>
      <trkpt lat="47.79744" lon="-3.24515">
        <ele>67</ele>
        <time>2014-10-05T09:05:00.000Z</time>
      </trkpt>
      <trkpt lat="47.79741" lon="-3.24505">
        <ele>67.199996948242</ele>
        <time>2014-10-05T09:05:08.000Z</time>
      </trkpt>
      <trkpt lat="47.79741" lon="-3.24505">
        <ele>67.199996948242</ele>
        <time>2014-10-05T09:05:09.000Z</time>
      </trkpt>
      <trkpt lat="47.79737" lon="-3.24498">
        <ele>67.400001525879</ele>
        <time>2014-10-05T09:05:36.000Z</time>
      </trkpt>
      <trkpt lat="47.7974" lon="-3.24504">
        <ele>67.199996948242</ele>
        <time>2014-10-05T09:05:39.000Z</time>
      </trkpt>
      <trkpt lat="47.79742" lon="-3.24509">
        <ele>67</ele>
        <time>2014-10-05T09:05:42.000Z</time>
      </trkpt>
      <trkpt lat="47.79752" lon="-3.24512">
        <ele>67</ele>
        <time>2014-10-05T09:05:49.000Z</time>
      </trkpt>
      <trkpt lat="47.79759" lon="-3.24512">
        <ele>67</ele>
        <time>2014-10-05T09:05:54.000Z</time>
      </trkpt>
      <trkpt lat="47.79768" lon="-3.24512">
        <ele>67.199996948242</ele>
        <time>2014-10-05T09:06:00.000Z</time>
      </trkpt>
      <trkpt lat="47.79777" lon="-3.24508">
        <ele>67.400001525879</ele>
        <time>2014-10-05T09:06:06.000Z</time>
      </trkpt>
      <trkpt lat="47.79778" lon="-3.24507">
        <ele>67.400001525879</ele>
        <time>2014-10-05T09:06:11.000Z</time>
      </trkpt>
      <trkpt lat="47.7978" lon="-3.24508">
        <ele>67.400001525879</ele>
        <time>2014-10-05T09:06:15.000Z</time>
      </trkpt>
      <trkpt lat="47.79781" lon="-3.24507">
        <ele>67.400001525879</ele>
        <time>2014-10-05T09:06:17.000Z</time>
      </trkpt>
      <trkpt lat="47.79788" lon="-3.24499">
        <ele>67.599998474121</ele>
        <time>2014-10-05T09:06:32.000Z</time>
      </trkpt>
      <trkpt lat="47.79793" lon="-3.24489">
        <ele>67.800003051758</ele>
        <time>2014-10-05T09:06:38.000Z</time>
      </trkpt>
      <trkpt lat="47.79793" lon="-3.24489">
        <ele>67.800003051758</ele>
        <time>2014-10-05T09:06:39.000Z</time>
      </trkpt>
      <trkpt lat="47.79785" lon="-3.24501">
        <ele>67.400001525879</ele>
        <time>2014-10-05T09:08:04.000Z</time>
      </trkpt>
      <trkpt lat="47.79781" lon="-3.24504">
        <ele>67.400001525879</ele>
        <time>2014-10-05T09:08:07.000Z</time>
      </trkpt>
      <trkpt lat="47.79777" lon="-3.24505">
        <ele>67.400001525879</ele>
        <time>2014-10-05T09:08:10.000Z</time>
      </trkpt>
      <trkpt lat="47.7977" lon="-3.24509">
        <ele>67.199996948242</ele>
        <time>2014-10-05T09:08:16.000Z</time>
      </trkpt>
      <trkpt lat="47.79765" lon="-3.24509">
        <ele>67.199996948242</ele>
        <time>2014-10-05T09:08:21.000Z</time>
      </trkpt>
      <trkpt lat="47.7976" lon="-3.24511">
        <ele>67</ele>
        <time>2014-10-05T09:08:28.000Z</time>
      </trkpt>
      <trkpt lat="47.79754" lon="-3.24512">
        <ele>67</ele>
        <time>2014-10-05T09:08:36.000Z</time>
      </trkpt>
      <trkpt lat="47.79751" lon="-3.24513">
        <ele>67</ele>
        <time>2014-10-05T09:08:37.000Z</time>
      </trkpt>
      <trkpt lat="47.79746" lon="-3.24509">
        <ele>67</ele>
        <time>2014-10-05T09:08:43.000Z</time>
      </trkpt>
      <trkpt lat="47.7974" lon="-3.24507">
        <ele>67.199996948242</ele>
        <time>2014-10-05T09:08:49.000Z</time>
      </trkpt>
      <trkpt lat="47.79737" lon="-3.24502">
        <ele>67.199996948242</ele>
        <time>2014-10-05T09:08:55.000Z</time>
      </trkpt>
      <trkpt lat="47.79736" lon="-3.24491">
        <ele>67.599998474121</ele>
        <time>2014-10-05T09:09:20.000Z</time>
      </trkpt>
      <trkpt lat="47.79735" lon="-3.24483">
        <ele>67.800003051758</ele>
        <time>2014-10-05T09:09:23.000Z</time>
      </trkpt>
      <trkpt lat="47.79735" lon="-3.24477">
        <ele>67.800003051758</ele>
        <time>2014-10-05T09:09:27.000Z</time>
      </trkpt>
      <trkpt lat="47.79734" lon="-3.24475">
        <ele>68</ele>
        <time>2014-10-05T09:09:29.000Z</time>
      </trkpt>
      <trkpt lat="47.79734" lon="-3.24465">
        <ele>68.199996948242</ele>
        <time>2014-10-05T09:09:35.000Z</time>
      </trkpt>
      <trkpt lat="47.79732" lon="-3.24453">
        <ele>68.400001525879</ele>
        <time>2014-10-05T09:09:42.000Z</time>
      </trkpt>
      <trkpt lat="47.79733" lon="-3.24444">
        <ele>68.599998474121</ele>
        <time>2014-10-05T09:09:48.000Z</time>
      </trkpt>
      <trkpt lat="47.79733" lon="-3.2444">
        <ele>68.800003051758</ele>
        <time>2014-10-05T09:09:50.000Z</time>
      </trkpt>
      <trkpt lat="47.7973" lon="-3.24426">
        <ele>69</ele>
        <time>2014-10-05T09:09:57.000Z</time>
      </trkpt>
      <trkpt lat="47.79729" lon="-3.24422">
        <ele>69.199996948242</ele>
        <time>2014-10-05T09:09:59.000Z</time>
      </trkpt>
      <trkpt lat="47.79729" lon="-3.24411">
        <ele>69.400001525879</ele>
        <time>2014-10-05T09:10:05.000Z</time>
      </trkpt>
      <trkpt lat="47.79728" lon="-3.24403">
        <ele>69.599998474121</ele>
        <time>2014-10-05T09:10:09.000Z</time>
      </trkpt>
      <trkpt lat="47.79727" lon="-3.24393">
        <ele>69.800003051758</ele>
        <time>2014-10-05T09:10:14.000Z</time>
      </trkpt>
      <trkpt lat="47.79726" lon="-3.24382">
        <ele>70.199996948242</ele>
        <time>2014-10-05T09:10:20.000Z</time>
      </trkpt>
      <trkpt lat="47.79727" lon="-3.2438">
        <ele>70.199996948242</ele>
        <time>2014-10-05T09:10:21.000Z</time>
      </trkpt>
      <trkpt lat="47.79726" lon="-3.24373">
        <ele>70.400001525879</ele>
        <time>2014-10-05T09:10:25.000Z</time>
      </trkpt>
      <trkpt lat="47.79728" lon="-3.24363">
        <ele>70.400001525879</ele>
        <time>2014-10-05T09:10:31.000Z</time>
      </trkpt>
      <trkpt lat="47.79729" lon="-3.24357">
        <ele>70.400001525879</ele>
        <time>2014-10-05T09:10:35.000Z</time>
      </trkpt>
      <trkpt lat="47.79729" lon="-3.2435">
        <ele>70.400001525879</ele>
        <time>2014-10-05T09:10:39.000Z</time>
      </trkpt>
      <trkpt lat="47.79728" lon="-3.24348">
        <ele>70.400001525879</ele>
        <time>2014-10-05T09:10:41.000Z</time>
      </trkpt>
      <trkpt lat="47.79728" lon="-3.24346">
        <ele>70.400001525879</ele>
        <time>2014-10-05T09:10:45.000Z</time>
      </trkpt>
      <trkpt lat="47.79733" lon="-3.24352">
        <ele>70.400001525879</ele>
        <time>2014-10-05T09:13:23.000Z</time>
      </trkpt>
      <trkpt lat="47.79742" lon="-3.24354">
        <ele>70.599998474121</ele>
        <time>2014-10-05T09:13:29.000Z</time>
      </trkpt>
      <trkpt lat="47.7975" lon="-3.24353">
        <ele>70.800003051758</ele>
        <time>2014-10-05T09:13:35.000Z</time>
      </trkpt>
      <trkpt lat="47.79759" lon="-3.2435">
        <ele>71</ele>
        <time>2014-10-05T09:13:43.000Z</time>
      </trkpt>
      <trkpt lat="47.79766" lon="-3.24347">
        <ele>71.199996948242</ele>
        <time>2014-10-05T09:13:48.000Z</time>
      </trkpt>
      <trkpt lat="47.79771" lon="-3.24341">
        <ele>71.199996948242</ele>
        <time>2014-10-05T09:13:53.000Z</time>
      </trkpt>
      <trkpt lat="47.79771" lon="-3.2434">
        <ele>71.199996948242</ele>
        <time>2014-10-05T09:13:56.000Z</time>
      </trkpt>
      <trkpt lat="47.79784" lon="-3.24334">
        <ele>71.199996948242</ele>
        <time>2014-10-05T09:14:45.000Z</time>
      </trkpt>
      <trkpt lat="47.79791" lon="-3.24332">
        <ele>71.199996948242</ele>
        <time>2014-10-05T09:14:49.000Z</time>
      </trkpt>
      <trkpt lat="47.79798" lon="-3.24326">
        <ele>71.199996948242</ele>
        <time>2014-10-05T09:14:55.000Z</time>
      </trkpt>
      <trkpt lat="47.79801" lon="-3.24325">
        <ele>71.199996948242</ele>
        <time>2014-10-05T09:14:57.000Z</time>
      </trkpt>
      <trkpt lat="47.79802" lon="-3.24325">
        <ele>71.400001525879</ele>
        <time>2014-10-05T09:14:59.000Z</time>
      </trkpt>
      <trkpt lat="47.79803" lon="-3.24325">
        <ele>71.400001525879</ele>
        <time>2014-10-05T09:15:02.000Z</time>
      </trkpt>
      <trkpt lat="47.79806" lon="-3.24316">
        <ele>71.199996948242</ele>
        <time>2014-10-05T09:15:19.000Z</time>
      </trkpt>
      <trkpt lat="47.79811" lon="-3.24311">
        <ele>71.199996948242</ele>
        <time>2014-10-05T09:15:22.000Z</time>
      </trkpt>
      <trkpt lat="47.79815" lon="-3.24305">
        <ele>71.199996948242</ele>
        <time>2014-10-05T09:15:27.000Z</time>
      </trkpt>
      <trkpt lat="47.79817" lon="-3.24303">
        <ele>71.199996948242</ele>
        <time>2014-10-05T09:15:29.000Z</time>
      </trkpt>
      <trkpt lat="47.79824" lon="-3.24299">
        <ele>71.199996948242</ele>
        <time>2014-10-05T09:15:34.000Z</time>
      </trkpt>
      <trkpt lat="47.79835" lon="-3.24292">
        <ele>71.400001525879</ele>
        <time>2014-10-05T09:15:42.000Z</time>
      </trkpt>
      <trkpt lat="47.79841" lon="-3.24287">
        <ele>71.199996948242</ele>
        <time>2014-10-05T09:15:46.000Z</time>
      </trkpt>
      <trkpt lat="47.7985" lon="-3.24277">
        <ele>70.400001525879</ele>
        <time>2014-10-05T09:15:53.000Z</time>
      </trkpt>
      <trkpt lat="47.79853" lon="-3.24273">
        <ele>70</ele>
        <time>2014-10-05T09:15:55.000Z</time>
      </trkpt>
      <trkpt lat="47.7986" lon="-3.24265">
        <ele>69.400001525879</ele>
        <time>2014-10-05T09:16:02.000Z</time>
      </trkpt>
      <trkpt lat="47.79861" lon="-3.24263">
        <ele>69.400001525879</ele>
        <time>2014-10-05T09:16:04.000Z</time>
      </trkpt>
      <trkpt lat="47.79869" lon="-3.24254">
        <ele>68.599998474121</ele>
        <time>2014-10-05T09:16:09.000Z</time>
      </trkpt>
      <trkpt lat="47.79872" lon="-3.24251">
        <ele>68.400001525879</ele>
        <time>2014-10-05T09:16:12.000Z</time>
      </trkpt>
      <trkpt lat="47.79879" lon="-3.24242">
        <ele>67.599998474121</ele>
        <time>2014-10-05T09:16:19.000Z</time>
      </trkpt>
      <trkpt lat="47.79885" lon="-3.24236">
        <ele>67</ele>
        <time>2014-10-05T09:16:23.000Z</time>
      </trkpt>
      <trkpt lat="47.79887" lon="-3.24235">
        <ele>66.800003051758</ele>
        <time>2014-10-05T09:16:24.000Z</time>
      </trkpt>
      <trkpt lat="47.79889" lon="-3.24232">
        <ele>66.599998474121</ele>
        <time>2014-10-05T09:16:26.000Z</time>
      </trkpt>
      <trkpt lat="47.79897" lon="-3.24225">
        <ele>65.800003051758</ele>
        <time>2014-10-05T09:16:32.000Z</time>
      </trkpt>
      <trkpt lat="47.79899" lon="-3.24223">
        <ele>65.800003051758</ele>
        <time>2014-10-05T09:16:33.000Z</time>
      </trkpt>
      <trkpt lat="47.79908" lon="-3.24215">
        <ele>64.800003051758</ele>
        <time>2014-10-05T09:16:40.000Z</time>
      </trkpt>
      <trkpt lat="47.79912" lon="-3.24211">
        <ele>64.400001525879</ele>
        <time>2014-10-05T09:16:44.000Z</time>
      </trkpt>
      <trkpt lat="47.79918" lon="-3.24207">
        <ele>64</ele>
        <time>2014-10-05T09:16:47.000Z</time>
      </trkpt>
      <trkpt lat="47.79925" lon="-3.242">
        <ele>63.400001525879</ele>
        <time>2014-10-05T09:16:53.000Z</time>
      </trkpt>
      <trkpt lat="47.79929" lon="-3.24197">
        <ele>63.200000762939</ele>
        <time>2014-10-05T09:16:56.000Z</time>
      </trkpt>
      <trkpt lat="47.79935" lon="-3.24194">
        <ele>62.799999237061</ele>
        <time>2014-10-05T09:17:00.000Z</time>
      </trkpt>
      <trkpt lat="47.79938" lon="-3.24193">
        <ele>62.799999237061</ele>
        <time>2014-10-05T09:17:02.000Z</time>
      </trkpt>
      <trkpt lat="47.79945" lon="-3.24187">
        <ele>62.400001525879</ele>
        <time>2014-10-05T09:17:07.000Z</time>
      </trkpt>
      <trkpt lat="47.79946" lon="-3.24186">
        <ele>62.200000762939</ele>
        <time>2014-10-05T09:17:08.000Z</time>
      </trkpt>
      <trkpt lat="47.79957" lon="-3.24177">
        <ele>61.799999237061</ele>
        <time>2014-10-05T09:17:16.000Z</time>
      </trkpt>
      <trkpt lat="47.79967" lon="-3.24166">
        <ele>61.599998474121</ele>
        <time>2014-10-05T09:17:24.000Z</time>
      </trkpt>
      <trkpt lat="47.79977" lon="-3.24155">
        <ele>61.200000762939</ele>
        <time>2014-10-05T09:17:31.000Z</time>
      </trkpt>
      <trkpt lat="47.79977" lon="-3.24153">
        <ele>61.400001525879</ele>
        <time>2014-10-05T09:17:35.000Z</time>
      </trkpt>
      <trkpt lat="47.80759" lon="-3.23633">
        <ele>64</ele>
        <time>2014-10-05T09:32:05.000Z</time>
      </trkpt>
      <trkpt lat="47.80764" lon="-3.2363">
        <ele>63.799999237061</ele>
        <time>2014-10-05T09:32:07.000Z</time>
      </trkpt>
      <trkpt lat="47.80769" lon="-3.23627">
        <ele>63.799999237061</ele>
        <time>2014-10-05T09:32:11.000Z</time>
      </trkpt>
      <trkpt lat="47.80767" lon="-3.23623">
        <ele>63.799999237061</ele>
        <time>2014-10-05T09:32:18.000Z</time>
      </trkpt>
      <trkpt lat="47.80767" lon="-3.23622">
        <ele>63.799999237061</ele>
        <time>2014-10-05T09:32:22.000Z</time>
      </trkpt>
      <trkpt lat="47.80791" lon="-3.23595">
        <ele>63.599998474121</ele>
        <time>2014-10-05T09:33:11.000Z</time>
      </trkpt>
      <trkpt lat="47.808" lon="-3.23587">
        <ele>63.400001525879</ele>
        <time>2014-10-05T09:33:18.000Z</time>
      </trkpt>
      <trkpt lat="47.80808" lon="-3.23578">
        <ele>63.200000762939</ele>
        <time>2014-10-05T09:33:26.000Z</time>
      </trkpt>
      <trkpt lat="47.80809" lon="-3.23577">
        <ele>63.200000762939</ele>
        <time>2014-10-05T09:33:27.000Z</time>
      </trkpt>
      <trkpt lat="47.8081" lon="-3.23574">
        <ele>63</ele>
        <time>2014-10-05T09:33:30.000Z</time>
      </trkpt>
      <trkpt lat="47.80816" lon="-3.23568">
        <ele>63</ele>
        <time>2014-10-05T09:33:36.000Z</time>
      </trkpt>
      <trkpt lat="47.8082" lon="-3.23562">
        <ele>62.799999237061</ele>
        <time>2014-10-05T09:33:40.000Z</time>
      </trkpt>
      <trkpt lat="47.80821" lon="-3.23561">
        <ele>62.799999237061</ele>
        <time>2014-10-05T09:33:41.000Z</time>
      </trkpt>
      <trkpt lat="47.8083" lon="-3.23553">
        <ele>62.599998474121</ele>
        <time>2014-10-05T09:33:49.000Z</time>
      </trkpt>
      <trkpt lat="47.80839" lon="-3.23543">
        <ele>62.400001525879</ele>
        <time>2014-10-05T09:33:57.000Z</time>
      </trkpt>
      <trkpt lat="47.80846" lon="-3.23532">
        <ele>62.599998474121</ele>
        <time>2014-10-05T09:34:05.000Z</time>
      </trkpt>
      <trkpt lat="47.80852" lon="-3.23525">
        <ele>62.599998474121</ele>
        <time>2014-10-05T09:34:11.000Z</time>
      </trkpt>
      <trkpt lat="47.8086" lon="-3.23513">
        <ele>62.799999237061</ele>
        <time>2014-10-05T09:34:19.000Z</time>
      </trkpt>
      <trkpt lat="47.80864" lon="-3.235">
        <ele>63.200000762939</ele>
        <time>2014-10-05T09:34:26.000Z</time>
      </trkpt>
      <trkpt lat="47.80865" lon="-3.23491">
        <ele>63.400001525879</ele>
        <time>2014-10-05T09:34:31.000Z</time>
      </trkpt>
      <trkpt lat="47.80865" lon="-3.23491">
        <ele>63.400001525879</ele>
        <time>2014-10-05T09:34:33.000Z</time>
      </trkpt>
      <trkpt lat="47.8086" lon="-3.23482">
        <ele>63.400001525879</ele>
        <time>2014-10-05T09:34:46.000Z</time>
      </trkpt>
      <trkpt lat="47.80859" lon="-3.23472">
        <ele>63.200000762939</ele>
        <time>2014-10-05T09:34:51.000Z</time>
      </trkpt>
      <trkpt lat="47.80859" lon="-3.2347">
        <ele>63.200000762939</ele>
        <time>2014-10-05T09:34:54.000Z</time>
      </trkpt>
      <trkpt lat="47.80854" lon="-3.23461">
        <ele>63</ele>
        <time>2014-10-05T09:35:30.000Z</time>
      </trkpt>
      <trkpt lat="47.80852" lon="-3.23455">
        <ele>62.799999237061</ele>
        <time>2014-10-05T09:35:33.000Z</time>
      </trkpt>
      <trkpt lat="47.80849" lon="-3.23445">
        <ele>62.599998474121</ele>
        <time>2014-10-05T09:35:39.000Z</time>
      </trkpt>
      <trkpt lat="47.80849" lon="-3.23438">
        <ele>62.599998474121</ele>
        <time>2014-10-05T09:35:43.000Z</time>
      </trkpt>
      <trkpt lat="47.80848" lon="-3.23434">
        <ele>62.599998474121</ele>
        <time>2014-10-05T09:35:45.000Z</time>
      </trkpt>
      <trkpt lat="47.80845" lon="-3.23426">
        <ele>62.400001525879</ele>
        <time>2014-10-05T09:35:49.000Z</time>
      </trkpt>
      <trkpt lat="47.80844" lon="-3.2342">
        <ele>62.200000762939</ele>
        <time>2014-10-05T09:35:52.000Z</time>
      </trkpt>
      <trkpt lat="47.80838" lon="-3.23405">
        <ele>62</ele>
        <time>2014-10-05T09:35:59.000Z</time>
      </trkpt>
      <trkpt lat="47.80837" lon="-3.23398">
        <ele>62</ele>
        <time>2014-10-05T09:36:05.000Z</time>
      </trkpt>
      <trkpt lat="47.80837" lon="-3.23397">
        <ele>62</ele>
        <time>2014-10-05T09:36:06.000Z</time>
      </trkpt>
      <trkpt lat="47.80832" lon="-3.23391">
        <ele>61.799999237061</ele>
        <time>2014-10-05T09:36:15.000Z</time>
      </trkpt>
      <trkpt lat="47.8083" lon="-3.23385">
        <ele>61.799999237061</ele>
        <time>2014-10-05T09:36:17.000Z</time>
      </trkpt>
      <trkpt lat="47.80826" lon="-3.23376">
        <ele>61.799999237061</ele>
        <time>2014-10-05T09:36:23.000Z</time>
      </trkpt>
      <trkpt lat="47.80823" lon="-3.23364">
        <ele>61.599998474121</ele>
        <time>2014-10-05T09:36:29.000Z</time>
      </trkpt>
      <trkpt lat="47.80817" lon="-3.23352">
        <ele>61.599998474121</ele>
        <time>2014-10-05T09:36:34.000Z</time>
      </trkpt>
      <trkpt lat="47.80812" lon="-3.23339">
        <ele>61.799999237061</ele>
        <time>2014-10-05T09:36:40.000Z</time>
      </trkpt>
      <trkpt lat="47.8081" lon="-3.23334">
        <ele>62</ele>
        <time>2014-10-05T09:36:43.000Z</time>
      </trkpt>
      <trkpt lat="47.80808" lon="-3.23326">
        <ele>62.200000762939</ele>
        <time>2014-10-05T09:36:47.000Z</time>
      </trkpt>
      <trkpt lat="47.80804" lon="-3.23313">
        <ele>62.400001525879</ele>
        <time>2014-10-05T09:36:54.000Z</time>
      </trkpt>
      <trkpt lat="47.80802" lon="-3.23308">
        <ele>62.400001525879</ele>
        <time>2014-10-05T09:36:57.000Z</time>
      </trkpt>
      <trkpt lat="47.80804" lon="-3.23304">
        <ele>62.599998474121</ele>
        <time>2014-10-05T09:37:02.000Z</time>
      </trkpt>
      <trkpt lat="47.80798" lon="-3.23299">
        <ele>62.799999237061</ele>
        <time>2014-10-05T09:37:12.000Z</time>
      </trkpt>
      <trkpt lat="47.80794" lon="-3.23289">
        <ele>63.200000762939</ele>
        <time>2014-10-05T09:37:17.000Z</time>
      </trkpt>
      <trkpt lat="47.80789" lon="-3.2328">
        <ele>63.799999237061</ele>
        <time>2014-10-05T09:37:25.000Z</time>
      </trkpt>
      <trkpt lat="47.80784" lon="-3.23267">
        <ele>64.400001525879</ele>
        <time>2014-10-05T09:37:37.000Z</time>
      </trkpt>
      <trkpt lat="47.80779" lon="-3.23255">
        <ele>64.800003051758</ele>
        <time>2014-10-05T09:37:44.000Z</time>
      </trkpt>
      <trkpt lat="47.80773" lon="-3.23244">
        <ele>65.199996948242</ele>
        <time>2014-10-05T09:37:51.000Z</time>
      </trkpt>
      <trkpt lat="47.80774" lon="-3.23244">
        <ele>65.199996948242</ele>
        <time>2014-10-05T09:37:53.000Z</time>
      </trkpt>
      <trkpt lat="47.80771" lon="-3.23237">
        <ele>65.199996948242</ele>
        <time>2014-10-05T09:38:00.000Z</time>
      </trkpt>
      <trkpt lat="47.80764" lon="-3.23225">
        <ele>65.400001525879</ele>
        <time>2014-10-05T09:38:06.000Z</time>
      </trkpt>
      <trkpt lat="47.8076" lon="-3.23217">
        <ele>65.599998474121</ele>
        <time>2014-10-05T09:38:11.000Z</time>
      </trkpt>
      <trkpt lat="47.80757" lon="-3.23211">
        <ele>65.599998474121</ele>
        <time>2014-10-05T09:38:15.000Z</time>
      </trkpt>
      <trkpt lat="47.80754" lon="-3.23203">
        <ele>65.599998474121</ele>
        <time>2014-10-05T09:38:20.000Z</time>
      </trkpt>
      <trkpt lat="47.80749" lon="-3.23193">
        <ele>65.800003051758</ele>
        <time>2014-10-05T09:38:26.000Z</time>
      </trkpt>
      <trkpt lat="47.80746" lon="-3.23183">
        <ele>65.800003051758</ele>
        <time>2014-10-05T09:38:31.000Z</time>
      </trkpt>
      <trkpt lat="47.80746" lon="-3.23181">
        <ele>66</ele>
        <time>2014-10-05T09:38:39.000Z</time>
      </trkpt>
      <trkpt lat="47.80743" lon="-3.23176">
        <ele>66</ele>
        <time>2014-10-05T09:38:48.000Z</time>
      </trkpt>
      <trkpt lat="47.80742" lon="-3.23172">
        <ele>66</ele>
        <time>2014-10-05T09:38:49.000Z</time>
      </trkpt>
      <trkpt lat="47.8074" lon="-3.23168">
        <ele>66.199996948242</ele>
        <time>2014-10-05T09:38:53.000Z</time>
      </trkpt>
      <trkpt lat="47.80735" lon="-3.2316">
        <ele>66.199996948242</ele>
        <time>2014-10-05T09:39:00.000Z</time>
      </trkpt>
      <trkpt lat="47.80726" lon="-3.23145">
        <ele>66.400001525879</ele>
        <time>2014-10-05T09:39:08.000Z</time>
      </trkpt>
      <trkpt lat="47.80724" lon="-3.2314">
        <ele>66.400001525879</ele>
        <time>2014-10-05T09:39:11.000Z</time>
      </trkpt>
      <trkpt lat="47.80721" lon="-3.23134">
        <ele>66.599998474121</ele>
        <time>2014-10-05T09:39:16.000Z</time>
      </trkpt>
      <trkpt lat="47.80716" lon="-3.23125">
        <ele>66.599998474121</ele>
        <time>2014-10-05T09:39:21.000Z</time>
      </trkpt>
      <trkpt lat="47.80708" lon="-3.2311">
        <ele>66.400001525879</ele>
        <time>2014-10-05T09:39:29.000Z</time>
      </trkpt>
      <trkpt lat="47.80703" lon="-3.23103">
        <ele>66.400001525879</ele>
        <time>2014-10-05T09:39:33.000Z</time>
      </trkpt>
      <trkpt lat="47.80697" lon="-3.23093">
        <ele>66.400001525879</ele>
        <time>2014-10-05T09:39:39.000Z</time>
      </trkpt>
      <trkpt lat="47.80689" lon="-3.23083">
        <ele>66.599998474121</ele>
        <time>2014-10-05T09:39:46.000Z</time>
      </trkpt>
      <trkpt lat="47.80681" lon="-3.23069">
        <ele>66.800003051758</ele>
        <time>2014-10-05T09:39:55.000Z</time>
      </trkpt>
      <trkpt lat="47.80674" lon="-3.23061">
        <ele>66.800003051758</ele>
        <time>2014-10-05T09:40:01.000Z</time>
      </trkpt>
      <trkpt lat="47.80666" lon="-3.23052">
        <ele>66.800003051758</ele>
        <time>2014-10-05T09:40:07.000Z</time>
      </trkpt>
      <trkpt lat="47.80661" lon="-3.23046">
        <ele>66.800003051758</ele>
        <time>2014-10-05T09:40:11.000Z</time>
      </trkpt>
      <trkpt lat="47.80657" lon="-3.23039">
        <ele>66.800003051758</ele>
        <time>2014-10-05T09:40:15.000Z</time>
      </trkpt>
      <trkpt lat="47.80652" lon="-3.23027">
        <ele>67</ele>
        <time>2014-10-05T09:40:22.000Z</time>
      </trkpt>
      <trkpt lat="47.80649" lon="-3.23019">
        <ele>67.199996948242</ele>
        <time>2014-10-05T09:40:26.000Z</time>
      </trkpt>
      <trkpt lat="47.80646" lon="-3.23012">
        <ele>67.400001525879</ele>
        <time>2014-10-05T09:40:30.000Z</time>
      </trkpt>
      <trkpt lat="47.8064" lon="-3.23002">
        <ele>67.599998474121</ele>
        <time>2014-10-05T09:40:35.000Z</time>
      </trkpt>
      <trkpt lat="47.80636" lon="-3.22992">
        <ele>67.800003051758</ele>
        <time>2014-10-05T09:40:41.000Z</time>
      </trkpt>
      <trkpt lat="47.80634" lon="-3.22988">
        <ele>68</ele>
        <time>2014-10-05T09:40:43.000Z</time>
      </trkpt>
      <trkpt lat="47.80626" lon="-3.22978">
        <ele>68.199996948242</ele>
        <time>2014-10-05T09:40:49.000Z</time>
      </trkpt>
      <trkpt lat="47.80619" lon="-3.2297">
        <ele>68.400001525879</ele>
        <time>2014-10-05T09:40:56.000Z</time>
      </trkpt>
      <trkpt lat="47.80617" lon="-3.22966">
        <ele>68.599998474121</ele>
        <time>2014-10-05T09:40:58.000Z</time>
      </trkpt>
      <trkpt lat="47.80608" lon="-3.22952">
        <ele>69.199996948242</ele>
        <time>2014-10-05T09:41:06.000Z</time>
      </trkpt>
      <trkpt lat="47.80604" lon="-3.22948">
        <ele>69.199996948242</ele>
        <time>2014-10-05T09:41:09.000Z</time>
      </trkpt>
      <trkpt lat="47.80602" lon="-3.22947">
        <ele>69.199996948242</ele>
        <time>2014-10-05T09:41:13.000Z</time>
      </trkpt>
      <trkpt lat="47.80585" lon="-3.22938">
        <ele>69.400001525879</ele>
        <time>2014-10-05T09:41:58.000Z</time>
      </trkpt>
      <trkpt lat="47.80577" lon="-3.22929">
        <ele>69.199996948242</ele>
        <time>2014-10-05T09:42:04.000Z</time>
      </trkpt>
      <trkpt lat="47.80573" lon="-3.22927">
        <ele>69</ele>
        <time>2014-10-05T09:42:07.000Z</time>
      </trkpt>
      <trkpt lat="47.80567" lon="-3.22919">
        <ele>68.800003051758</ele>
        <time>2014-10-05T09:42:13.000Z</time>
      </trkpt>
      <trkpt lat="47.80565" lon="-3.22916">
        <ele>68.599998474121</ele>
        <time>2014-10-05T09:42:16.000Z</time>
      </trkpt>
      <trkpt lat="47.80558" lon="-3.22901">
        <ele>68.199996948242</ele>
        <time>2014-10-05T09:42:24.000Z</time>
      </trkpt>
      <trkpt lat="47.80551" lon="-3.22889">
        <ele>67.800003051758</ele>
        <time>2014-10-05T09:42:31.000Z</time>
      </trkpt>
      <trkpt lat="47.80548" lon="-3.22885">
        <ele>67.599998474121</ele>
        <time>2014-10-05T09:42:34.000Z</time>
      </trkpt>
      <trkpt lat="47.8054" lon="-3.22873">
        <ele>66.800003051758</ele>
        <time>2014-10-05T09:42:42.000Z</time>
      </trkpt>
      <trkpt lat="47.80535" lon="-3.22865">
        <ele>66.400001525879</ele>
        <time>2014-10-05T09:42:47.000Z</time>
      </trkpt>
      <trkpt lat="47.80532" lon="-3.22861">
        <ele>66.199996948242</ele>
        <time>2014-10-05T09:42:50.000Z</time>
      </trkpt>
      <trkpt lat="47.80528" lon="-3.22853">
        <ele>65.800003051758</ele>
        <time>2014-10-05T09:42:55.000Z</time>
      </trkpt>
      <trkpt lat="47.80524" lon="-3.22846">
        <ele>65.400001525879</ele>
        <time>2014-10-05T09:42:59.000Z</time>
      </trkpt>
      <trkpt lat="47.8052" lon="-3.22838">
        <ele>65</ele>
        <time>2014-10-05T09:43:03.000Z</time>
      </trkpt>
      <trkpt lat="47.80515" lon="-3.22827">
        <ele>64.400001525879</ele>
        <time>2014-10-05T09:43:10.000Z</time>
      </trkpt>
      <trkpt lat="47.80511" lon="-3.22818">
        <ele>63.799999237061</ele>
        <time>2014-10-05T09:43:14.000Z</time>
      </trkpt>
      <trkpt lat="47.80504" lon="-3.22809">
        <ele>63</ele>
        <time>2014-10-05T09:43:19.000Z</time>
      </trkpt>
      <trkpt lat="47.80499" lon="-3.22802">
        <ele>62.400001525879</ele>
        <time>2014-10-05T09:43:23.000Z</time>
      </trkpt>
      <trkpt lat="47.80493" lon="-3.22791">
        <ele>61.599998474121</ele>
        <time>2014-10-05T09:43:29.000Z</time>
      </trkpt>
      <trkpt lat="47.80486" lon="-3.22783">
        <ele>60.799999237061</ele>
        <time>2014-10-05T09:43:34.000Z</time>
      </trkpt>
      <trkpt lat="47.80485" lon="-3.22782">
        <ele>60.599998474121</ele>
        <time>2014-10-05T09:43:37.000Z</time>
      </trkpt>
      <trkpt lat="47.8048" lon="-3.22776">
        <ele>60</ele>
        <time>2014-10-05T09:43:46.000Z</time>
      </trkpt>
      <trkpt lat="47.80478" lon="-3.22772">
        <ele>59.799999237061</ele>
        <time>2014-10-05T09:43:47.000Z</time>
      </trkpt>
      <trkpt lat="47.80473" lon="-3.22766">
        <ele>59.400001525879</ele>
        <time>2014-10-05T09:43:51.000Z</time>
      </trkpt>
      <trkpt lat="47.8047" lon="-3.2276">
        <ele>59</ele>
        <time>2014-10-05T09:43:55.000Z</time>
      </trkpt>
      <trkpt lat="47.80467" lon="-3.22753">
        <ele>58.400001525879</ele>
        <time>2014-10-05T09:43:59.000Z</time>
      </trkpt>
      <trkpt lat="47.80463" lon="-3.22747">
        <ele>57.799999237061</ele>
        <time>2014-10-05T09:44:03.000Z</time>
      </trkpt>
      <trkpt lat="47.8046" lon="-3.22743">
        <ele>57.400001525879</ele>
        <time>2014-10-05T09:44:06.000Z</time>
      </trkpt>
      <trkpt lat="47.80458" lon="-3.22737">
        <ele>56.799999237061</ele>
        <time>2014-10-05T09:44:09.000Z</time>
      </trkpt>
      <trkpt lat="47.80451" lon="-3.22725">
        <ele>56</ele>
        <time>2014-10-05T09:44:15.000Z</time>
      </trkpt>
      <trkpt lat="47.80445" lon="-3.22715">
        <ele>55.599998474121</ele>
        <time>2014-10-05T09:44:20.000Z</time>
      </trkpt>
      <trkpt lat="47.8044" lon="-3.22709">
        <ele>55.200000762939</ele>
        <time>2014-10-05T09:44:24.000Z</time>
      </trkpt>
      <trkpt lat="47.80436" lon="-3.22701">
        <ele>55</ele>
        <time>2014-10-05T09:44:30.000Z</time>
      </trkpt>
      <trkpt lat="47.80431" lon="-3.22695">
        <ele>54.599998474121</ele>
        <time>2014-10-05T09:44:34.000Z</time>
      </trkpt>
      <trkpt lat="47.80425" lon="-3.22687">
        <ele>54.200000762939</ele>
        <time>2014-10-05T09:44:39.000Z</time>
      </trkpt>
      <trkpt lat="47.80422" lon="-3.22676">
        <ele>53.799999237061</ele>
        <time>2014-10-05T09:44:44.000Z</time>
      </trkpt>
      <trkpt lat="47.80421" lon="-3.22674">
        <ele>53.799999237061</ele>
        <time>2014-10-05T09:44:45.000Z</time>
      </trkpt>
      <trkpt lat="47.80413" lon="-3.22658">
        <ele>52.400001525879</ele>
        <time>2014-10-05T09:44:53.000Z</time>
      </trkpt>
      <trkpt lat="47.80409" lon="-3.22653">
        <ele>52</ele>
        <time>2014-10-05T09:44:56.000Z</time>
      </trkpt>
      <trkpt lat="47.80403" lon="-3.2264">
        <ele>51</ele>
        <time>2014-10-05T09:45:03.000Z</time>
      </trkpt>
      <trkpt lat="47.80402" lon="-3.22638">
        <ele>50.799999237061</ele>
        <time>2014-10-05T09:45:04.000Z</time>
      </trkpt>
      <trkpt lat="47.80399" lon="-3.22631">
        <ele>50.400001525879</ele>
        <time>2014-10-05T09:45:08.000Z</time>
      </trkpt>
      <trkpt lat="47.80394" lon="-3.22621">
        <ele>49.799999237061</ele>
        <time>2014-10-05T09:45:15.000Z</time>
      </trkpt>
      <trkpt lat="47.80388" lon="-3.22608">
        <ele>50</ele>
        <time>2014-10-05T09:45:23.000Z</time>
      </trkpt>
      <trkpt lat="47.80381" lon="-3.22599">
        <ele>50.400001525879</ele>
        <time>2014-10-05T09:45:29.000Z</time>
      </trkpt>
      <trkpt lat="47.80378" lon="-3.22595">
        <ele>50.599998474121</ele>
        <time>2014-10-05T09:45:32.000Z</time>
      </trkpt>
      <trkpt lat="47.80373" lon="-3.22587">
        <ele>50.599998474121</ele>
        <time>2014-10-05T09:45:37.000Z</time>
      </trkpt>
      <trkpt lat="47.80371" lon="-3.22581">
        <ele>50.599998474121</ele>
        <time>2014-10-05T09:45:40.000Z</time>
      </trkpt>
      <trkpt lat="47.80366" lon="-3.22572">
        <ele>50.599998474121</ele>
        <time>2014-10-05T09:45:45.000Z</time>
      </trkpt>
      <trkpt lat="47.80364" lon="-3.22569">
        <ele>50.599998474121</ele>
        <time>2014-10-05T09:45:47.000Z</time>
      </trkpt>
      <trkpt lat="47.80361" lon="-3.22562">
        <ele>50.599998474121</ele>
        <time>2014-10-05T09:45:51.000Z</time>
      </trkpt>
      <trkpt lat="47.80356" lon="-3.22555">
        <ele>50.599998474121</ele>
        <time>2014-10-05T09:45:56.000Z</time>
      </trkpt>
      <trkpt lat="47.80349" lon="-3.22544">
        <ele>50.400001525879</ele>
        <time>2014-10-05T09:46:02.000Z</time>
      </trkpt>
      <trkpt lat="47.80346" lon="-3.22536">
        <ele>50.200000762939</ele>
        <time>2014-10-05T09:46:07.000Z</time>
      </trkpt>
      <trkpt lat="47.80341" lon="-3.22529">
        <ele>50.200000762939</ele>
        <time>2014-10-05T09:46:11.000Z</time>
      </trkpt>
      <trkpt lat="47.80335" lon="-3.22516">
        <ele>50</ele>
        <time>2014-10-05T09:46:18.000Z</time>
      </trkpt>
      <trkpt lat="47.80333" lon="-3.22512">
        <ele>50</ele>
        <time>2014-10-05T09:46:20.000Z</time>
      </trkpt>
      <trkpt lat="47.80328" lon="-3.22502">
        <ele>50.200000762939</ele>
        <time>2014-10-05T09:46:25.000Z</time>
      </trkpt>
      <trkpt lat="47.80327" lon="-3.22498">
        <ele>50.400001525879</ele>
        <time>2014-10-05T09:46:27.000Z</time>
      </trkpt>
      <trkpt lat="47.80326" lon="-3.22493">
        <ele>50.400001525879</ele>
        <time>2014-10-05T09:46:29.000Z</time>
      </trkpt>
      <trkpt lat="47.80325" lon="-3.22478">
        <ele>50.799999237061</ele>
        <time>2014-10-05T09:46:36.000Z</time>
      </trkpt>
      <trkpt lat="47.80322" lon="-3.22471">
        <ele>51</ele>
        <time>2014-10-05T09:46:40.000Z</time>
      </trkpt>
      <trkpt lat="47.80319" lon="-3.22459">
        <ele>51.200000762939</ele>
        <time>2014-10-05T09:46:46.000Z</time>
      </trkpt>
      <trkpt lat="47.80318" lon="-3.22457">
        <ele>51.400001525879</ele>
        <time>2014-10-05T09:46:47.000Z</time>
      </trkpt>
      <trkpt lat="47.80318" lon="-3.22453">
        <ele>51.400001525879</ele>
        <time>2014-10-05T09:46:52.000Z</time>
      </trkpt>
      <trkpt lat="47.80317" lon="-3.22444">
        <ele>51.400001525879</ele>
        <time>2014-10-05T09:46:59.000Z</time>
      </trkpt>
      <trkpt lat="47.80317" lon="-3.22443">
        <ele>51.400001525879</ele>
        <time>2014-10-05T09:47:00.000Z</time>
      </trkpt>
      <trkpt lat="47.80315" lon="-3.22435">
        <ele>51.400001525879</ele>
        <time>2014-10-05T09:47:03.000Z</time>
      </trkpt>
      <trkpt lat="47.80312" lon="-3.2242">
        <ele>51.400001525879</ele>
        <time>2014-10-05T09:47:11.000Z</time>
      </trkpt>
      <trkpt lat="47.80312" lon="-3.22415">
        <ele>51.599998474121</ele>
        <time>2014-10-05T09:47:14.000Z</time>
      </trkpt>
      <trkpt lat="47.80313" lon="-3.22402">
        <ele>51.799999237061</ele>
        <time>2014-10-05T09:47:20.000Z</time>
      </trkpt>
      <trkpt lat="47.80313" lon="-3.22398">
        <ele>51.799999237061</ele>
        <time>2014-10-05T09:47:22.000Z</time>
      </trkpt>
      <trkpt lat="47.80311" lon="-3.22387">
        <ele>51.799999237061</ele>
        <time>2014-10-05T09:47:28.000Z</time>
      </trkpt>
      <trkpt lat="47.8031" lon="-3.22385">
        <ele>51.799999237061</ele>
        <time>2014-10-05T09:47:29.000Z</time>
      </trkpt>
      <trkpt lat="47.80308" lon="-3.22376">
        <ele>52</ele>
        <time>2014-10-05T09:47:34.000Z</time>
      </trkpt>
      <trkpt lat="47.80307" lon="-3.22367">
        <ele>52.200000762939</ele>
        <time>2014-10-05T09:47:39.000Z</time>
      </trkpt>
      <trkpt lat="47.80303" lon="-3.22348">
        <ele>52.799999237061</ele>
        <time>2014-10-05T09:47:48.000Z</time>
      </trkpt>
      <trkpt lat="47.80303" lon="-3.22346">
        <ele>53</ele>
        <time>2014-10-05T09:47:49.000Z</time>
      </trkpt>
      <trkpt lat="47.80302" lon="-3.22338">
        <ele>53.400001525879</ele>
        <time>2014-10-05T09:47:55.000Z</time>
      </trkpt>
      <trkpt lat="47.80299" lon="-3.22314">
        <ele>54.599998474121</ele>
        <time>2014-10-05T09:48:24.000Z</time>
      </trkpt>
      <trkpt lat="47.80297" lon="-3.22305">
        <ele>55</ele>
        <time>2014-10-05T09:48:29.000Z</time>
      </trkpt>
      <trkpt lat="47.80296" lon="-3.22296">
        <ele>55</ele>
        <time>2014-10-05T09:48:35.000Z</time>
      </trkpt>
      <trkpt lat="47.80295" lon="-3.2229">
        <ele>55.200000762939</ele>
        <time>2014-10-05T09:48:39.000Z</time>
      </trkpt>
      <trkpt lat="47.80294" lon="-3.22282">
        <ele>55.200000762939</ele>
        <time>2014-10-05T09:48:45.000Z</time>
      </trkpt>
      <trkpt lat="47.80293" lon="-3.22276">
        <ele>55.200000762939</ele>
        <time>2014-10-05T09:48:50.000Z</time>
      </trkpt>
      <trkpt lat="47.80293" lon="-3.22267">
        <ele>55.400001525879</ele>
        <time>2014-10-05T09:48:55.000Z</time>
      </trkpt>
      <trkpt lat="47.8029" lon="-3.2225">
        <ele>55.599998474121</ele>
        <time>2014-10-05T09:49:04.000Z</time>
      </trkpt>
      <trkpt lat="47.80289" lon="-3.22237">
        <ele>55.799999237061</ele>
        <time>2014-10-05T09:49:11.000Z</time>
      </trkpt>
      <trkpt lat="47.80286" lon="-3.22229">
        <ele>55.799999237061</ele>
        <time>2014-10-05T09:49:16.000Z</time>
      </trkpt>
      <trkpt lat="47.80285" lon="-3.22219">
        <ele>56</ele>
        <time>2014-10-05T09:49:21.000Z</time>
      </trkpt>
      <trkpt lat="47.80284" lon="-3.22208">
        <ele>56</ele>
        <time>2014-10-05T09:49:26.000Z</time>
      </trkpt>
      <trkpt lat="47.8028" lon="-3.22191">
        <ele>56</ele>
        <time>2014-10-05T09:49:35.000Z</time>
      </trkpt>
      <trkpt lat="47.80277" lon="-3.22177">
        <ele>56</ele>
        <time>2014-10-05T09:49:44.000Z</time>
      </trkpt>
      <trkpt lat="47.80276" lon="-3.22169">
        <ele>56.200000762939</ele>
        <time>2014-10-05T09:49:48.000Z</time>
      </trkpt>
      <trkpt lat="47.80274" lon="-3.22155">
        <ele>56.599998474121</ele>
        <time>2014-10-05T09:49:54.000Z</time>
      </trkpt>
      <trkpt lat="47.80272" lon="-3.22142">
        <ele>57.200000762939</ele>
        <time>2014-10-05T09:50:01.000Z</time>
      </trkpt>
      <trkpt lat="47.8027" lon="-3.2213">
        <ele>57.599998474121</ele>
        <time>2014-10-05T09:50:06.000Z</time>
      </trkpt>
      <trkpt lat="47.80269" lon="-3.22124">
        <ele>58</ele>
        <time>2014-10-05T09:50:09.000Z</time>
      </trkpt>
      <trkpt lat="47.80269" lon="-3.22113">
        <ele>58.400001525879</ele>
        <time>2014-10-05T09:50:14.000Z</time>
      </trkpt>
      <trkpt lat="47.80268" lon="-3.22108">
        <ele>58.799999237061</ele>
        <time>2014-10-05T09:50:16.000Z</time>
      </trkpt>
      <trkpt lat="47.80264" lon="-3.22097">
        <ele>59.200000762939</ele>
        <time>2014-10-05T09:50:22.000Z</time>
      </trkpt>
      <trkpt lat="47.80262" lon="-3.22089">
        <ele>59.200000762939</ele>
        <time>2014-10-05T09:50:26.000Z</time>
      </trkpt>
      <trkpt lat="47.80262" lon="-3.22086">
        <ele>59.200000762939</ele>
        <time>2014-10-05T09:50:27.000Z</time>
      </trkpt>
      <trkpt lat="47.8026" lon="-3.22081">
        <ele>59.200000762939</ele>
        <time>2014-10-05T09:50:29.000Z</time>
      </trkpt>
      <trkpt lat="47.8026" lon="-3.22068">
        <ele>59.400001525879</ele>
        <time>2014-10-05T09:50:35.000Z</time>
      </trkpt>
      <trkpt lat="47.80257" lon="-3.22057">
        <ele>59.599998474121</ele>
        <time>2014-10-05T09:50:41.000Z</time>
      </trkpt>
      <trkpt lat="47.80254" lon="-3.22047">
        <ele>59.400001525879</ele>
        <time>2014-10-05T09:50:46.000Z</time>
      </trkpt>
      <trkpt lat="47.8025" lon="-3.22033">
        <ele>59.200000762939</ele>
        <time>2014-10-05T09:50:53.000Z</time>
      </trkpt>
      <trkpt lat="47.80249" lon="-3.22018">
        <ele>59.200000762939</ele>
        <time>2014-10-05T09:50:59.000Z</time>
      </trkpt>
      <trkpt lat="47.80246" lon="-3.22007">
        <ele>59.400001525879</ele>
        <time>2014-10-05T09:51:05.000Z</time>
      </trkpt>
      <trkpt lat="47.80246" lon="-3.22003">
        <ele>59.400001525879</ele>
        <time>2014-10-05T09:51:07.000Z</time>
      </trkpt>
      <trkpt lat="47.80242" lon="-3.21993">
        <ele>59.400001525879</ele>
        <time>2014-10-05T09:51:12.000Z</time>
      </trkpt>
      <trkpt lat="47.8024" lon="-3.21984">
        <ele>59.400001525879</ele>
        <time>2014-10-05T09:51:16.000Z</time>
      </trkpt>
      <trkpt lat="47.80238" lon="-3.21969">
        <ele>59.599998474121</ele>
        <time>2014-10-05T09:51:24.000Z</time>
      </trkpt>
      <trkpt lat="47.80235" lon="-3.21958">
        <ele>59.599998474121</ele>
        <time>2014-10-05T09:51:30.000Z</time>
      </trkpt>
      <trkpt lat="47.80233" lon="-3.21945">
        <ele>59.799999237061</ele>
        <time>2014-10-05T09:51:36.000Z</time>
      </trkpt>
      <trkpt lat="47.80232" lon="-3.21938">
        <ele>59.799999237061</ele>
        <time>2014-10-05T09:51:39.000Z</time>
      </trkpt>
      <trkpt lat="47.80231" lon="-3.21925">
        <ele>60.200000762939</ele>
        <time>2014-10-05T09:51:44.000Z</time>
      </trkpt>
      <trkpt lat="47.80231" lon="-3.21916">
        <ele>60.400001525879</ele>
        <time>2014-10-05T09:51:49.000Z</time>
      </trkpt>
      <trkpt lat="47.8023" lon="-3.21916">
        <ele>60.400001525879</ele>
        <time>2014-10-05T09:51:53.000Z</time>
      </trkpt>
      <trkpt lat="47.80223" lon="-3.21907">
        <ele>60</ele>
        <time>2014-10-05T09:52:10.000Z</time>
      </trkpt>
      <trkpt lat="47.80221" lon="-3.21902">
        <ele>60.200000762939</ele>
        <time>2014-10-05T09:52:12.000Z</time>
      </trkpt>
      <trkpt lat="47.80222" lon="-3.21894">
        <ele>60.400001525879</ele>
        <time>2014-10-05T09:52:16.000Z</time>
      </trkpt>
      <trkpt lat="47.80221" lon="-3.2189">
        <ele>60.599998474121</ele>
        <time>2014-10-05T09:52:18.000Z</time>
      </trkpt>
      <trkpt lat="47.80219" lon="-3.21881">
        <ele>60.799999237061</ele>
        <time>2014-10-05T09:52:23.000Z</time>
      </trkpt>
      <trkpt lat="47.80215" lon="-3.21868">
        <ele>61.599998474121</ele>
        <time>2014-10-05T09:52:30.000Z</time>
      </trkpt>
      <trkpt lat="47.80212" lon="-3.21857">
        <ele>62.400001525879</ele>
        <time>2014-10-05T09:52:35.000Z</time>
      </trkpt>
      <trkpt lat="47.80212" lon="-3.21844">
        <ele>63.400001525879</ele>
        <time>2014-10-05T09:52:41.000Z</time>
      </trkpt>
      <trkpt lat="47.80211" lon="-3.21837">
        <ele>63.400001525879</ele>
        <time>2014-10-05T09:52:44.000Z</time>
      </trkpt>
      <trkpt lat="47.80205" lon="-3.21823">
        <ele>63</ele>
        <time>2014-10-05T09:52:50.000Z</time>
      </trkpt>
      <trkpt lat="47.80202" lon="-3.21812">
        <ele>62.799999237061</ele>
        <time>2014-10-05T09:52:55.000Z</time>
      </trkpt>
      <trkpt lat="47.802" lon="-3.21799">
        <ele>63.599998474121</ele>
        <time>2014-10-05T09:53:01.000Z</time>
      </trkpt>
      <trkpt lat="47.80198" lon="-3.21792">
        <ele>64</ele>
        <time>2014-10-05T09:53:05.000Z</time>
      </trkpt>
      <trkpt lat="47.80197" lon="-3.21779">
        <ele>64.599998474121</ele>
        <time>2014-10-05T09:53:11.000Z</time>
      </trkpt>
      <trkpt lat="47.80195" lon="-3.21774">
        <ele>64.800003051758</ele>
        <time>2014-10-05T09:53:14.000Z</time>
      </trkpt>
      <trkpt lat="47.80189" lon="-3.21765">
        <ele>65.400001525879</ele>
        <time>2014-10-05T09:53:20.000Z</time>
      </trkpt>
      <trkpt lat="47.80187" lon="-3.21756">
        <ele>65.800003051758</ele>
        <time>2014-10-05T09:53:25.000Z</time>
      </trkpt>
      <trkpt lat="47.80186" lon="-3.21747">
        <ele>66</ele>
        <time>2014-10-05T09:53:29.000Z</time>
      </trkpt>
      <trkpt lat="47.80183" lon="-3.21735">
        <ele>66</ele>
        <time>2014-10-05T09:53:34.000Z</time>
      </trkpt>
      <trkpt lat="47.80182" lon="-3.21731">
        <ele>66</ele>
        <time>2014-10-05T09:53:36.000Z</time>
      </trkpt>
      <trkpt lat="47.80178" lon="-3.21723">
        <ele>66</ele>
        <time>2014-10-05T09:53:40.000Z</time>
      </trkpt>
      <trkpt lat="47.80172" lon="-3.21714">
        <ele>66</ele>
        <time>2014-10-05T09:53:45.000Z</time>
      </trkpt>
      <trkpt lat="47.80166" lon="-3.21704">
        <ele>65.199996948242</ele>
        <time>2014-10-05T09:53:52.000Z</time>
      </trkpt>
      <trkpt lat="47.80163" lon="-3.21699">
        <ele>65</ele>
        <time>2014-10-05T09:53:55.000Z</time>
      </trkpt>
      <trkpt lat="47.80159" lon="-3.21687">
        <ele>64.599998474121</ele>
        <time>2014-10-05T09:54:02.000Z</time>
      </trkpt>
      <trkpt lat="47.80154" lon="-3.21677">
        <ele>64.400001525879</ele>
        <time>2014-10-05T09:54:09.000Z</time>
      </trkpt>
      <trkpt lat="47.80151" lon="-3.21676">
        <ele>64</ele>
        <time>2014-10-05T09:54:18.000Z</time>
      </trkpt>
      <trkpt lat="47.80146" lon="-3.21683">
        <ele>63.400001525879</ele>
        <time>2014-10-05T09:56:21.000Z</time>
      </trkpt>
      <trkpt lat="47.80146" lon="-3.21685">
        <ele>63.400001525879</ele>
        <time>2014-10-05T09:56:25.000Z</time>
      </trkpt>
      <trkpt lat="47.80146" lon="-3.21686">
        <ele>63.400001525879</ele>
        <time>2014-10-05T09:56:28.000Z</time>
      </trkpt>
      <trkpt lat="47.80141" lon="-3.21679">
        <ele>63</ele>
        <time>2014-10-05T10:01:39.000Z</time>
      </trkpt>
      <trkpt lat="47.80142" lon="-3.21678">
        <ele>63.200000762939</ele>
        <time>2014-10-05T10:01:40.000Z</time>
      </trkpt>
      <trkpt lat="47.80143" lon="-3.21679">
        <ele>63.200000762939</ele>
        <time>2014-10-05T10:01:42.000Z</time>
      </trkpt>
      <trkpt lat="47.80159" lon="-3.21669">
        <ele>64.800003051758</ele>
        <time>2014-10-05T10:11:19.000Z</time>
      </trkpt>
      <trkpt lat="47.80166" lon="-3.21665">
        <ele>65.599998474121</ele>
        <time>2014-10-05T10:11:22.000Z</time>
      </trkpt>
      <trkpt lat="47.80179" lon="-3.21662">
        <ele>66.199996948242</ele>
        <time>2014-10-05T10:11:29.000Z</time>
      </trkpt>
      <trkpt lat="47.80189" lon="-3.21663">
        <ele>66.199996948242</ele>
        <time>2014-10-05T10:11:35.000Z</time>
      </trkpt>
      <trkpt lat="47.80199" lon="-3.21666">
        <ele>66.199996948242</ele>
        <time>2014-10-05T10:11:40.000Z</time>
      </trkpt>
      <trkpt lat="47.8021" lon="-3.21667">
        <ele>66.199996948242</ele>
        <time>2014-10-05T10:11:45.000Z</time>
      </trkpt>
      <trkpt lat="47.8022" lon="-3.2166">
        <ele>66.199996948242</ele>
        <time>2014-10-05T10:11:50.000Z</time>
      </trkpt>
      <trkpt lat="47.80228" lon="-3.21654">
        <ele>66.199996948242</ele>
        <time>2014-10-05T10:11:54.000Z</time>
      </trkpt>
      <trkpt lat="47.80235" lon="-3.21644">
        <ele>66.400001525879</ele>
        <time>2014-10-05T10:11:59.000Z</time>
      </trkpt>
      <trkpt lat="47.80243" lon="-3.2163">
        <ele>66.599998474121</ele>
        <time>2014-10-05T10:12:05.000Z</time>
      </trkpt>
      <trkpt lat="47.80247" lon="-3.21618">
        <ele>66.800003051758</ele>
        <time>2014-10-05T10:12:09.000Z</time>
      </trkpt>
      <trkpt lat="47.80247" lon="-3.21611">
        <ele>66.800003051758</ele>
        <time>2014-10-05T10:12:11.000Z</time>
      </trkpt>
      <trkpt lat="47.8025" lon="-3.21598">
        <ele>67</ele>
        <time>2014-10-05T10:12:16.000Z</time>
      </trkpt>
      <trkpt lat="47.80253" lon="-3.21593">
        <ele>67</ele>
        <time>2014-10-05T10:12:22.000Z</time>
      </trkpt>
      <trkpt lat="47.80256" lon="-3.21593">
        <ele>66.800003051758</ele>
        <time>2014-10-05T10:12:26.000Z</time>
      </trkpt>
      <trkpt lat="47.80257" lon="-3.21592">
        <ele>66.800003051758</ele>
        <time>2014-10-05T10:12:29.000Z</time>
      </trkpt>
      <trkpt lat="47.80267" lon="-3.21596">
        <ele>66</ele>
        <time>2014-10-05T10:12:40.000Z</time>
      </trkpt>
      <trkpt lat="47.80273" lon="-3.21599">
        <ele>65.400001525879</ele>
        <time>2014-10-05T10:12:42.000Z</time>
      </trkpt>
      <trkpt lat="47.80283" lon="-3.21601">
        <ele>64.599998474121</ele>
        <time>2014-10-05T10:12:48.000Z</time>
      </trkpt>
      <trkpt lat="47.80291" lon="-3.21601">
        <ele>64</ele>
        <time>2014-10-05T10:12:53.000Z</time>
      </trkpt>
      <trkpt lat="47.80302" lon="-3.21596">
        <ele>63</ele>
        <time>2014-10-05T10:12:59.000Z</time>
      </trkpt>
      <trkpt lat="47.80314" lon="-3.21592">
        <ele>62</ele>
        <time>2014-10-05T10:13:04.000Z</time>
      </trkpt>
      <trkpt lat="47.80318" lon="-3.21593">
        <ele>61.599998474121</ele>
        <time>2014-10-05T10:13:09.000Z</time>
      </trkpt>
      <trkpt lat="47.80324" lon="-3.21594">
        <ele>61.200000762939</ele>
        <time>2014-10-05T10:13:14.000Z</time>
      </trkpt>
      <trkpt lat="47.80332" lon="-3.21597">
        <ele>60.400001525879</ele>
        <time>2014-10-05T10:13:20.000Z</time>
      </trkpt>
      <trkpt lat="47.80336" lon="-3.21598">
        <ele>60.200000762939</ele>
        <time>2014-10-05T10:13:23.000Z</time>
      </trkpt>
      <trkpt lat="47.80341" lon="-3.216">
        <ele>60</ele>
        <time>2014-10-05T10:13:28.000Z</time>
      </trkpt>
      <trkpt lat="47.8035" lon="-3.21601">
        <ele>60.599998474121</ele>
        <time>2014-10-05T10:13:36.000Z</time>
      </trkpt>
      <trkpt lat="47.80359" lon="-3.21599">
        <ele>61.200000762939</ele>
        <time>2014-10-05T10:13:43.000Z</time>
      </trkpt>
      <trkpt lat="47.80362" lon="-3.21595">
        <ele>61.400001525879</ele>
        <time>2014-10-05T10:13:47.000Z</time>
      </trkpt>
      <trkpt lat="47.80365" lon="-3.21593">
        <ele>61.599998474121</ele>
        <time>2014-10-05T10:13:52.000Z</time>
      </trkpt>
      <trkpt lat="47.80365" lon="-3.21592">
        <ele>61.599998474121</ele>
        <time>2014-10-05T10:13:53.000Z</time>
      </trkpt>
      <trkpt lat="47.80362" lon="-3.21588">
        <ele>61.400001525879</ele>
        <time>2014-10-05T10:14:08.000Z</time>
      </trkpt>
      <trkpt lat="47.8036" lon="-3.21576">
        <ele>61</ele>
        <time>2014-10-05T10:14:11.000Z</time>
      </trkpt>
      <trkpt lat="47.80356" lon="-3.21555">
        <ele>60.599998474121</ele>
        <time>2014-10-05T10:14:18.000Z</time>
      </trkpt>
      <trkpt lat="47.80355" lon="-3.21554">
        <ele>60.599998474121</ele>
        <time>2014-10-05T10:14:22.000Z</time>
      </trkpt>
      <trkpt lat="47.80354" lon="-3.21545">
        <ele>60.400001525879</ele>
        <time>2014-10-05T10:14:36.000Z</time>
      </trkpt>
      <trkpt lat="47.80354" lon="-3.21542">
        <ele>60.400001525879</ele>
        <time>2014-10-05T10:14:37.000Z</time>
      </trkpt>
      <trkpt lat="47.80354" lon="-3.21529">
        <ele>60.200000762939</ele>
        <time>2014-10-05T10:14:40.000Z</time>
      </trkpt>
      <trkpt lat="47.80354" lon="-3.21511">
        <ele>60</ele>
        <time>2014-10-05T10:14:46.000Z</time>
      </trkpt>
      <trkpt lat="47.80352" lon="-3.21495">
        <ele>60</ele>
        <time>2014-10-05T10:14:51.000Z</time>
      </trkpt>
      <trkpt lat="47.80351" lon="-3.21476">
        <ele>60.400001525879</ele>
        <time>2014-10-05T10:14:57.000Z</time>
      </trkpt>
      <trkpt lat="47.80349" lon="-3.21459">
        <ele>60.799999237061</ele>
        <time>2014-10-05T10:15:02.000Z</time>
      </trkpt>
      <trkpt lat="47.80347" lon="-3.21454">
        <ele>60.799999237061</ele>
        <time>2014-10-05T10:15:04.000Z</time>
      </trkpt>
      <trkpt lat="47.80347" lon="-3.21439">
        <ele>61.200000762939</ele>
        <time>2014-10-05T10:15:09.000Z</time>
      </trkpt>
      <trkpt lat="47.8035" lon="-3.21434">
        <ele>61.400001525879</ele>
        <time>2014-10-05T10:15:11.000Z</time>
      </trkpt>
      <trkpt lat="47.80353" lon="-3.21429">
        <ele>61.599998474121</ele>
        <time>2014-10-05T10:15:17.000Z</time>
      </trkpt>
      <trkpt lat="47.80362" lon="-3.21422">
        <ele>62.200000762939</ele>
        <time>2014-10-05T10:15:28.000Z</time>
      </trkpt>
      <trkpt lat="47.80368" lon="-3.21422">
        <ele>62.599998474121</ele>
        <time>2014-10-05T10:15:32.000Z</time>
      </trkpt>
      <trkpt lat="47.80373" lon="-3.21422">
        <ele>62.799999237061</ele>
        <time>2014-10-05T10:15:35.000Z</time>
      </trkpt>
      <trkpt lat="47.80379" lon="-3.21422">
        <ele>63</ele>
        <time>2014-10-05T10:15:40.000Z</time>
      </trkpt>
      <trkpt lat="47.80387" lon="-3.21419">
        <ele>63.400001525879</ele>
        <time>2014-10-05T10:15:48.000Z</time>
      </trkpt>
      <trkpt lat="47.80393" lon="-3.21416">
        <ele>63.799999237061</ele>
        <time>2014-10-05T10:15:53.000Z</time>
      </trkpt>
      <trkpt lat="47.80402" lon="-3.2141">
        <ele>64.199996948242</ele>
        <time>2014-10-05T10:16:00.000Z</time>
      </trkpt>
      <trkpt lat="47.80404" lon="-3.2141">
        <ele>64.400001525879</ele>
        <time>2014-10-05T10:16:02.000Z</time>
      </trkpt>
      <trkpt lat="47.80407" lon="-3.2141">
        <ele>64.599998474121</ele>
        <time>2014-10-05T10:16:05.000Z</time>
      </trkpt>
      <trkpt lat="47.80413" lon="-3.21414">
        <ele>64.800003051758</ele>
        <time>2014-10-05T10:16:14.000Z</time>
      </trkpt>
      <trkpt lat="47.80428" lon="-3.21417">
        <ele>65.199996948242</ele>
        <time>2014-10-05T10:16:46.000Z</time>
      </trkpt>
      <trkpt lat="47.80434" lon="-3.21418">
        <ele>65.400001525879</ele>
        <time>2014-10-05T10:16:51.000Z</time>
      </trkpt>
      <trkpt lat="47.80435" lon="-3.21419">
        <ele>65.599998474121</ele>
        <time>2014-10-05T10:16:52.000Z</time>
      </trkpt>
      <trkpt lat="47.8044" lon="-3.21421">
        <ele>65.800003051758</ele>
        <time>2014-10-05T10:16:56.000Z</time>
      </trkpt>
      <trkpt lat="47.80451" lon="-3.21426">
        <ele>66.400001525879</ele>
        <time>2014-10-05T10:17:03.000Z</time>
      </trkpt>
      <trkpt lat="47.80454" lon="-3.21422">
        <ele>66.400001525879</ele>
        <time>2014-10-05T10:17:06.000Z</time>
      </trkpt>
      <trkpt lat="47.80459" lon="-3.21409">
        <ele>66.599998474121</ele>
        <time>2014-10-05T10:17:14.000Z</time>
      </trkpt>
      <trkpt lat="47.8046" lon="-3.21408">
        <ele>66.599998474121</ele>
        <time>2014-10-05T10:17:16.000Z</time>
      </trkpt>
      <trkpt lat="47.80464" lon="-3.21404">
        <ele>66.800003051758</ele>
        <time>2014-10-05T10:17:21.000Z</time>
      </trkpt>
      <trkpt lat="47.8047" lon="-3.21399">
        <ele>67</ele>
        <time>2014-10-05T10:17:31.000Z</time>
      </trkpt>
      <trkpt lat="47.80476" lon="-3.21391">
        <ele>67.199996948242</ele>
        <time>2014-10-05T10:17:38.000Z</time>
      </trkpt>
      <trkpt lat="47.80477" lon="-3.21391">
        <ele>67.199996948242</ele>
        <time>2014-10-05T10:17:39.000Z</time>
      </trkpt>
      <trkpt lat="47.80482" lon="-3.21389">
        <ele>67.400001525879</ele>
        <time>2014-10-05T10:17:42.000Z</time>
      </trkpt>
      <trkpt lat="47.80484" lon="-3.21386">
        <ele>67.400001525879</ele>
        <time>2014-10-05T10:17:46.000Z</time>
      </trkpt>
      <trkpt lat="47.80488" lon="-3.21389">
        <ele>67.599998474121</ele>
        <time>2014-10-05T10:17:50.000Z</time>
      </trkpt>
      <trkpt lat="47.80489" lon="-3.21388">
        <ele>67.800003051758</ele>
        <time>2014-10-05T10:17:54.000Z</time>
      </trkpt>
      <trkpt lat="47.8051" lon="-3.2139">
        <ele>68.599998474121</ele>
        <time>2014-10-05T10:18:34.000Z</time>
      </trkpt>
      <trkpt lat="47.80513" lon="-3.21399">
        <ele>68.800003051758</ele>
        <time>2014-10-05T10:18:38.000Z</time>
      </trkpt>
      <trkpt lat="47.80519" lon="-3.21404">
        <ele>69</ele>
        <time>2014-10-05T10:18:43.000Z</time>
      </trkpt>
      <trkpt lat="47.80525" lon="-3.21404">
        <ele>69.199996948242</ele>
        <time>2014-10-05T10:18:47.000Z</time>
      </trkpt>
      <trkpt lat="47.8053" lon="-3.21412">
        <ele>69.400001525879</ele>
        <time>2014-10-05T10:18:54.000Z</time>
      </trkpt>
      <trkpt lat="47.80531" lon="-3.21416">
        <ele>69.400001525879</ele>
        <time>2014-10-05T10:18:56.000Z</time>
      </trkpt>
      <trkpt lat="47.80532" lon="-3.21426">
        <ele>69.599998474121</ele>
        <time>2014-10-05T10:19:03.000Z</time>
      </trkpt>
      <trkpt lat="47.80533" lon="-3.21427">
        <ele>69.599998474121</ele>
        <time>2014-10-05T10:19:04.000Z</time>
      </trkpt>
      <trkpt lat="47.80538" lon="-3.21435">
        <ele>69.800003051758</ele>
        <time>2014-10-05T10:19:10.000Z</time>
      </trkpt>
      <trkpt lat="47.80543" lon="-3.21441">
        <ele>69.800003051758</ele>
        <time>2014-10-05T10:19:17.000Z</time>
      </trkpt>
      <trkpt lat="47.80544" lon="-3.21444">
        <ele>69.800003051758</ele>
        <time>2014-10-05T10:19:20.000Z</time>
      </trkpt>
      <trkpt lat="47.80545" lon="-3.21449">
        <ele>69.800003051758</ele>
        <time>2014-10-05T10:19:23.000Z</time>
      </trkpt>
      <trkpt lat="47.80547" lon="-3.2145">
        <ele>69.800003051758</ele>
        <time>2014-10-05T10:19:25.000Z</time>
      </trkpt>
      <trkpt lat="47.80552" lon="-3.21461">
        <ele>69.800003051758</ele>
        <time>2014-10-05T10:19:31.000Z</time>
      </trkpt>
      <trkpt lat="47.80552" lon="-3.21467">
        <ele>69.599998474121</ele>
        <time>2014-10-05T10:19:36.000Z</time>
      </trkpt>
      <trkpt lat="47.80553" lon="-3.2147">
        <ele>69.599998474121</ele>
        <time>2014-10-05T10:19:38.000Z</time>
      </trkpt>
      <trkpt lat="47.80552" lon="-3.21479">
        <ele>69.599998474121</ele>
        <time>2014-10-05T10:19:43.000Z</time>
      </trkpt>
      <trkpt lat="47.80552" lon="-3.21486">
        <ele>69.400001525879</ele>
        <time>2014-10-05T10:19:46.000Z</time>
      </trkpt>
      <trkpt lat="47.80559" lon="-3.21497">
        <ele>69.400001525879</ele>
        <time>2014-10-05T10:19:52.000Z</time>
      </trkpt>
      <trkpt lat="47.80561" lon="-3.215">
        <ele>69.400001525879</ele>
        <time>2014-10-05T10:19:54.000Z</time>
      </trkpt>
      <trkpt lat="47.80564" lon="-3.21506">
        <ele>69.400001525879</ele>
        <time>2014-10-05T10:20:00.000Z</time>
      </trkpt>
      <trkpt lat="47.80565" lon="-3.21509">
        <ele>69.400001525879</ele>
        <time>2014-10-05T10:20:06.000Z</time>
      </trkpt>
      <trkpt lat="47.80573" lon="-3.21502">
        <ele>69.800003051758</ele>
        <time>2014-10-05T10:20:28.000Z</time>
      </trkpt>
      <trkpt lat="47.80576" lon="-3.21501">
        <ele>69.800003051758</ele>
        <time>2014-10-05T10:20:30.000Z</time>
      </trkpt>
      <trkpt lat="47.80582" lon="-3.21497">
        <ele>70</ele>
        <time>2014-10-05T10:20:39.000Z</time>
      </trkpt>
      <trkpt lat="47.80589" lon="-3.21493">
        <ele>70.199996948242</ele>
        <time>2014-10-05T10:20:47.000Z</time>
      </trkpt>
      <trkpt lat="47.80595" lon="-3.2149">
        <ele>70.400001525879</ele>
        <time>2014-10-05T10:20:53.000Z</time>
      </trkpt>
      <trkpt lat="47.80598" lon="-3.21488">
        <ele>70.599998474121</ele>
        <time>2014-10-05T10:20:56.000Z</time>
      </trkpt>
      <trkpt lat="47.80606" lon="-3.21483">
        <ele>70.800003051758</ele>
        <time>2014-10-05T10:21:04.000Z</time>
      </trkpt>
      <trkpt lat="47.80609" lon="-3.21479">
        <ele>70.800003051758</ele>
        <time>2014-10-05T10:21:09.000Z</time>
      </trkpt>
      <trkpt lat="47.80618" lon="-3.21475">
        <ele>71.199996948242</ele>
        <time>2014-10-05T10:21:15.000Z</time>
      </trkpt>
      <trkpt lat="47.80621" lon="-3.21473">
        <ele>71.199996948242</ele>
        <time>2014-10-05T10:21:17.000Z</time>
      </trkpt>
      <trkpt lat="47.80627" lon="-3.21471">
        <ele>71.400001525879</ele>
        <time>2014-10-05T10:21:21.000Z</time>
      </trkpt>
      <trkpt lat="47.80632" lon="-3.21467">
        <ele>71.599998474121</ele>
        <time>2014-10-05T10:21:27.000Z</time>
      </trkpt>
      <trkpt lat="47.8064" lon="-3.21461">
        <ele>71.800003051758</ele>
        <time>2014-10-05T10:21:35.000Z</time>
      </trkpt>
      <trkpt lat="47.80647" lon="-3.21457">
        <ele>72.199996948242</ele>
        <time>2014-10-05T10:21:40.000Z</time>
      </trkpt>
      <trkpt lat="47.80648" lon="-3.21457">
        <ele>72.199996948242</ele>
        <time>2014-10-05T10:21:42.000Z</time>
      </trkpt>
      <trkpt lat="47.80659" lon="-3.21449">
        <ele>72.599998474121</ele>
        <time>2014-10-05T10:21:49.000Z</time>
      </trkpt>
      <trkpt lat="47.80671" lon="-3.21439">
        <ele>73</ele>
        <time>2014-10-05T10:22:00.000Z</time>
      </trkpt>
      <trkpt lat="47.80677" lon="-3.21433">
        <ele>73.400001525879</ele>
        <time>2014-10-05T10:22:06.000Z</time>
      </trkpt>
      <trkpt lat="47.80684" lon="-3.21426">
        <ele>73.800003051758</ele>
        <time>2014-10-05T10:22:12.000Z</time>
      </trkpt>
      <trkpt lat="47.80685" lon="-3.21425">
        <ele>74</ele>
        <time>2014-10-05T10:22:13.000Z</time>
      </trkpt>
      <trkpt lat="47.80694" lon="-3.21421">
        <ele>74.400001525879</ele>
        <time>2014-10-05T10:22:20.000Z</time>
      </trkpt>
      <trkpt lat="47.80707" lon="-3.21413">
        <ele>75.400001525879</ele>
        <time>2014-10-05T10:22:29.000Z</time>
      </trkpt>
      <trkpt lat="47.80709" lon="-3.21412">
        <ele>75.400001525879</ele>
        <time>2014-10-05T10:22:30.000Z</time>
      </trkpt>
      <trkpt lat="47.80714" lon="-3.21421">
        <ele>76</ele>
        <time>2014-10-05T10:22:36.000Z</time>
      </trkpt>
      <trkpt lat="47.80714" lon="-3.21424">
        <ele>76</ele>
        <time>2014-10-05T10:22:38.000Z</time>
      </trkpt>
      <trkpt lat="47.80716" lon="-3.21426">
        <ele>76.199996948242</ele>
        <time>2014-10-05T10:22:42.000Z</time>
      </trkpt>
      <trkpt lat="47.80725" lon="-3.2145">
        <ele>76.800003051758</ele>
        <time>2014-10-05T10:23:06.000Z</time>
      </trkpt>
      <trkpt lat="47.80728" lon="-3.21467">
        <ele>77</ele>
        <time>2014-10-05T10:23:10.000Z</time>
      </trkpt>
      <trkpt lat="47.80729" lon="-3.21483">
        <ele>77.199996948242</ele>
        <time>2014-10-05T10:23:15.000Z</time>
      </trkpt>
      <trkpt lat="47.80729" lon="-3.21489">
        <ele>77</ele>
        <time>2014-10-05T10:23:17.000Z</time>
      </trkpt>
      <trkpt lat="47.80733" lon="-3.21506">
        <ele>77.400001525879</ele>
        <time>2014-10-05T10:23:24.000Z</time>
      </trkpt>
      <trkpt lat="47.80734" lon="-3.21511">
        <ele>77.599998474121</ele>
        <time>2014-10-05T10:23:28.000Z</time>
      </trkpt>
      <trkpt lat="47.80734" lon="-3.21511">
        <ele>77.599998474121</ele>
        <time>2014-10-05T10:23:29.000Z</time>
      </trkpt>
      <trkpt lat="47.80739" lon="-3.21518">
        <ele>78</ele>
        <time>2014-10-05T10:23:42.000Z</time>
      </trkpt>
      <trkpt lat="47.80741" lon="-3.21528">
        <ele>78</ele>
        <time>2014-10-05T10:23:48.000Z</time>
      </trkpt>
      <trkpt lat="47.80742" lon="-3.2153">
        <ele>78</ele>
        <time>2014-10-05T10:23:49.000Z</time>
      </trkpt>
      <trkpt lat="47.80749" lon="-3.21541">
        <ele>77.800003051758</ele>
        <time>2014-10-05T10:23:54.000Z</time>
      </trkpt>
      <trkpt lat="47.80753" lon="-3.21547">
        <ele>77.599998474121</ele>
        <time>2014-10-05T10:24:01.000Z</time>
      </trkpt>
      <trkpt lat="47.80756" lon="-3.21547">
        <ele>77.800003051758</ele>
        <time>2014-10-05T10:24:07.000Z</time>
      </trkpt>
      <trkpt lat="47.80757" lon="-3.21547">
        <ele>77.800003051758</ele>
        <time>2014-10-05T10:24:11.000Z</time>
      </trkpt>
      <trkpt lat="47.80766" lon="-3.21538">
        <ele>78</ele>
        <time>2014-10-05T10:24:18.000Z</time>
      </trkpt>
      <trkpt lat="47.80773" lon="-3.2153">
        <ele>78.400001525879</ele>
        <time>2014-10-05T10:24:25.000Z</time>
      </trkpt>
      <trkpt lat="47.80781" lon="-3.21527">
        <ele>78.400001525879</ele>
        <time>2014-10-05T10:24:31.000Z</time>
      </trkpt>
      <trkpt lat="47.80786" lon="-3.21516">
        <ele>78.800003051758</ele>
        <time>2014-10-05T10:24:38.000Z</time>
      </trkpt>
      <trkpt lat="47.80788" lon="-3.21515">
        <ele>78.800003051758</ele>
        <time>2014-10-05T10:24:42.000Z</time>
      </trkpt>
      <trkpt lat="47.80806" lon="-3.21506">
        <ele>79</ele>
        <time>2014-10-05T10:25:05.000Z</time>
      </trkpt>
      <trkpt lat="47.80811" lon="-3.21502">
        <ele>79.199996948242</ele>
        <time>2014-10-05T10:25:10.000Z</time>
      </trkpt>
      <trkpt lat="47.80812" lon="-3.21501">
        <ele>79.199996948242</ele>
        <time>2014-10-05T10:25:11.000Z</time>
      </trkpt>
      <trkpt lat="47.8082" lon="-3.21494">
        <ele>79.199996948242</ele>
        <time>2014-10-05T10:25:19.000Z</time>
      </trkpt>
      <trkpt lat="47.80827" lon="-3.21488">
        <ele>79.199996948242</ele>
        <time>2014-10-05T10:25:26.000Z</time>
      </trkpt>
      <trkpt lat="47.80832" lon="-3.21485">
        <ele>79.400001525879</ele>
        <time>2014-10-05T10:25:32.000Z</time>
      </trkpt>
      <trkpt lat="47.80837" lon="-3.21484">
        <ele>79.400001525879</ele>
        <time>2014-10-05T10:25:35.000Z</time>
      </trkpt>
      <trkpt lat="47.80846" lon="-3.21483">
        <ele>79</ele>
        <time>2014-10-05T10:25:42.000Z</time>
      </trkpt>
      <trkpt lat="47.80853" lon="-3.2149">
        <ele>78.800003051758</ele>
        <time>2014-10-05T10:25:49.000Z</time>
      </trkpt>
      <trkpt lat="47.80853" lon="-3.21491">
        <ele>78.800003051758</ele>
        <time>2014-10-05T10:25:52.000Z</time>
      </trkpt>
      <trkpt lat="47.80855" lon="-3.21498">
        <ele>78.599998474121</ele>
        <time>2014-10-05T10:26:04.000Z</time>
      </trkpt>
      <trkpt lat="47.80858" lon="-3.21508">
        <ele>78.599998474121</ele>
        <time>2014-10-05T10:26:09.000Z</time>
      </trkpt>
      <trkpt lat="47.80859" lon="-3.21519">
        <ele>78.199996948242</ele>
        <time>2014-10-05T10:26:15.000Z</time>
      </trkpt>
      <trkpt lat="47.80865" lon="-3.21531">
        <ele>77.599998474121</ele>
        <time>2014-10-05T10:26:22.000Z</time>
      </trkpt>
      <trkpt lat="47.80867" lon="-3.21539">
        <ele>77.400001525879</ele>
        <time>2014-10-05T10:26:26.000Z</time>
      </trkpt>
      <trkpt lat="47.80867" lon="-3.21543">
        <ele>77.199996948242</ele>
        <time>2014-10-05T10:26:28.000Z</time>
      </trkpt>
      <trkpt lat="47.80869" lon="-3.21549">
        <ele>77</ele>
        <time>2014-10-05T10:26:34.000Z</time>
      </trkpt>
      <trkpt lat="47.80867" lon="-3.2156">
        <ele>76.599998474121</ele>
        <time>2014-10-05T10:27:14.000Z</time>
      </trkpt>
      <trkpt lat="47.80868" lon="-3.21573">
        <ele>76.199996948242</ele>
        <time>2014-10-05T10:27:19.000Z</time>
      </trkpt>
      <trkpt lat="47.80869" lon="-3.21581">
        <ele>76.199996948242</ele>
        <time>2014-10-05T10:27:24.000Z</time>
      </trkpt>
      <trkpt lat="47.80871" lon="-3.2159">
        <ele>76</ele>
        <time>2014-10-05T10:27:29.000Z</time>
      </trkpt>
      <trkpt lat="47.80872" lon="-3.21596">
        <ele>76</ele>
        <time>2014-10-05T10:27:32.000Z</time>
      </trkpt>
      <trkpt lat="47.80875" lon="-3.21607">
        <ele>76</ele>
        <time>2014-10-05T10:27:38.000Z</time>
      </trkpt>
      <trkpt lat="47.80878" lon="-3.21615">
        <ele>76</ele>
        <time>2014-10-05T10:27:42.000Z</time>
      </trkpt>
      <trkpt lat="47.8088" lon="-3.21619">
        <ele>76</ele>
        <time>2014-10-05T10:27:44.000Z</time>
      </trkpt>
      <trkpt lat="47.80882" lon="-3.2163">
        <ele>76</ele>
        <time>2014-10-05T10:27:49.000Z</time>
      </trkpt>
      <trkpt lat="47.80881" lon="-3.21638">
        <ele>76</ele>
        <time>2014-10-05T10:27:53.000Z</time>
      </trkpt>
      <trkpt lat="47.80886" lon="-3.21643">
        <ele>75.800003051758</ele>
        <time>2014-10-05T10:27:58.000Z</time>
      </trkpt>
      <trkpt lat="47.80887" lon="-3.21645">
        <ele>75.599998474121</ele>
        <time>2014-10-05T10:28:02.000Z</time>
      </trkpt>
      <trkpt lat="47.80897" lon="-3.2166">
        <ele>75</ele>
        <time>2014-10-05T10:28:49.000Z</time>
      </trkpt>
      <trkpt lat="47.80898" lon="-3.21668">
        <ele>74.800003051758</ele>
        <time>2014-10-05T10:28:53.000Z</time>
      </trkpt>
      <trkpt lat="47.80901" lon="-3.21675">
        <ele>74.599998474121</ele>
        <time>2014-10-05T10:28:58.000Z</time>
      </trkpt>
      <trkpt lat="47.80902" lon="-3.21682">
        <ele>74.400001525879</ele>
        <time>2014-10-05T10:29:02.000Z</time>
      </trkpt>
      <trkpt lat="47.80903" lon="-3.21692">
        <ele>74.199996948242</ele>
        <time>2014-10-05T10:29:07.000Z</time>
      </trkpt>
      <trkpt lat="47.80906" lon="-3.21696">
        <ele>74</ele>
        <time>2014-10-05T10:29:11.000Z</time>
      </trkpt>
      <trkpt lat="47.80906" lon="-3.21699">
        <ele>73.800003051758</ele>
        <time>2014-10-05T10:29:16.000Z</time>
      </trkpt>
      <trkpt lat="47.80919" lon="-3.2172">
        <ele>73</ele>
        <time>2014-10-05T10:29:49.000Z</time>
      </trkpt>
      <trkpt lat="47.80919" lon="-3.21723">
        <ele>73</ele>
        <time>2014-10-05T10:29:50.000Z</time>
      </trkpt>
      <trkpt lat="47.80927" lon="-3.21733">
        <ele>72.800003051758</ele>
        <time>2014-10-05T10:29:57.000Z</time>
      </trkpt>
      <trkpt lat="47.80932" lon="-3.21736">
        <ele>72.800003051758</ele>
        <time>2014-10-05T10:30:01.000Z</time>
      </trkpt>
      <trkpt lat="47.80935" lon="-3.21742">
        <ele>72.599998474121</ele>
        <time>2014-10-05T10:30:05.000Z</time>
      </trkpt>
      <trkpt lat="47.80943" lon="-3.21741">
        <ele>72.800003051758</ele>
        <time>2014-10-05T10:30:10.000Z</time>
      </trkpt>
      <trkpt lat="47.80947" lon="-3.21743">
        <ele>72.800003051758</ele>
        <time>2014-10-05T10:30:14.000Z</time>
      </trkpt>
      <trkpt lat="47.80951" lon="-3.21739">
        <ele>73</ele>
        <time>2014-10-05T10:30:18.000Z</time>
      </trkpt>
      <trkpt lat="47.80952" lon="-3.21736">
        <ele>73</ele>
        <time>2014-10-05T10:30:20.000Z</time>
      </trkpt>
      <trkpt lat="47.80953" lon="-3.21735">
        <ele>73</ele>
        <time>2014-10-05T10:30:23.000Z</time>
      </trkpt>
      <trkpt lat="47.80956" lon="-3.21731">
        <ele>73.199996948242</ele>
        <time>2014-10-05T10:30:29.000Z</time>
      </trkpt>
      <trkpt lat="47.80965" lon="-3.21717">
        <ele>73.599998474121</ele>
        <time>2014-10-05T10:30:37.000Z</time>
      </trkpt>
      <trkpt lat="47.80973" lon="-3.21706">
        <ele>74</ele>
        <time>2014-10-05T10:30:44.000Z</time>
      </trkpt>
      <trkpt lat="47.80985" lon="-3.21691">
        <ele>74.400001525879</ele>
        <time>2014-10-05T10:30:54.000Z</time>
      </trkpt>
      <trkpt lat="47.80995" lon="-3.21679">
        <ele>74.800003051758</ele>
        <time>2014-10-05T10:31:04.000Z</time>
      </trkpt>
      <trkpt lat="47.81002" lon="-3.21667">
        <ele>75.199996948242</ele>
        <time>2014-10-05T10:31:12.000Z</time>
      </trkpt>
      <trkpt lat="47.8101" lon="-3.21656">
        <ele>75.400001525879</ele>
        <time>2014-10-05T10:31:20.000Z</time>
      </trkpt>
      <trkpt lat="47.81016" lon="-3.21648">
        <ele>75.400001525879</ele>
        <time>2014-10-05T10:31:26.000Z</time>
      </trkpt>
      <trkpt lat="47.81023" lon="-3.21638">
        <ele>75.599998474121</ele>
        <time>2014-10-05T10:31:33.000Z</time>
      </trkpt>
      <trkpt lat="47.81026" lon="-3.21633">
        <ele>75.599998474121</ele>
        <time>2014-10-05T10:31:36.000Z</time>
      </trkpt>
      <trkpt lat="47.81034" lon="-3.21621">
        <ele>75.599998474121</ele>
        <time>2014-10-05T10:31:44.000Z</time>
      </trkpt>
      <trkpt lat="47.81043" lon="-3.21608">
        <ele>75.800003051758</ele>
        <time>2014-10-05T10:31:53.000Z</time>
      </trkpt>
      <trkpt lat="47.8105" lon="-3.21598">
        <ele>75.800003051758</ele>
        <time>2014-10-05T10:32:00.000Z</time>
      </trkpt>
      <trkpt lat="47.81057" lon="-3.21588">
        <ele>75.800003051758</ele>
        <time>2014-10-05T10:32:07.000Z</time>
      </trkpt>
      <trkpt lat="47.81061" lon="-3.21581">
        <ele>75.800003051758</ele>
        <time>2014-10-05T10:32:12.000Z</time>
      </trkpt>
      <trkpt lat="47.81059" lon="-3.21578">
        <ele>76</ele>
        <time>2014-10-05T10:32:16.000Z</time>
      </trkpt>
      <trkpt lat="47.81051" lon="-3.21576">
        <ele>76.199996948242</ele>
        <time>2014-10-05T10:32:21.000Z</time>
      </trkpt>
      <trkpt lat="47.81047" lon="-3.21572">
        <ele>76.199996948242</ele>
        <time>2014-10-05T10:32:25.000Z</time>
      </trkpt>
      <trkpt lat="47.81046" lon="-3.21566">
        <ele>76.400001525879</ele>
        <time>2014-10-05T10:32:28.000Z</time>
      </trkpt>
      <trkpt lat="47.81043" lon="-3.21565">
        <ele>76.400001525879</ele>
        <time>2014-10-05T10:32:32.000Z</time>
      </trkpt>
      <trkpt lat="47.8104" lon="-3.21555">
        <ele>76.599998474121</ele>
        <time>2014-10-05T10:32:52.000Z</time>
      </trkpt>
      <trkpt lat="47.81035" lon="-3.21545">
        <ele>76.599998474121</ele>
        <time>2014-10-05T10:32:58.000Z</time>
      </trkpt>
      <trkpt lat="47.81034" lon="-3.21543">
        <ele>76.599998474121</ele>
        <time>2014-10-05T10:32:59.000Z</time>
      </trkpt>
      <trkpt lat="47.81031" lon="-3.21537">
        <ele>76.599998474121</ele>
        <time>2014-10-05T10:33:02.000Z</time>
      </trkpt>
      <trkpt lat="47.81024" lon="-3.2153">
        <ele>76.800003051758</ele>
        <time>2014-10-05T10:33:08.000Z</time>
      </trkpt>
      <trkpt lat="47.81021" lon="-3.21522">
        <ele>76.800003051758</ele>
        <time>2014-10-05T10:33:13.000Z</time>
      </trkpt>
      <trkpt lat="47.8102" lon="-3.21519">
        <ele>76.800003051758</ele>
        <time>2014-10-05T10:33:15.000Z</time>
      </trkpt>
      <trkpt lat="47.81019" lon="-3.21516">
        <ele>76.800003051758</ele>
        <time>2014-10-05T10:33:17.000Z</time>
      </trkpt>
      <trkpt lat="47.81018" lon="-3.21508">
        <ele>76.800003051758</ele>
        <time>2014-10-05T10:33:21.000Z</time>
      </trkpt>
      <trkpt lat="47.81019" lon="-3.21498">
        <ele>77</ele>
        <time>2014-10-05T10:33:26.000Z</time>
      </trkpt>
      <trkpt lat="47.81022" lon="-3.21488">
        <ele>77.199996948242</ele>
        <time>2014-10-05T10:33:33.000Z</time>
      </trkpt>
      <trkpt lat="47.81022" lon="-3.21487">
        <ele>77.199996948242</ele>
        <time>2014-10-05T10:33:34.000Z</time>
      </trkpt>
      <trkpt lat="47.81032" lon="-3.21486">
        <ele>77</ele>
        <time>2014-10-05T10:33:58.000Z</time>
      </trkpt>
      <trkpt lat="47.81042" lon="-3.21481">
        <ele>77</ele>
        <time>2014-10-05T10:34:05.000Z</time>
      </trkpt>
      <trkpt lat="47.81049" lon="-3.21479">
        <ele>76.800003051758</ele>
        <time>2014-10-05T10:34:11.000Z</time>
      </trkpt>
      <trkpt lat="47.81055" lon="-3.21477">
        <ele>76.800003051758</ele>
        <time>2014-10-05T10:34:16.000Z</time>
      </trkpt>
      <trkpt lat="47.81061" lon="-3.21474">
        <ele>76.800003051758</ele>
        <time>2014-10-05T10:34:22.000Z</time>
      </trkpt>
      <trkpt lat="47.81071" lon="-3.21471">
        <ele>76.800003051758</ele>
        <time>2014-10-05T10:34:28.000Z</time>
      </trkpt>
      <trkpt lat="47.81083" lon="-3.21467">
        <ele>76.599998474121</ele>
        <time>2014-10-05T10:34:36.000Z</time>
      </trkpt>
      <trkpt lat="47.8109" lon="-3.21463">
        <ele>76.599998474121</ele>
        <time>2014-10-05T10:34:42.000Z</time>
      </trkpt>
      <trkpt lat="47.81095" lon="-3.2146">
        <ele>76.599998474121</ele>
        <time>2014-10-05T10:34:47.000Z</time>
      </trkpt>
      <trkpt lat="47.81102" lon="-3.21458">
        <ele>76.599998474121</ele>
        <time>2014-10-05T10:34:53.000Z</time>
      </trkpt>
      <trkpt lat="47.81113" lon="-3.21454">
        <ele>76.599998474121</ele>
        <time>2014-10-05T10:35:00.000Z</time>
      </trkpt>
      <trkpt lat="47.81121" lon="-3.21452">
        <ele>76.800003051758</ele>
        <time>2014-10-05T10:35:05.000Z</time>
      </trkpt>
      <trkpt lat="47.81132" lon="-3.21447">
        <ele>76.800003051758</ele>
        <time>2014-10-05T10:35:13.000Z</time>
      </trkpt>
      <trkpt lat="47.81141" lon="-3.21444">
        <ele>76.800003051758</ele>
        <time>2014-10-05T10:35:19.000Z</time>
      </trkpt>
      <trkpt lat="47.81151" lon="-3.2144">
        <ele>76.800003051758</ele>
        <time>2014-10-05T10:35:26.000Z</time>
      </trkpt>
      <trkpt lat="47.81162" lon="-3.21435">
        <ele>77</ele>
        <time>2014-10-05T10:35:34.000Z</time>
      </trkpt>
      <trkpt lat="47.81166" lon="-3.21433">
        <ele>77</ele>
        <time>2014-10-05T10:35:41.000Z</time>
      </trkpt>
      <trkpt lat="47.81169" lon="-3.21429">
        <ele>77</ele>
        <time>2014-10-05T10:35:53.000Z</time>
      </trkpt>
      <trkpt lat="47.81172" lon="-3.21427">
        <ele>77</ele>
        <time>2014-10-05T10:35:55.000Z</time>
      </trkpt>
      <trkpt lat="47.81178" lon="-3.21411">
        <ele>77.800003051758</ele>
        <time>2014-10-05T10:36:04.000Z</time>
      </trkpt>
      <trkpt lat="47.81179" lon="-3.21402">
        <ele>78.199996948242</ele>
        <time>2014-10-05T10:36:09.000Z</time>
      </trkpt>
      <trkpt lat="47.81179" lon="-3.21393">
        <ele>78.400001525879</ele>
        <time>2014-10-05T10:36:13.000Z</time>
      </trkpt>
      <trkpt lat="47.81182" lon="-3.21378">
        <ele>79</ele>
        <time>2014-10-05T10:36:20.000Z</time>
      </trkpt>
      <trkpt lat="47.81181" lon="-3.21376">
        <ele>79.199996948242</ele>
        <time>2014-10-05T10:36:21.000Z</time>
      </trkpt>
      <trkpt lat="47.81179" lon="-3.21366">
        <ele>79.400001525879</ele>
        <time>2014-10-05T10:36:27.000Z</time>
      </trkpt>
      <trkpt lat="47.81175" lon="-3.21355">
        <ele>79.800003051758</ele>
        <time>2014-10-05T10:36:33.000Z</time>
      </trkpt>
      <trkpt lat="47.81171" lon="-3.21343">
        <ele>80</ele>
        <time>2014-10-05T10:36:39.000Z</time>
      </trkpt>
      <trkpt lat="47.8117" lon="-3.21329">
        <ele>80.199996948242</ele>
        <time>2014-10-05T10:36:45.000Z</time>
      </trkpt>
      <trkpt lat="47.81169" lon="-3.21316">
        <ele>80.199996948242</ele>
        <time>2014-10-05T10:36:50.000Z</time>
      </trkpt>
      <trkpt lat="47.81166" lon="-3.21306">
        <ele>80.199996948242</ele>
        <time>2014-10-05T10:36:55.000Z</time>
      </trkpt>
      <trkpt lat="47.81163" lon="-3.21301">
        <ele>80.199996948242</ele>
        <time>2014-10-05T10:37:02.000Z</time>
      </trkpt>
      <trkpt lat="47.81163" lon="-3.21301">
        <ele>80.199996948242</ele>
        <time>2014-10-05T10:37:04.000Z</time>
      </trkpt>
      <trkpt lat="47.81165" lon="-3.21301">
        <ele>80.400001525879</ele>
        <time>2014-10-05T10:37:08.000Z</time>
      </trkpt>
      <trkpt lat="47.81167" lon="-3.21302">
        <ele>80.400001525879</ele>
        <time>2014-10-05T10:37:11.000Z</time>
      </trkpt>
      <trkpt lat="47.81164" lon="-3.21296">
        <ele>80.199996948242</ele>
        <time>2014-10-05T10:37:17.000Z</time>
      </trkpt>
      <trkpt lat="47.81162" lon="-3.21289">
        <ele>80.400001525879</ele>
        <time>2014-10-05T10:37:20.000Z</time>
      </trkpt>
      <trkpt lat="47.81159" lon="-3.21275">
        <ele>80.400001525879</ele>
        <time>2014-10-05T10:37:27.000Z</time>
      </trkpt>
      <trkpt lat="47.81157" lon="-3.21269">
        <ele>80.199996948242</ele>
        <time>2014-10-05T10:37:30.000Z</time>
      </trkpt>
      <trkpt lat="47.81157" lon="-3.21253">
        <ele>79.800003051758</ele>
        <time>2014-10-05T10:37:36.000Z</time>
      </trkpt>
      <trkpt lat="47.81156" lon="-3.21247">
        <ele>79.599998474121</ele>
        <time>2014-10-05T10:37:39.000Z</time>
      </trkpt>
      <trkpt lat="47.81153" lon="-3.21241">
        <ele>79</ele>
        <time>2014-10-05T10:37:44.000Z</time>
      </trkpt>
      <trkpt lat="47.81152" lon="-3.21237">
        <ele>78.800003051758</ele>
        <time>2014-10-05T10:37:46.000Z</time>
      </trkpt>
      <trkpt lat="47.81149" lon="-3.21227">
        <ele>78.199996948242</ele>
        <time>2014-10-05T10:37:52.000Z</time>
      </trkpt>
      <trkpt lat="47.81149" lon="-3.21225">
        <ele>78.199996948242</ele>
        <time>2014-10-05T10:37:53.000Z</time>
      </trkpt>
      <trkpt lat="47.81148" lon="-3.21215">
        <ele>77.599998474121</ele>
        <time>2014-10-05T10:37:57.000Z</time>
      </trkpt>
      <trkpt lat="47.81144" lon="-3.21202">
        <ele>77</ele>
        <time>2014-10-05T10:38:03.000Z</time>
      </trkpt>
      <trkpt lat="47.81142" lon="-3.21195">
        <ele>77.199996948242</ele>
        <time>2014-10-05T10:38:07.000Z</time>
      </trkpt>
      <trkpt lat="47.81141" lon="-3.21184">
        <ele>77.400001525879</ele>
        <time>2014-10-05T10:38:12.000Z</time>
      </trkpt>
      <trkpt lat="47.81138" lon="-3.21174">
        <ele>77.400001525879</ele>
        <time>2014-10-05T10:38:17.000Z</time>
      </trkpt>
      <trkpt lat="47.81136" lon="-3.21161">
        <ele>77.400001525879</ele>
        <time>2014-10-05T10:38:23.000Z</time>
      </trkpt>
      <trkpt lat="47.81134" lon="-3.21156">
        <ele>77.400001525879</ele>
        <time>2014-10-05T10:38:26.000Z</time>
      </trkpt>
      <trkpt lat="47.8113" lon="-3.21142">
        <ele>77.599998474121</ele>
        <time>2014-10-05T10:38:33.000Z</time>
      </trkpt>
      <trkpt lat="47.81128" lon="-3.21132">
        <ele>77.599998474121</ele>
        <time>2014-10-05T10:38:38.000Z</time>
      </trkpt>
      <trkpt lat="47.81125" lon="-3.21127">
        <ele>77.599998474121</ele>
        <time>2014-10-05T10:38:41.000Z</time>
      </trkpt>
      <trkpt lat="47.81124" lon="-3.21124">
        <ele>77.599998474121</ele>
        <time>2014-10-05T10:38:43.000Z</time>
      </trkpt>
      <trkpt lat="47.81119" lon="-3.21116">
        <ele>77.599998474121</ele>
        <time>2014-10-05T10:38:49.000Z</time>
      </trkpt>
      <trkpt lat="47.81114" lon="-3.21102">
        <ele>77.599998474121</ele>
        <time>2014-10-05T10:38:57.000Z</time>
      </trkpt>
      <trkpt lat="47.81113" lon="-3.211">
        <ele>77.800003051758</ele>
        <time>2014-10-05T10:38:58.000Z</time>
      </trkpt>
      <trkpt lat="47.8111" lon="-3.21091">
        <ele>77.800003051758</ele>
        <time>2014-10-05T10:39:03.000Z</time>
      </trkpt>
      <trkpt lat="47.81109" lon="-3.21081">
        <ele>78</ele>
        <time>2014-10-05T10:39:08.000Z</time>
      </trkpt>
      <trkpt lat="47.81108" lon="-3.21076">
        <ele>78</ele>
        <time>2014-10-05T10:39:13.000Z</time>
      </trkpt>
      <trkpt lat="47.81097" lon="-3.2108">
        <ele>78</ele>
        <time>2014-10-05T10:39:48.000Z</time>
      </trkpt>
      <trkpt lat="47.8109" lon="-3.21086">
        <ele>78</ele>
        <time>2014-10-05T10:39:55.000Z</time>
      </trkpt>
      <trkpt lat="47.81083" lon="-3.21091">
        <ele>78</ele>
        <time>2014-10-05T10:40:01.000Z</time>
      </trkpt>
      <trkpt lat="47.81076" lon="-3.21096">
        <ele>78</ele>
        <time>2014-10-05T10:40:08.000Z</time>
      </trkpt>
      <trkpt lat="47.81072" lon="-3.21101">
        <ele>77.800003051758</ele>
        <time>2014-10-05T10:40:13.000Z</time>
      </trkpt>
      <trkpt lat="47.81067" lon="-3.21102">
        <ele>77.800003051758</ele>
        <time>2014-10-05T10:40:22.000Z</time>
      </trkpt>
      <trkpt lat="47.81068" lon="-3.21102">
        <ele>77.800003051758</ele>
        <time>2014-10-05T10:40:25.000Z</time>
      </trkpt>
      <trkpt lat="47.81064" lon="-3.211">
        <ele>77.800003051758</ele>
        <time>2014-10-05T10:40:34.000Z</time>
      </trkpt>
      <trkpt lat="47.81057" lon="-3.21099">
        <ele>78</ele>
        <time>2014-10-05T10:40:38.000Z</time>
      </trkpt>
      <trkpt lat="47.81053" lon="-3.21099">
        <ele>78</ele>
        <time>2014-10-05T10:40:40.000Z</time>
      </trkpt>
      <trkpt lat="47.81047" lon="-3.2109">
        <ele>78</ele>
        <time>2014-10-05T10:40:47.000Z</time>
      </trkpt>
      <trkpt lat="47.81045" lon="-3.21087">
        <ele>78</ele>
        <time>2014-10-05T10:40:49.000Z</time>
      </trkpt>
      <trkpt lat="47.81039" lon="-3.21078">
        <ele>77.800003051758</ele>
        <time>2014-10-05T10:40:56.000Z</time>
      </trkpt>
      <trkpt lat="47.81039" lon="-3.21077">
        <ele>77.800003051758</ele>
        <time>2014-10-05T10:40:57.000Z</time>
      </trkpt>
      <trkpt lat="47.81035" lon="-3.21066">
        <ele>77.599998474121</ele>
        <time>2014-10-05T10:41:01.000Z</time>
      </trkpt>
      <trkpt lat="47.81027" lon="-3.21046">
        <ele>77.800003051758</ele>
        <time>2014-10-05T10:41:08.000Z</time>
      </trkpt>
      <trkpt lat="47.81026" lon="-3.21043">
        <ele>77.800003051758</ele>
        <time>2014-10-05T10:41:09.000Z</time>
      </trkpt>
      <trkpt lat="47.81024" lon="-3.21028">
        <ele>77.800003051758</ele>
        <time>2014-10-05T10:41:14.000Z</time>
      </trkpt>
      <trkpt lat="47.81023" lon="-3.21014">
        <ele>77.800003051758</ele>
        <time>2014-10-05T10:41:18.000Z</time>
      </trkpt>
      <trkpt lat="47.81014" lon="-3.21002">
        <ele>77.800003051758</ele>
        <time>2014-10-05T10:41:23.000Z</time>
      </trkpt>
      <trkpt lat="47.81009" lon="-3.20991">
        <ele>78.199996948242</ele>
        <time>2014-10-05T10:41:27.000Z</time>
      </trkpt>
      <trkpt lat="47.81001" lon="-3.20966">
        <ele>78.400001525879</ele>
        <time>2014-10-05T10:41:35.000Z</time>
      </trkpt>
      <trkpt lat="47.80997" lon="-3.20951">
        <ele>78.599998474121</ele>
        <time>2014-10-05T10:41:40.000Z</time>
      </trkpt>
      <trkpt lat="47.80995" lon="-3.20944">
        <ele>78.599998474121</ele>
        <time>2014-10-05T10:41:42.000Z</time>
      </trkpt>
      <trkpt lat="47.80994" lon="-3.20933">
        <ele>78.599998474121</ele>
        <time>2014-10-05T10:41:46.000Z</time>
      </trkpt>
      <trkpt lat="47.80991" lon="-3.2092">
        <ele>78.400001525879</ele>
        <time>2014-10-05T10:41:50.000Z</time>
      </trkpt>
      <trkpt lat="47.80984" lon="-3.20909">
        <ele>78</ele>
        <time>2014-10-05T10:41:55.000Z</time>
      </trkpt>
      <trkpt lat="47.80984" lon="-3.20907">
        <ele>78</ele>
        <time>2014-10-05T10:41:56.000Z</time>
      </trkpt>
      <trkpt lat="47.80983" lon="-3.20901">
        <ele>77.800003051758</ele>
        <time>2014-10-05T10:42:01.000Z</time>
      </trkpt>
      <trkpt lat="47.80982" lon="-3.20899">
        <ele>77.800003051758</ele>
        <time>2014-10-05T10:42:18.000Z</time>
      </trkpt>
      <trkpt lat="47.80978" lon="-3.20892">
        <ele>77.599998474121</ele>
        <time>2014-10-05T10:42:21.000Z</time>
      </trkpt>
      <trkpt lat="47.80972" lon="-3.20884">
        <ele>77.199996948242</ele>
        <time>2014-10-05T10:42:25.000Z</time>
      </trkpt>
      <trkpt lat="47.80964" lon="-3.20874">
        <ele>77.199996948242</ele>
        <time>2014-10-05T10:42:30.000Z</time>
      </trkpt>
      <trkpt lat="47.80959" lon="-3.20862">
        <ele>77.199996948242</ele>
        <time>2014-10-05T10:42:35.000Z</time>
      </trkpt>
      <trkpt lat="47.80955" lon="-3.20853">
        <ele>77.199996948242</ele>
        <time>2014-10-05T10:42:39.000Z</time>
      </trkpt>
      <trkpt lat="47.80951" lon="-3.20844">
        <ele>77.400001525879</ele>
        <time>2014-10-05T10:42:43.000Z</time>
      </trkpt>
      <trkpt lat="47.80951" lon="-3.20834">
        <ele>77.199996948242</ele>
        <time>2014-10-05T10:42:46.000Z</time>
      </trkpt>
      <trkpt lat="47.80944" lon="-3.2082">
        <ele>77</ele>
        <time>2014-10-05T10:42:52.000Z</time>
      </trkpt>
      <trkpt lat="47.80941" lon="-3.20809">
        <ele>77</ele>
        <time>2014-10-05T10:42:56.000Z</time>
      </trkpt>
      <trkpt lat="47.80931" lon="-3.208">
        <ele>77</ele>
        <time>2014-10-05T10:43:00.000Z</time>
      </trkpt>
      <trkpt lat="47.80923" lon="-3.20789">
        <ele>77</ele>
        <time>2014-10-05T10:43:04.000Z</time>
      </trkpt>
      <trkpt lat="47.80915" lon="-3.20777">
        <ele>76.800003051758</ele>
        <time>2014-10-05T10:43:09.000Z</time>
      </trkpt>
      <trkpt lat="47.8091" lon="-3.20761">
        <ele>76.800003051758</ele>
        <time>2014-10-05T10:43:14.000Z</time>
      </trkpt>
      <trkpt lat="47.80905" lon="-3.20746">
        <ele>77</ele>
        <time>2014-10-05T10:43:19.000Z</time>
      </trkpt>
      <trkpt lat="47.80904" lon="-3.20734">
        <ele>77.199996948242</ele>
        <time>2014-10-05T10:43:23.000Z</time>
      </trkpt>
      <trkpt lat="47.80898" lon="-3.20724">
        <ele>77.199996948242</ele>
        <time>2014-10-05T10:43:27.000Z</time>
      </trkpt>
      <trkpt lat="47.80893" lon="-3.20722">
        <ele>77.199996948242</ele>
        <time>2014-10-05T10:43:29.000Z</time>
      </trkpt>
      <trkpt lat="47.80889" lon="-3.20718">
        <ele>77.199996948242</ele>
        <time>2014-10-05T10:43:36.000Z</time>
      </trkpt>
      <trkpt lat="47.80887" lon="-3.20712">
        <ele>77.199996948242</ele>
        <time>2014-10-05T10:43:51.000Z</time>
      </trkpt>
      <trkpt lat="47.80887" lon="-3.20705">
        <ele>77.199996948242</ele>
        <time>2014-10-05T10:43:54.000Z</time>
      </trkpt>
      <trkpt lat="47.80889" lon="-3.20693">
        <ele>77.400001525879</ele>
        <time>2014-10-05T10:44:00.000Z</time>
      </trkpt>
      <trkpt lat="47.8089" lon="-3.2069">
        <ele>77.400001525879</ele>
        <time>2014-10-05T10:44:01.000Z</time>
      </trkpt>
      <trkpt lat="47.80887" lon="-3.20682">
        <ele>77.599998474121</ele>
        <time>2014-10-05T10:44:06.000Z</time>
      </trkpt>
      <trkpt lat="47.80888" lon="-3.20674">
        <ele>77.599998474121</ele>
        <time>2014-10-05T10:44:11.000Z</time>
      </trkpt>
      <trkpt lat="47.80896" lon="-3.20669">
        <ele>77.599998474121</ele>
        <time>2014-10-05T10:44:17.000Z</time>
      </trkpt>
      <trkpt lat="47.809" lon="-3.20661">
        <ele>77.599998474121</ele>
        <time>2014-10-05T10:44:21.000Z</time>
      </trkpt>
      <trkpt lat="47.80901" lon="-3.20657">
        <ele>77.599998474121</ele>
        <time>2014-10-05T10:44:23.000Z</time>
      </trkpt>
      <trkpt lat="47.80904" lon="-3.2065">
        <ele>77.400001525879</ele>
        <time>2014-10-05T10:44:26.000Z</time>
      </trkpt>
      <trkpt lat="47.80898" lon="-3.20643">
        <ele>77.199996948242</ele>
        <time>2014-10-05T10:44:32.000Z</time>
      </trkpt>
      <trkpt lat="47.80895" lon="-3.20639">
        <ele>77.199996948242</ele>
        <time>2014-10-05T10:44:36.000Z</time>
      </trkpt>
      <trkpt lat="47.80894" lon="-3.2063">
        <ele>77</ele>
        <time>2014-10-05T10:44:41.000Z</time>
      </trkpt>
      <trkpt lat="47.80896" lon="-3.20618">
        <ele>77</ele>
        <time>2014-10-05T10:44:47.000Z</time>
      </trkpt>
      <trkpt lat="47.80894" lon="-3.20607">
        <ele>77.400001525879</ele>
        <time>2014-10-05T10:44:53.000Z</time>
      </trkpt>
      <trkpt lat="47.80892" lon="-3.20603">
        <ele>77.599998474121</ele>
        <time>2014-10-05T10:44:56.000Z</time>
      </trkpt>
      <trkpt lat="47.80889" lon="-3.20593">
        <ele>77.800003051758</ele>
        <time>2014-10-05T10:45:01.000Z</time>
      </trkpt>
      <trkpt lat="47.80888" lon="-3.20588">
        <ele>77.800003051758</ele>
        <time>2014-10-05T10:45:03.000Z</time>
      </trkpt>
      <trkpt lat="47.80885" lon="-3.20581">
        <ele>77.800003051758</ele>
        <time>2014-10-05T10:45:10.000Z</time>
      </trkpt>
      <trkpt lat="47.80885" lon="-3.20571">
        <ele>77.800003051758</ele>
        <time>2014-10-05T10:45:22.000Z</time>
      </trkpt>
      <trkpt lat="47.80884" lon="-3.20566">
        <ele>78</ele>
        <time>2014-10-05T10:45:24.000Z</time>
      </trkpt>
      <trkpt lat="47.80886" lon="-3.2055">
        <ele>77.800003051758</ele>
        <time>2014-10-05T10:45:30.000Z</time>
      </trkpt>
      <trkpt lat="47.80887" lon="-3.20538">
        <ele>77.599998474121</ele>
        <time>2014-10-05T10:45:34.000Z</time>
      </trkpt>
      <trkpt lat="47.80889" lon="-3.20529">
        <ele>77.400001525879</ele>
        <time>2014-10-05T10:45:37.000Z</time>
      </trkpt>
      <trkpt lat="47.80889" lon="-3.20523">
        <ele>77.199996948242</ele>
        <time>2014-10-05T10:45:40.000Z</time>
      </trkpt>
      <trkpt lat="47.80888" lon="-3.20516">
        <ele>77.199996948242</ele>
        <time>2014-10-05T10:45:43.000Z</time>
      </trkpt>
      <trkpt lat="47.80889" lon="-3.20498">
        <ele>76.599998474121</ele>
        <time>2014-10-05T10:45:48.000Z</time>
      </trkpt>
      <trkpt lat="47.80886" lon="-3.20482">
        <ele>76.199996948242</ele>
        <time>2014-10-05T10:45:53.000Z</time>
      </trkpt>
      <trkpt lat="47.80886" lon="-3.2047">
        <ele>76</ele>
        <time>2014-10-05T10:45:58.000Z</time>
      </trkpt>
      <trkpt lat="47.80885" lon="-3.2046">
        <ele>75.800003051758</ele>
        <time>2014-10-05T10:46:03.000Z</time>
      </trkpt>
      <trkpt lat="47.80885" lon="-3.2045">
        <ele>75.599998474121</ele>
        <time>2014-10-05T10:46:09.000Z</time>
      </trkpt>
      <trkpt lat="47.80885" lon="-3.20449">
        <ele>75.400001525879</ele>
        <time>2014-10-05T10:46:10.000Z</time>
      </trkpt>
      <trkpt lat="47.80888" lon="-3.20445">
        <ele>75.400001525879</ele>
        <time>2014-10-05T10:46:18.000Z</time>
      </trkpt>
      <trkpt lat="47.80895" lon="-3.20441">
        <ele>75.400001525879</ele>
        <time>2014-10-05T10:46:25.000Z</time>
      </trkpt>
      <trkpt lat="47.80896" lon="-3.2044">
        <ele>75.199996948242</ele>
        <time>2014-10-05T10:46:28.000Z</time>
      </trkpt>
      <trkpt lat="47.80897" lon="-3.20433">
        <ele>75.199996948242</ele>
        <time>2014-10-05T10:47:01.000Z</time>
      </trkpt>
      <trkpt lat="47.80894" lon="-3.20421">
        <ele>75</ele>
        <time>2014-10-05T10:47:06.000Z</time>
      </trkpt>
      <trkpt lat="47.80893" lon="-3.20417">
        <ele>74.800003051758</ele>
        <time>2014-10-05T10:47:08.000Z</time>
      </trkpt>
      <trkpt lat="47.8089" lon="-3.20404">
        <ele>74.800003051758</ele>
        <time>2014-10-05T10:47:14.000Z</time>
      </trkpt>
      <trkpt lat="47.80891" lon="-3.20383">
        <ele>74.400001525879</ele>
        <time>2014-10-05T10:47:21.000Z</time>
      </trkpt>
      <trkpt lat="47.80892" lon="-3.2038">
        <ele>74.400001525879</ele>
        <time>2014-10-05T10:47:22.000Z</time>
      </trkpt>
      <trkpt lat="47.80895" lon="-3.20363">
        <ele>74.599998474121</ele>
        <time>2014-10-05T10:47:27.000Z</time>
      </trkpt>
      <trkpt lat="47.80898" lon="-3.20345">
        <ele>74.800003051758</ele>
        <time>2014-10-05T10:47:32.000Z</time>
      </trkpt>
      <trkpt lat="47.80897" lon="-3.20342">
        <ele>74.800003051758</ele>
        <time>2014-10-05T10:47:37.000Z</time>
      </trkpt>
      <trkpt lat="47.80897" lon="-3.20343">
        <ele>74.800003051758</ele>
        <time>2014-10-05T10:47:41.000Z</time>
      </trkpt>
      <trkpt lat="47.80897" lon="-3.20334">
        <ele>75</ele>
        <time>2014-10-05T10:47:49.000Z</time>
      </trkpt>
      <trkpt lat="47.80896" lon="-3.20332">
        <ele>75</ele>
        <time>2014-10-05T10:47:50.000Z</time>
      </trkpt>
      <trkpt lat="47.80895" lon="-3.20325">
        <ele>75</ele>
        <time>2014-10-05T10:47:53.000Z</time>
      </trkpt>
      <trkpt lat="47.80894" lon="-3.2031">
        <ele>75</ele>
        <time>2014-10-05T10:47:59.000Z</time>
      </trkpt>
      <trkpt lat="47.80891" lon="-3.20304">
        <ele>75.199996948242</ele>
        <time>2014-10-05T10:48:02.000Z</time>
      </trkpt>
      <trkpt lat="47.80888" lon="-3.20288">
        <ele>75.400001525879</ele>
        <time>2014-10-05T10:48:08.000Z</time>
      </trkpt>
      <trkpt lat="47.80887" lon="-3.20277">
        <ele>76</ele>
        <time>2014-10-05T10:48:13.000Z</time>
      </trkpt>
      <trkpt lat="47.80886" lon="-3.20277">
        <ele>76</ele>
        <time>2014-10-05T10:48:14.000Z</time>
      </trkpt>
      <trkpt lat="47.8088" lon="-3.20269">
        <ele>76.800003051758</ele>
        <time>2014-10-05T10:48:19.000Z</time>
      </trkpt>
      <trkpt lat="47.80876" lon="-3.20264">
        <ele>77.199996948242</ele>
        <time>2014-10-05T10:48:22.000Z</time>
      </trkpt>
      <trkpt lat="47.80872" lon="-3.20246">
        <ele>77.800003051758</ele>
        <time>2014-10-05T10:48:29.000Z</time>
      </trkpt>
      <trkpt lat="47.80871" lon="-3.20236">
        <ele>78</ele>
        <time>2014-10-05T10:48:33.000Z</time>
      </trkpt>
      <trkpt lat="47.80871" lon="-3.20234">
        <ele>78</ele>
        <time>2014-10-05T10:48:34.000Z</time>
      </trkpt>
      <trkpt lat="47.80871" lon="-3.20227">
        <ele>78</ele>
        <time>2014-10-05T10:48:37.000Z</time>
      </trkpt>
      <trkpt lat="47.80867" lon="-3.20213">
        <ele>78</ele>
        <time>2014-10-05T10:48:43.000Z</time>
      </trkpt>
      <trkpt lat="47.80859" lon="-3.20209">
        <ele>78.400001525879</ele>
        <time>2014-10-05T10:48:48.000Z</time>
      </trkpt>
      <trkpt lat="47.80855" lon="-3.20202">
        <ele>78.599998474121</ele>
        <time>2014-10-05T10:48:52.000Z</time>
      </trkpt>
      <trkpt lat="47.80846" lon="-3.20198">
        <ele>78.800003051758</ele>
        <time>2014-10-05T10:48:57.000Z</time>
      </trkpt>
      <trkpt lat="47.80844" lon="-3.20198">
        <ele>79</ele>
        <time>2014-10-05T10:49:00.000Z</time>
      </trkpt>
      <trkpt lat="47.80843" lon="-3.20196">
        <ele>79</ele>
        <time>2014-10-05T10:49:05.000Z</time>
      </trkpt>
      <trkpt lat="47.80843" lon="-3.20195">
        <ele>79</ele>
        <time>2014-10-05T10:49:06.000Z</time>
      </trkpt>
      <trkpt lat="47.8084" lon="-3.20179">
        <ele>79</ele>
        <time>2014-10-05T10:49:12.000Z</time>
      </trkpt>
      <trkpt lat="47.80831" lon="-3.20184">
        <ele>78.599998474121</ele>
        <time>2014-10-05T10:49:17.000Z</time>
      </trkpt>
      <trkpt lat="47.80818" lon="-3.20188">
        <ele>78.199996948242</ele>
        <time>2014-10-05T10:49:23.000Z</time>
      </trkpt>
      <trkpt lat="47.80812" lon="-3.202">
        <ele>77.599998474121</ele>
        <time>2014-10-05T10:49:29.000Z</time>
      </trkpt>
      <trkpt lat="47.80808" lon="-3.20203">
        <ele>77.400001525879</ele>
        <time>2014-10-05T10:49:31.000Z</time>
      </trkpt>
      <trkpt lat="47.80799" lon="-3.20211">
        <ele>76.800003051758</ele>
        <time>2014-10-05T10:49:37.000Z</time>
      </trkpt>
      <trkpt lat="47.80785" lon="-3.20209">
        <ele>76.599998474121</ele>
        <time>2014-10-05T10:49:45.000Z</time>
      </trkpt>
      <trkpt lat="47.80779" lon="-3.20208">
        <ele>76.400001525879</ele>
        <time>2014-10-05T10:49:48.000Z</time>
      </trkpt>
      <trkpt lat="47.80776" lon="-3.20199">
        <ele>76.800003051758</ele>
        <time>2014-10-05T10:49:53.000Z</time>
      </trkpt>
      <trkpt lat="47.80775" lon="-3.20195">
        <ele>76.800003051758</ele>
        <time>2014-10-05T10:49:55.000Z</time>
      </trkpt>
      <trkpt lat="47.80774" lon="-3.2018">
        <ele>77.400001525879</ele>
        <time>2014-10-05T10:50:01.000Z</time>
      </trkpt>
      <trkpt lat="47.80767" lon="-3.20167">
        <ele>76.800003051758</ele>
        <time>2014-10-05T10:50:07.000Z</time>
      </trkpt>
      <trkpt lat="47.80765" lon="-3.20163">
        <ele>76.599998474121</ele>
        <time>2014-10-05T10:50:09.000Z</time>
      </trkpt>
      <trkpt lat="47.80762" lon="-3.20159">
        <ele>76.599998474121</ele>
        <time>2014-10-05T10:50:11.000Z</time>
      </trkpt>
      <trkpt lat="47.80759" lon="-3.2015">
        <ele>76.400001525879</ele>
        <time>2014-10-05T10:50:15.000Z</time>
      </trkpt>
      <trkpt lat="47.80758" lon="-3.20147">
        <ele>76.199996948242</ele>
        <time>2014-10-05T10:50:17.000Z</time>
      </trkpt>
      <trkpt lat="47.80756" lon="-3.20144">
        <ele>76.199996948242</ele>
        <time>2014-10-05T10:50:19.000Z</time>
      </trkpt>
      <trkpt lat="47.80754" lon="-3.20131">
        <ele>75.800003051758</ele>
        <time>2014-10-05T10:50:25.000Z</time>
      </trkpt>
      <trkpt lat="47.80751" lon="-3.20121">
        <ele>75.400001525879</ele>
        <time>2014-10-05T10:50:29.000Z</time>
      </trkpt>
      <trkpt lat="47.80751" lon="-3.20117">
        <ele>75.400001525879</ele>
        <time>2014-10-05T10:50:30.000Z</time>
      </trkpt>
      <trkpt lat="47.80743" lon="-3.20105">
        <ele>74.599998474121</ele>
        <time>2014-10-05T10:50:36.000Z</time>
      </trkpt>
      <trkpt lat="47.80741" lon="-3.20104">
        <ele>74.599998474121</ele>
        <time>2014-10-05T10:50:37.000Z</time>
      </trkpt>
      <trkpt lat="47.80739" lon="-3.20104">
        <ele>74.599998474121</ele>
        <time>2014-10-05T10:50:39.000Z</time>
      </trkpt>
      <trkpt lat="47.8073" lon="-3.20102">
        <ele>74.199996948242</ele>
        <time>2014-10-05T10:50:44.000Z</time>
      </trkpt>
      <trkpt lat="47.80722" lon="-3.20093">
        <ele>73.800003051758</ele>
        <time>2014-10-05T10:50:49.000Z</time>
      </trkpt>
      <trkpt lat="47.80715" lon="-3.20092">
        <ele>73.400001525879</ele>
        <time>2014-10-05T10:50:58.000Z</time>
      </trkpt>
      <trkpt lat="47.80704" lon="-3.20091">
        <ele>73</ele>
        <time>2014-10-05T10:51:06.000Z</time>
      </trkpt>
      <trkpt lat="47.80698" lon="-3.2009">
        <ele>72.800003051758</ele>
        <time>2014-10-05T10:51:09.000Z</time>
      </trkpt>
      <trkpt lat="47.80693" lon="-3.20085">
        <ele>72.400001525879</ele>
        <time>2014-10-05T10:51:16.000Z</time>
      </trkpt>
      <trkpt lat="47.80685" lon="-3.20089">
        <ele>72.199996948242</ele>
        <time>2014-10-05T10:51:24.000Z</time>
      </trkpt>
      <trkpt lat="47.80684" lon="-3.20089">
        <ele>72.199996948242</ele>
        <time>2014-10-05T10:51:25.000Z</time>
      </trkpt>
      <trkpt lat="47.80686" lon="-3.20085">
        <ele>72.199996948242</ele>
        <time>2014-10-05T10:51:28.000Z</time>
      </trkpt>
      <trkpt lat="47.80686" lon="-3.20079">
        <ele>72</ele>
        <time>2014-10-05T10:51:35.000Z</time>
      </trkpt>
      <trkpt lat="47.80685" lon="-3.20077">
        <ele>72</ele>
        <time>2014-10-05T10:51:37.000Z</time>
      </trkpt>
      <trkpt lat="47.80678" lon="-3.20078">
        <ele>72</ele>
        <time>2014-10-05T10:51:42.000Z</time>
      </trkpt>
      <trkpt lat="47.80672" lon="-3.20078">
        <ele>72</ele>
        <time>2014-10-05T10:51:46.000Z</time>
      </trkpt>
      <trkpt lat="47.8067" lon="-3.20067">
        <ele>72</ele>
        <time>2014-10-05T10:51:52.000Z</time>
      </trkpt>
      <trkpt lat="47.8067" lon="-3.20063">
        <ele>72</ele>
        <time>2014-10-05T10:51:54.000Z</time>
      </trkpt>
      <trkpt lat="47.80669" lon="-3.20054">
        <ele>72</ele>
        <time>2014-10-05T10:51:59.000Z</time>
      </trkpt>
      <trkpt lat="47.80668" lon="-3.2005">
        <ele>72</ele>
        <time>2014-10-05T10:52:01.000Z</time>
      </trkpt>
      <trkpt lat="47.80666" lon="-3.20041">
        <ele>72</ele>
        <time>2014-10-05T10:52:05.000Z</time>
      </trkpt>
      <trkpt lat="47.80659" lon="-3.20029">
        <ele>71.800003051758</ele>
        <time>2014-10-05T10:52:11.000Z</time>
      </trkpt>
      <trkpt lat="47.80658" lon="-3.20029">
        <ele>71.800003051758</ele>
        <time>2014-10-05T10:52:12.000Z</time>
      </trkpt>
      <trkpt lat="47.80646" lon="-3.20024">
        <ele>71.599998474121</ele>
        <time>2014-10-05T10:52:18.000Z</time>
      </trkpt>
      <trkpt lat="47.80642" lon="-3.20018">
        <ele>71.599998474121</ele>
        <time>2014-10-05T10:52:21.000Z</time>
      </trkpt>
      <trkpt lat="47.80639" lon="-3.20007">
        <ele>71.599998474121</ele>
        <time>2014-10-05T10:52:27.000Z</time>
      </trkpt>
      <trkpt lat="47.80631" lon="-3.20006">
        <ele>71.599998474121</ele>
        <time>2014-10-05T10:52:34.000Z</time>
      </trkpt>
      <trkpt lat="47.8062" lon="-3.20004">
        <ele>71.400001525879</ele>
        <time>2014-10-05T10:52:40.000Z</time>
      </trkpt>
      <trkpt lat="47.8061" lon="-3.20002">
        <ele>71.400001525879</ele>
        <time>2014-10-05T10:52:44.000Z</time>
      </trkpt>
      <trkpt lat="47.806" lon="-3.20001">
        <ele>71.199996948242</ele>
        <time>2014-10-05T10:52:48.000Z</time>
      </trkpt>
      <trkpt lat="47.80589" lon="-3.19995">
        <ele>71</ele>
        <time>2014-10-05T10:52:54.000Z</time>
      </trkpt>
      <trkpt lat="47.80587" lon="-3.19994">
        <ele>71</ele>
        <time>2014-10-05T10:52:55.000Z</time>
      </trkpt>
      <trkpt lat="47.80577" lon="-3.19992">
        <ele>70.800003051758</ele>
        <time>2014-10-05T10:53:01.000Z</time>
      </trkpt>
      <trkpt lat="47.80571" lon="-3.19991">
        <ele>70.599998474121</ele>
        <time>2014-10-05T10:53:05.000Z</time>
      </trkpt>
      <trkpt lat="47.80566" lon="-3.19991">
        <ele>70.400001525879</ele>
        <time>2014-10-05T10:53:07.000Z</time>
      </trkpt>
      <trkpt lat="47.80555" lon="-3.19992">
        <ele>70.199996948242</ele>
        <time>2014-10-05T10:53:13.000Z</time>
      </trkpt>
      <trkpt lat="47.80548" lon="-3.19991">
        <ele>70</ele>
        <time>2014-10-05T10:53:18.000Z</time>
      </trkpt>
      <trkpt lat="47.80543" lon="-3.19992">
        <ele>70</ele>
        <time>2014-10-05T10:53:22.000Z</time>
      </trkpt>
      <trkpt lat="47.80538" lon="-3.19993">
        <ele>69.800003051758</ele>
        <time>2014-10-05T10:53:30.000Z</time>
      </trkpt>
      <trkpt lat="47.80537" lon="-3.19993">
        <ele>69.800003051758</ele>
        <time>2014-10-05T10:53:33.000Z</time>
      </trkpt>
      <trkpt lat="47.80533" lon="-3.19993">
        <ele>69.599998474121</ele>
        <time>2014-10-05T10:53:37.000Z</time>
      </trkpt>
      <trkpt lat="47.80531" lon="-3.19993">
        <ele>69.599998474121</ele>
        <time>2014-10-05T10:53:39.000Z</time>
      </trkpt>
      <trkpt lat="47.80526" lon="-3.19993">
        <ele>69.599998474121</ele>
        <time>2014-10-05T10:53:43.000Z</time>
      </trkpt>
      <trkpt lat="47.80524" lon="-3.19992">
        <ele>69.400001525879</ele>
        <time>2014-10-05T10:53:45.000Z</time>
      </trkpt>
      <trkpt lat="47.80515" lon="-3.19992">
        <ele>69.199996948242</ele>
        <time>2014-10-05T10:53:52.000Z</time>
      </trkpt>
      <trkpt lat="47.80508" lon="-3.19989">
        <ele>68.800003051758</ele>
        <time>2014-10-05T10:53:58.000Z</time>
      </trkpt>
      <trkpt lat="47.80501" lon="-3.19988">
        <ele>68.599998474121</ele>
        <time>2014-10-05T10:54:04.000Z</time>
      </trkpt>
      <trkpt lat="47.80496" lon="-3.19986">
        <ele>68.599998474121</ele>
        <time>2014-10-05T10:54:09.000Z</time>
      </trkpt>
      <trkpt lat="47.80492" lon="-3.19986">
        <ele>68.599998474121</ele>
        <time>2014-10-05T10:54:23.000Z</time>
      </trkpt>
      <trkpt lat="47.80491" lon="-3.19989">
        <ele>68.599998474121</ele>
        <time>2014-10-05T10:54:25.000Z</time>
      </trkpt>
      <trkpt lat="47.80488" lon="-3.19994">
        <ele>68.599998474121</ele>
        <time>2014-10-05T10:54:29.000Z</time>
      </trkpt>
      <trkpt lat="47.80487" lon="-3.20002">
        <ele>68.599998474121</ele>
        <time>2014-10-05T10:54:34.000Z</time>
      </trkpt>
      <trkpt lat="47.80484" lon="-3.20009">
        <ele>68.800003051758</ele>
        <time>2014-10-05T10:54:40.000Z</time>
      </trkpt>
      <trkpt lat="47.80481" lon="-3.2002">
        <ele>68.400001525879</ele>
        <time>2014-10-05T10:54:48.000Z</time>
      </trkpt>
      <trkpt lat="47.80482" lon="-3.20019">
        <ele>68.400001525879</ele>
        <time>2014-10-05T10:54:52.000Z</time>
      </trkpt>
      <trkpt lat="47.80477" lon="-3.20043">
        <ele>67.599998474121</ele>
        <time>2014-10-05T10:55:09.000Z</time>
      </trkpt>
      <trkpt lat="47.80477" lon="-3.20049">
        <ele>67.599998474121</ele>
        <time>2014-10-05T10:55:12.000Z</time>
      </trkpt>
      <trkpt lat="47.80477" lon="-3.20052">
        <ele>67.599998474121</ele>
        <time>2014-10-05T10:55:13.000Z</time>
      </trkpt>
      <trkpt lat="47.80478" lon="-3.20056">
        <ele>67.599998474121</ele>
        <time>2014-10-05T10:55:15.000Z</time>
      </trkpt>
      <trkpt lat="47.80467" lon="-3.20074">
        <ele>67.199996948242</ele>
        <time>2014-10-05T10:55:22.000Z</time>
      </trkpt>
      <trkpt lat="47.8046" lon="-3.2009">
        <ele>66.800003051758</ele>
        <time>2014-10-05T10:55:27.000Z</time>
      </trkpt>
      <trkpt lat="47.80456" lon="-3.20096">
        <ele>66.599998474121</ele>
        <time>2014-10-05T10:55:29.000Z</time>
      </trkpt>
      <trkpt lat="47.80449" lon="-3.20112">
        <ele>66.400001525879</ele>
        <time>2014-10-05T10:55:35.000Z</time>
      </trkpt>
      <trkpt lat="47.80445" lon="-3.20124">
        <ele>66.199996948242</ele>
        <time>2014-10-05T10:55:39.000Z</time>
      </trkpt>
      <trkpt lat="47.80436" lon="-3.2014">
        <ele>65.599998474121</ele>
        <time>2014-10-05T10:55:45.000Z</time>
      </trkpt>
      <trkpt lat="47.80433" lon="-3.20152">
        <ele>65.599998474121</ele>
        <time>2014-10-05T10:55:49.000Z</time>
      </trkpt>
      <trkpt lat="47.80428" lon="-3.20163">
        <ele>65.400001525879</ele>
        <time>2014-10-05T10:55:53.000Z</time>
      </trkpt>
      <trkpt lat="47.80423" lon="-3.20176">
        <ele>65</ele>
        <time>2014-10-05T10:55:58.000Z</time>
      </trkpt>
      <trkpt lat="47.80414" lon="-3.20192">
        <ele>64.400001525879</ele>
        <time>2014-10-05T10:56:04.000Z</time>
      </trkpt>
      <trkpt lat="47.80406" lon="-3.20208">
        <ele>63.599998474121</ele>
        <time>2014-10-05T10:56:10.000Z</time>
      </trkpt>
      <trkpt lat="47.80401" lon="-3.2022">
        <ele>63</ele>
        <time>2014-10-05T10:56:15.000Z</time>
      </trkpt>
      <trkpt lat="47.80393" lon="-3.20233">
        <ele>62.400001525879</ele>
        <time>2014-10-05T10:56:19.000Z</time>
      </trkpt>
      <trkpt lat="47.80382" lon="-3.20248">
        <ele>61.200000762939</ele>
        <time>2014-10-05T10:56:25.000Z</time>
      </trkpt>
      <trkpt lat="47.8038" lon="-3.2025">
        <ele>61.200000762939</ele>
        <time>2014-10-05T10:56:26.000Z</time>
      </trkpt>
      <trkpt lat="47.80373" lon="-3.20259">
        <ele>60.599998474121</ele>
        <time>2014-10-05T10:56:31.000Z</time>
      </trkpt>
      <trkpt lat="47.80369" lon="-3.20262">
        <ele>60.200000762939</ele>
        <time>2014-10-05T10:56:33.000Z</time>
      </trkpt>
      <trkpt lat="47.80357" lon="-3.20269">
        <ele>59.400001525879</ele>
        <time>2014-10-05T10:56:39.000Z</time>
      </trkpt>
      <trkpt lat="47.80351" lon="-3.20269">
        <ele>58.799999237061</ele>
        <time>2014-10-05T10:56:43.000Z</time>
      </trkpt>
      <trkpt lat="47.8034" lon="-3.20269">
        <ele>58.200000762939</ele>
        <time>2014-10-05T10:56:48.000Z</time>
      </trkpt>
      <trkpt lat="47.80336" lon="-3.20268">
        <ele>58</ele>
        <time>2014-10-05T10:56:50.000Z</time>
      </trkpt>
      <trkpt lat="47.80321" lon="-3.20267">
        <ele>58</ele>
        <time>2014-10-05T10:56:56.000Z</time>
      </trkpt>
      <trkpt lat="47.80315" lon="-3.20268">
        <ele>58</ele>
        <time>2014-10-05T10:57:00.000Z</time>
      </trkpt>
      <trkpt lat="47.80309" lon="-3.20266">
        <ele>58.200000762939</ele>
        <time>2014-10-05T10:57:07.000Z</time>
      </trkpt>
      <trkpt lat="47.80307" lon="-3.20264">
        <ele>58.200000762939</ele>
        <time>2014-10-05T10:57:11.000Z</time>
      </trkpt>
      <trkpt lat="47.803" lon="-3.20244">
        <ele>59.200000762939</ele>
        <time>2014-10-05T10:58:11.000Z</time>
      </trkpt>
      <trkpt lat="47.80299" lon="-3.20254">
        <ele>58.799999237061</ele>
        <time>2014-10-05T10:58:15.000Z</time>
      </trkpt>
      <trkpt lat="47.803" lon="-3.20255">
        <ele>58.799999237061</ele>
        <time>2014-10-05T10:58:16.000Z</time>
      </trkpt>
      <trkpt lat="47.80301" lon="-3.20262">
        <ele>58.400001525879</ele>
        <time>2014-10-05T10:58:21.000Z</time>
      </trkpt>
      <trkpt lat="47.803" lon="-3.20268">
        <ele>58.200000762939</ele>
        <time>2014-10-05T10:58:25.000Z</time>
      </trkpt>
      <trkpt lat="47.80301" lon="-3.2027">
        <ele>58.200000762939</ele>
        <time>2014-10-05T10:58:27.000Z</time>
      </trkpt>
      <trkpt lat="47.80298" lon="-3.20275">
        <ele>58</ele>
        <time>2014-10-05T10:58:31.000Z</time>
      </trkpt>
      <trkpt lat="47.80295" lon="-3.20286">
        <ele>57.599998474121</ele>
        <time>2014-10-05T10:58:38.000Z</time>
      </trkpt>
      <trkpt lat="47.80294" lon="-3.20288">
        <ele>57.599998474121</ele>
        <time>2014-10-05T10:58:42.000Z</time>
      </trkpt>
      <trkpt lat="47.80289" lon="-3.20284">
        <ele>57.799999237061</ele>
        <time>2014-10-05T10:59:13.000Z</time>
      </trkpt>
      <trkpt lat="47.80282" lon="-3.20286">
        <ele>57.799999237061</ele>
        <time>2014-10-05T10:59:17.000Z</time>
      </trkpt>
      <trkpt lat="47.80281" lon="-3.20286">
        <ele>57.799999237061</ele>
        <time>2014-10-05T10:59:20.000Z</time>
      </trkpt>
      <trkpt lat="47.80276" lon="-3.20288">
        <ele>57.799999237061</ele>
        <time>2014-10-05T10:59:28.000Z</time>
      </trkpt>
      <trkpt lat="47.80268" lon="-3.20292">
        <ele>57.799999237061</ele>
        <time>2014-10-05T10:59:33.000Z</time>
      </trkpt>
      <trkpt lat="47.80268" lon="-3.20291">
        <ele>57.799999237061</ele>
        <time>2014-10-05T10:59:34.000Z</time>
      </trkpt>
      <trkpt lat="47.8026" lon="-3.20297">
        <ele>57.599998474121</ele>
        <time>2014-10-05T10:59:40.000Z</time>
      </trkpt>
      <trkpt lat="47.80258" lon="-3.20298">
        <ele>57.599998474121</ele>
        <time>2014-10-05T10:59:41.000Z</time>
      </trkpt>
      <trkpt lat="47.80248" lon="-3.20306">
        <ele>57.799999237061</ele>
        <time>2014-10-05T10:59:49.000Z</time>
      </trkpt>
      <trkpt lat="47.80241" lon="-3.20315">
        <ele>57.799999237061</ele>
        <time>2014-10-05T10:59:56.000Z</time>
      </trkpt>
      <trkpt lat="47.80237" lon="-3.20323">
        <ele>57.599998474121</ele>
        <time>2014-10-05T11:00:01.000Z</time>
      </trkpt>
      <trkpt lat="47.80235" lon="-3.20328">
        <ele>57.599998474121</ele>
        <time>2014-10-05T11:00:05.000Z</time>
      </trkpt>
      <trkpt lat="47.8023" lon="-3.20336">
        <ele>57.599998474121</ele>
        <time>2014-10-05T11:00:09.000Z</time>
      </trkpt>
      <trkpt lat="47.80228" lon="-3.20346">
        <ele>57.200000762939</ele>
        <time>2014-10-05T11:00:15.000Z</time>
      </trkpt>
      <trkpt lat="47.80227" lon="-3.20348">
        <ele>57.200000762939</ele>
        <time>2014-10-05T11:00:16.000Z</time>
      </trkpt>
      <trkpt lat="47.80226" lon="-3.20353">
        <ele>57.400001525879</ele>
        <time>2014-10-05T11:00:21.000Z</time>
      </trkpt>
      <trkpt lat="47.80223" lon="-3.2036">
        <ele>57.400001525879</ele>
        <time>2014-10-05T11:00:26.000Z</time>
      </trkpt>
      <trkpt lat="47.80221" lon="-3.20366">
        <ele>57.400001525879</ele>
        <time>2014-10-05T11:00:35.000Z</time>
      </trkpt>
      <trkpt lat="47.80221" lon="-3.20368">
        <ele>57.400001525879</ele>
        <time>2014-10-05T11:00:36.000Z</time>
      </trkpt>
      <trkpt lat="47.80212" lon="-3.20385">
        <ele>57.599998474121</ele>
        <time>2014-10-05T11:00:41.000Z</time>
      </trkpt>
      <trkpt lat="47.80209" lon="-3.20393">
        <ele>57.599998474121</ele>
        <time>2014-10-05T11:00:46.000Z</time>
      </trkpt>
      <trkpt lat="47.80204" lon="-3.20403">
        <ele>57.799999237061</ele>
        <time>2014-10-05T11:00:51.000Z</time>
      </trkpt>
      <trkpt lat="47.80202" lon="-3.20409">
        <ele>57.799999237061</ele>
        <time>2014-10-05T11:00:56.000Z</time>
      </trkpt>
      <trkpt lat="47.80199" lon="-3.20413">
        <ele>57.799999237061</ele>
        <time>2014-10-05T11:01:02.000Z</time>
      </trkpt>
      <trkpt lat="47.80195" lon="-3.20419">
        <ele>58</ele>
        <time>2014-10-05T11:01:10.000Z</time>
      </trkpt>
      <trkpt lat="47.80193" lon="-3.20422">
        <ele>58</ele>
        <time>2014-10-05T11:01:21.000Z</time>
      </trkpt>
      <trkpt lat="47.80188" lon="-3.20426">
        <ele>58.200000762939</ele>
        <time>2014-10-05T11:01:24.000Z</time>
      </trkpt>
      <trkpt lat="47.80184" lon="-3.20429">
        <ele>58.400001525879</ele>
        <time>2014-10-05T11:01:30.000Z</time>
      </trkpt>
      <trkpt lat="47.8018" lon="-3.20434">
        <ele>58.400001525879</ele>
        <time>2014-10-05T11:01:35.000Z</time>
      </trkpt>
      <trkpt lat="47.80174" lon="-3.20439">
        <ele>58.400001525879</ele>
        <time>2014-10-05T11:01:40.000Z</time>
      </trkpt>
      <trkpt lat="47.80167" lon="-3.20444">
        <ele>58.400001525879</ele>
        <time>2014-10-05T11:01:46.000Z</time>
      </trkpt>
      <trkpt lat="47.80165" lon="-3.20446">
        <ele>58.400001525879</ele>
        <time>2014-10-05T11:01:47.000Z</time>
      </trkpt>
      <trkpt lat="47.80157" lon="-3.20454">
        <ele>58.400001525879</ele>
        <time>2014-10-05T11:01:53.000Z</time>
      </trkpt>
      <trkpt lat="47.80154" lon="-3.20457">
        <ele>58.200000762939</ele>
        <time>2014-10-05T11:01:55.000Z</time>
      </trkpt>
      <trkpt lat="47.80151" lon="-3.20463">
        <ele>58</ele>
        <time>2014-10-05T11:01:59.000Z</time>
      </trkpt>
      <trkpt lat="47.80146" lon="-3.20472">
        <ele>57.799999237061</ele>
        <time>2014-10-05T11:02:04.000Z</time>
      </trkpt>
      <trkpt lat="47.80144" lon="-3.20476">
        <ele>57.799999237061</ele>
        <time>2014-10-05T11:02:07.000Z</time>
      </trkpt>
      <trkpt lat="47.80141" lon="-3.20483">
        <ele>57.400001525879</ele>
        <time>2014-10-05T11:02:11.000Z</time>
      </trkpt>
      <trkpt lat="47.80133" lon="-3.20502">
        <ele>56.799999237061</ele>
        <time>2014-10-05T11:02:17.000Z</time>
      </trkpt>
      <trkpt lat="47.80131" lon="-3.20511">
        <ele>56.400001525879</ele>
        <time>2014-10-05T11:02:21.000Z</time>
      </trkpt>
      <trkpt lat="47.80128" lon="-3.20528">
        <ele>56.799999237061</ele>
        <time>2014-10-05T11:02:28.000Z</time>
      </trkpt>
      <trkpt lat="47.80125" lon="-3.20536">
        <ele>57</ele>
        <time>2014-10-05T11:02:32.000Z</time>
      </trkpt>
      <trkpt lat="47.8012" lon="-3.20549">
        <ele>57.200000762939</ele>
        <time>2014-10-05T11:02:39.000Z</time>
      </trkpt>
      <trkpt lat="47.8012" lon="-3.20554">
        <ele>57.400001525879</ele>
        <time>2014-10-05T11:02:44.000Z</time>
      </trkpt>
      <trkpt lat="47.80111" lon="-3.20566">
        <ele>57.799999237061</ele>
        <time>2014-10-05T11:02:51.000Z</time>
      </trkpt>
      <trkpt lat="47.80108" lon="-3.2057">
        <ele>58</ele>
        <time>2014-10-05T11:02:53.000Z</time>
      </trkpt>
      <trkpt lat="47.801" lon="-3.2058">
        <ele>58.400001525879</ele>
        <time>2014-10-05T11:03:00.000Z</time>
      </trkpt>
      <trkpt lat="47.80093" lon="-3.20588">
        <ele>58.799999237061</ele>
        <time>2014-10-05T11:03:06.000Z</time>
      </trkpt>
      <trkpt lat="47.80089" lon="-3.20593">
        <ele>59</ele>
        <time>2014-10-05T11:03:09.000Z</time>
      </trkpt>
      <trkpt lat="47.80083" lon="-3.20598">
        <ele>59</ele>
        <time>2014-10-05T11:03:14.000Z</time>
      </trkpt>
      <trkpt lat="47.80075" lon="-3.20608">
        <ele>59</ele>
        <time>2014-10-05T11:03:21.000Z</time>
      </trkpt>
      <trkpt lat="47.80071" lon="-3.20611">
        <ele>59</ele>
        <time>2014-10-05T11:03:24.000Z</time>
      </trkpt>
      <trkpt lat="47.80061" lon="-3.2062">
        <ele>59</ele>
        <time>2014-10-05T11:03:31.000Z</time>
      </trkpt>
      <trkpt lat="47.80056" lon="-3.20625">
        <ele>59</ele>
        <time>2014-10-05T11:03:35.000Z</time>
      </trkpt>
      <trkpt lat="47.80049" lon="-3.20633">
        <ele>59</ele>
        <time>2014-10-05T11:03:41.000Z</time>
      </trkpt>
      <trkpt lat="47.80041" lon="-3.2064">
        <ele>59</ele>
        <time>2014-10-05T11:03:48.000Z</time>
      </trkpt>
      <trkpt lat="47.8003" lon="-3.20643">
        <ele>58.799999237061</ele>
        <time>2014-10-05T11:03:54.000Z</time>
      </trkpt>
      <trkpt lat="47.80025" lon="-3.20644">
        <ele>58.599998474121</ele>
        <time>2014-10-05T11:03:57.000Z</time>
      </trkpt>
      <trkpt lat="47.8002" lon="-3.20645">
        <ele>58.599998474121</ele>
        <time>2014-10-05T11:04:02.000Z</time>
      </trkpt>
      <trkpt lat="47.80011" lon="-3.20646">
        <ele>58.400001525879</ele>
        <time>2014-10-05T11:04:08.000Z</time>
      </trkpt>
      <trkpt lat="47.80002" lon="-3.2065">
        <ele>58.200000762939</ele>
        <time>2014-10-05T11:04:14.000Z</time>
      </trkpt>
      <trkpt lat="47.79998" lon="-3.20651">
        <ele>57.799999237061</ele>
        <time>2014-10-05T11:04:16.000Z</time>
      </trkpt>
      <trkpt lat="47.79992" lon="-3.20653">
        <ele>57.400001525879</ele>
        <time>2014-10-05T11:04:20.000Z</time>
      </trkpt>
      <trkpt lat="47.7999" lon="-3.20654">
        <ele>57.400001525879</ele>
        <time>2014-10-05T11:04:22.000Z</time>
      </trkpt>
      <trkpt lat="47.79987" lon="-3.20654">
        <ele>57</ele>
        <time>2014-10-05T11:04:24.000Z</time>
      </trkpt>
      <trkpt lat="47.79979" lon="-3.20656">
        <ele>56.599998474121</ele>
        <time>2014-10-05T11:04:30.000Z</time>
      </trkpt>
      <trkpt lat="47.79974" lon="-3.20656">
        <ele>56.200000762939</ele>
        <time>2014-10-05T11:04:35.000Z</time>
      </trkpt>
      <trkpt lat="47.79969" lon="-3.20657">
        <ele>56</ele>
        <time>2014-10-05T11:04:38.000Z</time>
      </trkpt>
      <trkpt lat="47.79961" lon="-3.20657">
        <ele>55.200000762939</ele>
        <time>2014-10-05T11:04:43.000Z</time>
      </trkpt>
      <trkpt lat="47.79956" lon="-3.20657">
        <ele>55</ele>
        <time>2014-10-05T11:04:47.000Z</time>
      </trkpt>
      <trkpt lat="47.79955" lon="-3.20657">
        <ele>54.799999237061</ele>
        <time>2014-10-05T11:04:48.000Z</time>
      </trkpt>
      <trkpt lat="47.7995" lon="-3.20656">
        <ele>54.599998474121</ele>
        <time>2014-10-05T11:04:52.000Z</time>
      </trkpt>
      <trkpt lat="47.79941" lon="-3.20657">
        <ele>53.799999237061</ele>
        <time>2014-10-05T11:04:58.000Z</time>
      </trkpt>
      <trkpt lat="47.79939" lon="-3.20657">
        <ele>53.599998474121</ele>
        <time>2014-10-05T11:04:59.000Z</time>
      </trkpt>
      <trkpt lat="47.79931" lon="-3.20659">
        <ele>52.599998474121</ele>
        <time>2014-10-05T11:05:04.000Z</time>
      </trkpt>
      <trkpt lat="47.79921" lon="-3.2066">
        <ele>51.400001525879</ele>
        <time>2014-10-05T11:05:11.000Z</time>
      </trkpt>
      <trkpt lat="47.79913" lon="-3.20659">
        <ele>50.599998474121</ele>
        <time>2014-10-05T11:05:16.000Z</time>
      </trkpt>
      <trkpt lat="47.79908" lon="-3.20656">
        <ele>49.799999237061</ele>
        <time>2014-10-05T11:05:21.000Z</time>
      </trkpt>
      <trkpt lat="47.79907" lon="-3.20655">
        <ele>49.599998474121</ele>
        <time>2014-10-05T11:05:23.000Z</time>
      </trkpt>
      <trkpt lat="47.79906" lon="-3.20654">
        <ele>49.400001525879</ele>
        <time>2014-10-05T11:05:26.000Z</time>
      </trkpt>
      <trkpt lat="47.79905" lon="-3.20652">
        <ele>49.200000762939</ele>
        <time>2014-10-05T11:05:27.000Z</time>
      </trkpt>
      <trkpt lat="47.79904" lon="-3.20652">
        <ele>49</ele>
        <time>2014-10-05T11:05:28.000Z</time>
      </trkpt>
      <trkpt lat="47.79901" lon="-3.20641">
        <ele>47.799999237061</ele>
        <time>2014-10-05T11:05:44.000Z</time>
      </trkpt>
      <trkpt lat="47.79899" lon="-3.20637">
        <ele>47.400001525879</ele>
        <time>2014-10-05T11:05:46.000Z</time>
      </trkpt>
      <trkpt lat="47.79895" lon="-3.20629">
        <ele>46.400001525879</ele>
        <time>2014-10-05T11:05:54.000Z</time>
      </trkpt>
      <trkpt lat="47.79895" lon="-3.20628">
        <ele>46.200000762939</ele>
        <time>2014-10-05T11:05:56.000Z</time>
      </trkpt>
      <trkpt lat="47.7989" lon="-3.20615">
        <ele>45</ele>
        <time>2014-10-05T11:06:08.000Z</time>
      </trkpt>
      <trkpt lat="47.79889" lon="-3.20613">
        <ele>45</ele>
        <time>2014-10-05T11:06:09.000Z</time>
      </trkpt>
      <trkpt lat="47.79887" lon="-3.20608">
        <ele>44.599998474121</ele>
        <time>2014-10-05T11:06:13.000Z</time>
      </trkpt>
      <trkpt lat="47.79885" lon="-3.20602">
        <ele>44.200000762939</ele>
        <time>2014-10-05T11:06:18.000Z</time>
      </trkpt>
      <trkpt lat="47.79885" lon="-3.206">
        <ele>44</ele>
        <time>2014-10-05T11:06:19.000Z</time>
      </trkpt>
      <trkpt lat="47.79882" lon="-3.20592">
        <ele>43.599998474121</ele>
        <time>2014-10-05T11:06:23.000Z</time>
      </trkpt>
      <trkpt lat="47.79882" lon="-3.20581">
        <ele>43</ele>
        <time>2014-10-05T11:06:29.000Z</time>
      </trkpt>
      <trkpt lat="47.7988" lon="-3.20573">
        <ele>42.599998474121</ele>
        <time>2014-10-05T11:06:33.000Z</time>
      </trkpt>
      <trkpt lat="47.79879" lon="-3.2056">
        <ele>42.200000762939</ele>
        <time>2014-10-05T11:06:40.000Z</time>
      </trkpt>
      <trkpt lat="47.79878" lon="-3.20556">
        <ele>42</ele>
        <time>2014-10-05T11:06:42.000Z</time>
      </trkpt>
      <trkpt lat="47.79877" lon="-3.20549">
        <ele>41.599998474121</ele>
        <time>2014-10-05T11:06:46.000Z</time>
      </trkpt>
      <trkpt lat="47.79875" lon="-3.20542">
        <ele>41.200000762939</ele>
        <time>2014-10-05T11:06:50.000Z</time>
      </trkpt>
      <trkpt lat="47.79875" lon="-3.20533">
        <ele>41</ele>
        <time>2014-10-05T11:06:55.000Z</time>
      </trkpt>
      <trkpt lat="47.79874" lon="-3.2053">
        <ele>40.799999237061</ele>
        <time>2014-10-05T11:06:57.000Z</time>
      </trkpt>
      <trkpt lat="47.79872" lon="-3.20526">
        <ele>40.599998474121</ele>
        <time>2014-10-05T11:06:59.000Z</time>
      </trkpt>
      <trkpt lat="47.79869" lon="-3.20525">
        <ele>40.400001525879</ele>
        <time>2014-10-05T11:07:04.000Z</time>
      </trkpt>
      <trkpt lat="47.79869" lon="-3.20516">
        <ele>40</ele>
        <time>2014-10-05T11:07:19.000Z</time>
      </trkpt>
      <trkpt lat="47.79867" lon="-3.20513">
        <ele>39.799999237061</ele>
        <time>2014-10-05T11:07:23.000Z</time>
      </trkpt>
      <trkpt lat="47.79869" lon="-3.20504">
        <ele>39.599998474121</ele>
        <time>2014-10-05T11:07:31.000Z</time>
      </trkpt>
      <trkpt lat="47.79869" lon="-3.20495">
        <ele>39.200000762939</ele>
        <time>2014-10-05T11:07:35.000Z</time>
      </trkpt>
      <trkpt lat="47.79871" lon="-3.20484">
        <ele>39</ele>
        <time>2014-10-05T11:07:40.000Z</time>
      </trkpt>
      <trkpt lat="47.7987" lon="-3.20473">
        <ele>38.799999237061</ele>
        <time>2014-10-05T11:07:45.000Z</time>
      </trkpt>
      <trkpt lat="47.7987" lon="-3.20471">
        <ele>38.799999237061</ele>
        <time>2014-10-05T11:07:47.000Z</time>
      </trkpt>
      <trkpt lat="47.79868" lon="-3.20467">
        <ele>38.799999237061</ele>
        <time>2014-10-05T11:07:49.000Z</time>
      </trkpt>
      <trkpt lat="47.79864" lon="-3.20457">
        <ele>38.599998474121</ele>
        <time>2014-10-05T11:07:55.000Z</time>
      </trkpt>
      <trkpt lat="47.79863" lon="-3.20453">
        <ele>38.599998474121</ele>
        <time>2014-10-05T11:07:57.000Z</time>
      </trkpt>
      <trkpt lat="47.79863" lon="-3.20447">
        <ele>38.599998474121</ele>
        <time>2014-10-05T11:08:00.000Z</time>
      </trkpt>
      <trkpt lat="47.79865" lon="-3.20437">
        <ele>38.599998474121</ele>
        <time>2014-10-05T11:08:04.000Z</time>
      </trkpt>
      <trkpt lat="47.79861" lon="-3.20423">
        <ele>38.400001525879</ele>
        <time>2014-10-05T11:08:10.000Z</time>
      </trkpt>
      <trkpt lat="47.7986" lon="-3.20415">
        <ele>38.400001525879</ele>
        <time>2014-10-05T11:08:14.000Z</time>
      </trkpt>
      <trkpt lat="47.79859" lon="-3.20404">
        <ele>38.200000762939</ele>
        <time>2014-10-05T11:08:19.000Z</time>
      </trkpt>
      <trkpt lat="47.79856" lon="-3.20388">
        <ele>38</ele>
        <time>2014-10-05T11:08:27.000Z</time>
      </trkpt>
      <trkpt lat="47.79855" lon="-3.20379">
        <ele>37.799999237061</ele>
        <time>2014-10-05T11:08:32.000Z</time>
      </trkpt>
      <trkpt lat="47.79855" lon="-3.2037">
        <ele>37.599998474121</ele>
        <time>2014-10-05T11:08:37.000Z</time>
      </trkpt>
      <trkpt lat="47.79854" lon="-3.20366">
        <ele>37.599998474121</ele>
        <time>2014-10-05T11:08:39.000Z</time>
      </trkpt>
      <trkpt lat="47.79851" lon="-3.20354">
        <ele>37.400001525879</ele>
        <time>2014-10-05T11:08:45.000Z</time>
      </trkpt>
      <trkpt lat="47.79851" lon="-3.20345">
        <ele>37.200000762939</ele>
        <time>2014-10-05T11:08:49.000Z</time>
      </trkpt>
      <trkpt lat="47.7985" lon="-3.20335">
        <ele>37.400001525879</ele>
        <time>2014-10-05T11:08:54.000Z</time>
      </trkpt>
      <trkpt lat="47.79847" lon="-3.20329">
        <ele>37.400001525879</ele>
        <time>2014-10-05T11:08:57.000Z</time>
      </trkpt>
      <trkpt lat="47.79842" lon="-3.20323">
        <ele>37.200000762939</ele>
        <time>2014-10-05T11:09:02.000Z</time>
      </trkpt>
      <trkpt lat="47.79835" lon="-3.20313">
        <ele>37.200000762939</ele>
        <time>2014-10-05T11:09:09.000Z</time>
      </trkpt>
      <trkpt lat="47.79831" lon="-3.20309">
        <ele>37.200000762939</ele>
        <time>2014-10-05T11:09:12.000Z</time>
      </trkpt>
      <trkpt lat="47.79828" lon="-3.20303">
        <ele>37.400001525879</ele>
        <time>2014-10-05T11:09:16.000Z</time>
      </trkpt>
      <trkpt lat="47.79825" lon="-3.20299">
        <ele>37.400001525879</ele>
        <time>2014-10-05T11:09:19.000Z</time>
      </trkpt>
      <trkpt lat="47.79819" lon="-3.20291">
        <ele>37.599998474121</ele>
        <time>2014-10-05T11:09:25.000Z</time>
      </trkpt>
      <trkpt lat="47.79811" lon="-3.20285">
        <ele>38</ele>
        <time>2014-10-05T11:09:31.000Z</time>
      </trkpt>
      <trkpt lat="47.79808" lon="-3.20283">
        <ele>38</ele>
        <time>2014-10-05T11:09:33.000Z</time>
      </trkpt>
      <trkpt lat="47.79801" lon="-3.20279">
        <ele>38.200000762939</ele>
        <time>2014-10-05T11:09:38.000Z</time>
      </trkpt>
      <trkpt lat="47.79794" lon="-3.20275">
        <ele>38.200000762939</ele>
        <time>2014-10-05T11:09:43.000Z</time>
      </trkpt>
      <trkpt lat="47.79785" lon="-3.20273">
        <ele>38.400001525879</ele>
        <time>2014-10-05T11:09:49.000Z</time>
      </trkpt>
      <trkpt lat="47.79779" lon="-3.2027">
        <ele>38.599998474121</ele>
        <time>2014-10-05T11:09:54.000Z</time>
      </trkpt>
      <trkpt lat="47.79772" lon="-3.20265">
        <ele>38.599998474121</ele>
        <time>2014-10-05T11:09:59.000Z</time>
      </trkpt>
      <trkpt lat="47.7977" lon="-3.20264">
        <ele>38.599998474121</ele>
        <time>2014-10-05T11:10:01.000Z</time>
      </trkpt>
      <trkpt lat="47.79762" lon="-3.20257">
        <ele>39</ele>
        <time>2014-10-05T11:10:08.000Z</time>
      </trkpt>
      <trkpt lat="47.79753" lon="-3.20252">
        <ele>39.599998474121</ele>
        <time>2014-10-05T11:10:15.000Z</time>
      </trkpt>
      <trkpt lat="47.79743" lon="-3.20246">
        <ele>40.599998474121</ele>
        <time>2014-10-05T11:10:23.000Z</time>
      </trkpt>
      <trkpt lat="47.79735" lon="-3.2024">
        <ele>41.200000762939</ele>
        <time>2014-10-05T11:10:29.000Z</time>
      </trkpt>
      <trkpt lat="47.79725" lon="-3.20234">
        <ele>42.200000762939</ele>
        <time>2014-10-05T11:10:38.000Z</time>
      </trkpt>
      <trkpt lat="47.7972" lon="-3.2023">
        <ele>42.599998474121</ele>
        <time>2014-10-05T11:10:42.000Z</time>
      </trkpt>
      <trkpt lat="47.79711" lon="-3.20222">
        <ele>43.400001525879</ele>
        <time>2014-10-05T11:10:49.000Z</time>
      </trkpt>
      <trkpt lat="47.79701" lon="-3.20216">
        <ele>43.599998474121</ele>
        <time>2014-10-05T11:10:58.000Z</time>
      </trkpt>
      <trkpt lat="47.797" lon="-3.20215">
        <ele>43.599998474121</ele>
        <time>2014-10-05T11:10:59.000Z</time>
      </trkpt>
      <trkpt lat="47.79699" lon="-3.20212">
        <ele>43.599998474121</ele>
        <time>2014-10-05T11:11:02.000Z</time>
      </trkpt>
      <trkpt lat="47.79698" lon="-3.20206">
        <ele>43.599998474121</ele>
        <time>2014-10-05T11:11:09.000Z</time>
      </trkpt>
      <trkpt lat="47.79695" lon="-3.20197">
        <ele>43.799999237061</ele>
        <time>2014-10-05T11:11:15.000Z</time>
      </trkpt>
      <trkpt lat="47.79694" lon="-3.2019">
        <ele>43.799999237061</ele>
        <time>2014-10-05T11:11:19.000Z</time>
      </trkpt>
      <trkpt lat="47.79692" lon="-3.20179">
        <ele>44</ele>
        <time>2014-10-05T11:11:25.000Z</time>
      </trkpt>
      <trkpt lat="47.79688" lon="-3.20163">
        <ele>44.799999237061</ele>
        <time>2014-10-05T11:11:34.000Z</time>
      </trkpt>
      <trkpt lat="47.79687" lon="-3.20161">
        <ele>44.799999237061</ele>
        <time>2014-10-05T11:11:35.000Z</time>
      </trkpt>
      <trkpt lat="47.79684" lon="-3.20153">
        <ele>44.799999237061</ele>
        <time>2014-10-05T11:11:41.000Z</time>
      </trkpt>
      <trkpt lat="47.79684" lon="-3.20152">
        <ele>45</ele>
        <time>2014-10-05T11:11:42.000Z</time>
      </trkpt>
      <trkpt lat="47.79683" lon="-3.20146">
        <ele>45</ele>
        <time>2014-10-05T11:11:45.000Z</time>
      </trkpt>
      <trkpt lat="47.79677" lon="-3.20139">
        <ele>45</ele>
        <time>2014-10-05T11:11:51.000Z</time>
      </trkpt>
      <trkpt lat="47.79676" lon="-3.20128">
        <ele>45.200000762939</ele>
        <time>2014-10-05T11:11:58.000Z</time>
      </trkpt>
      <trkpt lat="47.79676" lon="-3.2012">
        <ele>45.599998474121</ele>
        <time>2014-10-05T11:12:03.000Z</time>
      </trkpt>
      <trkpt lat="47.79678" lon="-3.20116">
        <ele>45.599998474121</ele>
        <time>2014-10-05T11:12:05.000Z</time>
      </trkpt>
      <trkpt lat="47.79677" lon="-3.20108">
        <ele>45.799999237061</ele>
        <time>2014-10-05T11:12:10.000Z</time>
      </trkpt>
      <trkpt lat="47.7968" lon="-3.20105">
        <ele>46</ele>
        <time>2014-10-05T11:12:13.000Z</time>
      </trkpt>
      <trkpt lat="47.79682" lon="-3.201">
        <ele>46.200000762939</ele>
        <time>2014-10-05T11:12:19.000Z</time>
      </trkpt>
      <trkpt lat="47.79677" lon="-3.20102">
        <ele>46</ele>
        <time>2014-10-05T11:12:24.000Z</time>
      </trkpt>
      <trkpt lat="47.79674" lon="-3.20105">
        <ele>45.799999237061</ele>
        <time>2014-10-05T11:12:27.000Z</time>
      </trkpt>
    </trkseg>
  </trk>
</gpx>